GFSNW_sfc_dewp_000.txt.gz
Dewpoint
51 50 49 51 51 52 52 38 30 45 39 30 35 30 38 40 32 34 35 33 30 28 33 33 33 32 34 38 37 28 31 28 24 23 27 30 26 25 22 18 17 23 20 18
51 49 50 51 51 53 49 40 48 53 38 27 28 32 38 38 31 32 33 34 35 37 36 33 36 36 38 33 34 31 30 27 25 24 24 25 25 29 28 26 26 24 18 18
49 51 51 51 51 52 48 45 41 44 40 35 28 29 31 33 35 35 34 35 36 36 37 38 36 36 37 35 36 42 36 29 23 21 22 24 21 27 27 24 21 22 22 19
49 50 51 51 51 51 50 42 40 42 35 37 32 30 35 33 33 35 34 33 34 34 33 35 35 37 34 35 40 39 30 25 27 29 29 26 22 22 28 24 23 21 22 22
48 49 50 50 51 50 47 45 38 35 35 40 39 37 34 34 34 34 32 32 37 35 33 32 35 34 30 27 38 36 32 25 26 28 31 29 24 23 24 26 25 27 27 26
49 50 50 50 50 49 44 48 46 38 36 35 37 36 38 36 36 39 38 36 36 34 39 39 39 38 38 37 36 32 28 28 20 13 26 22 16 22 24 24 26 27 26 27
50 50 50 50 50 49 48 49 47 40 31 32 35 38 39 37 36 36 40 39 36 39 41 38 35 36 39 39 39 34 29 26 21 19 18 7 19 25 28 27 30 32 32 33
49 49 49 49 49 50 51 51 46 41 30 33 36 39 41 41 42 41 42 44 41 40 34 32 30 29 28 31 37 33 30 26 23 17 17 16 16 32 31 29 26 35 33 34
49 49 49 48 49 50 51 51 48 44 39 37 39 40 40 35 36 36 40 45 42 36 30 27 24 23 26 27 33 35 31 26 22 16 9 4 17 26 32 30 26 36 35 34
48 48 48 48 49 51 51 51 50 46 42 44 42 39 39 40 38 36 39 40 38 35 26 22 22 22 28 26 26 25 27 25 16 15 12 19 22 31 31 24 25 37 36 35
48 49 49 49 49 51 52 52 52 47 45 45 47 45 41 42 40 37 40 38 37 31 27 24 25 23 29 27 29 30 29 24 22 21 14 14 28 31 28 32 33 37 37 36
48 48 48 48 49 50 51 51 54 51 46 45 48 48 47 46 41 43 40 38 38 37 31 24 31 30 32 25 24 32 26 26 25 24 24 28 30 33 34 35 33 37 38 38
48 49 49 49 50 51 52 52 49 46 43 44 45 45 48 48 47 45 39 39 41 38 37 32 28 24 30 27 29 28 32 32 28 29 29 32 33 33 36 38 37 39 40 39
48 49 49 50 50 51 51 50 49 43 40 36 40 46 46 48 49 47 44 44 42 40 38 33 33 25 33 25 30 29 32 34 31 31 33 34 35 38 38 39 41 40 40 40
49 49 50 49 51 50 50 49 49 49 40 36 37 44 44 47 48 47 46 43 42 39 34 31 31 29 33 34 32 31 35 32 30 29 31 31 31 33 40 40 41 41 39 37
48 49 49 49 49 49 40 38 47 50 46 41 35 41 42 45 47 47 46 46 42 40 37 32 33 36 34 33 31 35 35 37 34 32 34 35 35 40 40 41 41 41 35 26
48 49 49 49 48 49 41 35 45 48 45 39 36 35 39 42 44 43 44 44 42 41 37 33 31 36 37 33 29 33 36 38 39 40 40 37 39 39 41 41 37 28 23 23
48 48 48 49 49 49 47 48 48 47 42 39 33 33 35 42 37 37 42 38 41 40 37 37 34 37 35 34 37 38 39 39 39 39 40 39 40 33 25 25 24 24 26 28
48 47 48 48 47 46 47 48 47 47 43 36 35 32 31 40 38 37 38 40 34 39 36 36 38 33 34 36 35 37 38 38 38 39 39 36 27 23 25 26 30 31 31 32
47 46 42 40 45 47 47 44 40 39 39 40 34 37 35 42 34 34 35 34 35 35 36 39 34 35 35 34 34 35 36 38 39 35 30 28 30 31 33 33 32 32 33 35
44 41 39 45 46 43 38 35 34 37 36 38 37 35 35 40 36 35 35 33 33 32 31 35 33 32 31 27 30 33 34 34 33 33 34 35 35 34 34 34 32 33 33 31
43 44 43 40 38 36 34 33 34 35 32 35 36 36 39 37 38 36 35 33 33 31 34 33 30 29 25 30 32 35 35 33 33 35 35 36 36 36 35 33 31 29 27 25
41 38 34 37 34 33 31 31 33 33 33 34 34 34 34 36 37 34 33 33 32 33 32 30 30 30 36 37 33 29 32 33 33 33 34 31 26 26 27 27 28 27 28 27
36 35 33 32 31 30 30 31 32 32 32 33 33 33 33 33 33 32 32 31 31 29 24 21 32 35 35 27 28 28 29 31 32 27 26 27 27 27 27 26 26 25 26 26
31 31 27 28 30 31 32 32 33 33 34 33 33 33 34 32 31 31 29 25 21 20 18 30 33 35 34 24 26 28 29 26 27 26 26 25 24 24 25 25 24 26 26 25
30 31 29 31 31 31 32 32 32 35 33 33 33 32 30 29 29 26 22 21 19 26 31 33 34 32 29 31 28 29 31 31 31 29 28 27 24 24 26 26 24 22 22 21
30 30 32 31 32 32 32 33 34 36 33 31 29 25 24 28 24 24 30 26 30 32 33 33 33 33 28 32 32 30 29 30 30 29 28 27 24 23 25 26 28 26 25 20

GFSNW_sfc_dewp_003.txt.gz
Dewpoint
51 52 52 51 51 51 51 44 35 48 43 34 36 32 35 39 38 35 36 32 32 31 34 33 33 32 34 39 39 32 31 32 29 22 27 30 26 25 25 24 18 24 25 20
51 51 51 50 51 52 49 39 48 53 43 31 33 34 36 39 35 33 35 37 37 39 37 34 36 36 39 36 35 34 33 31 28 24 22 26 26 28 26 27 29 25 32 19
51 51 50 50 51 52 49 46 43 46 40 36 32 31 33 33 37 36 36 36 38 39 38 39 37 37 38 38 38 41 37 29 28 24 22 25 25 28 26 25 26 24 27 22
51 50 50 50 51 52 49 43 41 45 39 34 32 30 31 32 34 37 36 36 36 37 36 37 37 37 35 37 40 39 33 29 28 29 28 26 21 26 26 22 24 26 24 23
50 50 50 50 51 52 48 41 40 38 39 39 32 33 36 34 35 37 35 35 38 38 35 35 36 36 33 32 39 35 33 30 29 30 29 28 26 24 25 27 26 24 25 26
49 49 50 50 51 51 47 48 45 40 35 39 34 36 34 35 38 40 39 37 38 37 40 40 39 38 38 38 37 33 31 31 26 21 25 23 23 25 25 27 27 28 28 28
48 49 50 50 51 50 48 49 45 39 32 36 34 38 39 37 37 37 41 40 39 42 42 40 38 38 39 37 35 34 30 27 25 27 23 21 21 28 26 26 26 27 29 31
50 50 50 50 50 51 52 52 46 39 33 34 35 39 41 42 43 42 43 44 43 43 38 37 33 34 33 34 34 31 30 29 25 28 21 19 17 24 30 30 25 32 30 32
49 49 49 50 50 50 52 52 49 44 37 35 35 41 41 39 39 40 43 44 42 38 34 33 31 30 29 28 34 35 31 30 30 24 24 19 23 22 34 31 27 31 35 35
48 48 49 49 49 50 52 52 50 48 41 44 42 40 40 41 40 40 40 40 41 38 33 32 32 30 29 26 28 30 33 29 28 21 28 25 24 29 32 26 28 35 37 36
48 48 48 49 49 50 52 52 53 48 46 47 48 44 42 42 43 40 42 41 41 36 35 35 32 33 32 30 30 32 30 29 28 23 23 23 27 32 32 36 36 36 38 38
47 48 49 49 49 50 52 52 54 52 47 47 49 48 48 48 43 43 42 41 40 40 36 33 33 33 33 29 31 33 29 31 30 28 30 32 31 37 36 36 35 37 38 38
48 49 49 50 50 50 52 53 51 49 46 46 46 46 48 49 48 48 42 40 42 39 38 36 34 34 34 32 32 32 33 32 32 33 31 31 33 34 35 35 37 37 39 39
48 49 49 50 50 51 51 50 50 47 44 38 43 48 47 48 49 47 46 43 42 41 39 36 35 35 34 32 34 34 34 34 33 32 34 34 34 36 38 38 39 40 40 41
49 50 50 50 50 51 52 51 50 49 45 39 41 45 45 47 47 45 45 43 42 40 38 35 37 34 35 35 35 34 35 34 35 35 34 35 34 33 36 39 40 41 42 39
48 49 49 50 50 48 48 45 49 49 47 43 39 42 43 45 47 46 46 45 43 42 39 36 36 37 37 35 34 35 35 36 36 34 36 36 37 36 39 40 42 43 41 33
48 48 49 49 48 49 41 38 46 47 46 41 37 38 41 43 45 44 44 45 43 43 39 36 36 38 37 34 33 35 37 38 38 39 40 40 40 40 41 39 29 26 24 25
48 48 48 48 48 48 48 49 48 47 41 39 35 35 38 43 40 39 43 41 42 41 39 37 37 38 38 36 37 36 37 38 40 41 41 41 34 27 25 25 26 28 31 34
47 47 48 48 48 46 48 48 47 47 42 36 34 34 34 41 39 38 40 41 36 39 37 38 40 34 34 33 32 33 34 36 37 33 28 27 26 26 28 30 32 34 34 36
46 46 43 40 45 47 46 43 40 40 39 41 34 37 36 41 36 35 37 37 35 35 37 39 35 35 30 26 29 32 33 33 37 37 30 31 32 31 32 33 35 35 35 36
45 42 40 45 45 43 38 35 35 37 34 38 37 36 37 40 37 36 36 34 34 33 34 36 35 32 26 30 33 34 33 35 35 35 35 35 36 35 34 35 36 36 36 36
44 44 44 41 39 35 34 33 35 32 32 35 36 36 39 37 40 37 35 35 34 32 36 33 31 27 25 32 33 34 35 36 36 37 37 37 36 37 37 37 36 34 31 30
42 39 35 37 35 32 25 31 33 33 33 34 34 34 35 37 37 34 35 34 33 35 33 31 29 26 36 33 31 32 34 35 34 34 35 32 28 28 29 30 31 30 30 29
34 34 31 30 32 31 32 32 32 32 33 33 34 33 34 33 34 33 34 32 32 30 28 26 30 35 32 31 30 34 34 32 30 26 28 29 28 28 28 28 28 28 29 28
32 32 27 28 31 32 32 32 33 33 34 34 34 34 35 32 32 31 31 28 25 25 25 31 32 33 27 24 26 26 29 26 28 28 28 27 26 25 28 27 28 29 28 28
32 32 30 31 32 32 32 32 32 35 34 34 34 32 31 29 30 29 26 25 22 27 31 33 34 33 34 32 28 29 32 32 32 30 29 29 27 27 28 28 28 26 26 26
31 31 32 32 32 32 32 33 33 35 33 32 31 29 27 30 26 26 29 26 29 33 33 35 35 33 31 32 32 30 29 30 30 29 29 28 27 26 28 27 28 28 29 29

GFSNW_sfc_dewp_006.txt.gz
Dewpoint
52 53 52 52 51 51 51 49 41 54 55 43 37 34 30 38 36 36 33 30 28 28 31 28 28 27 30 37 33 30 30 31 31 25 28 29 27 24 21 21 18 28 30 13
51 52 52 52 51 51 50 43 46 52 48 38 44 34 31 36 33 31 34 31 33 36 34 32 34 34 36 36 35 33 33 31 28 25 27 27 26 25 22 26 31 24 32 14
51 52 51 51 51 51 50 43 46 49 40 37 34 31 30 27 36 34 35 36 38 38 36 38 37 37 36 37 36 41 36 32 29 27 21 25 27 26 24 21 25 20 24 12
50 51 51 50 51 51 51 46 42 41 44 37 33 32 29 25 32 35 35 36 35 36 37 36 36 37 34 37 40 38 35 31 28 26 27 25 23 23 25 21 22 23 14 16
49 51 50 50 50 51 51 44 43 43 39 36 32 32 28 25 32 34 33 34 37 38 38 34 37 36 34 34 38 37 34 34 31 30 29 26 25 22 24 24 23 23 20 21
51 50 50 50 50 51 47 49 45 41 40 36 33 31 29 27 37 40 37 36 39 38 39 41 40 39 38 36 37 38 36 36 29 24 27 27 32 28 22 23 24 25 24 24
51 50 50 50 50 51 47 51 45 43 41 39 33 29 29 36 37 39 40 40 40 42 42 41 40 39 37 36 35 34 35 32 32 33 29 30 18 25 24 23 23 23 24 26
50 49 49 49 50 51 51 54 47 42 41 39 34 32 30 39 42 43 42 44 43 43 41 41 37 40 41 39 34 32 32 34 33 37 25 22 11 19 22 25 18 25 24 25
48 48 49 50 51 51 54 55 54 47 45 41 34 33 39 42 43 44 43 44 45 40 44 42 38 33 30 31 34 36 31 34 34 31 35 33 22 23 34 31 21 28 31 32
49 49 49 50 50 51 54 55 56 44 39 41 41 37 40 43 44 44 43 43 43 40 43 44 42 35 31 28 31 35 36 37 36 32 36 28 23 28 33 23 24 32 35 35
49 49 49 49 50 50 53 56 57 52 47 46 46 44 44 44 45 45 44 42 43 44 45 45 40 42 35 31 30 33 32 35 36 32 35 31 26 32 32 33 38 36 36 37
48 49 49 49 49 50 53 54 55 55 51 49 51 50 49 47 45 45 45 44 43 45 44 44 43 39 37 37 35 33 32 34 35 31 31 31 32 35 35 37 38 37 38 36
48 48 49 49 49 50 52 54 56 53 53 48 48 47 49 50 51 51 43 45 44 43 45 46 47 38 42 38 37 35 34 33 35 33 29 30 31 32 34 34 36 36 36 37
48 48 49 49 49 50 52 53 54 55 52 44 48 49 49 50 50 49 49 47 46 44 44 48 42 42 38 42 38 40 36 35 34 33 32 32 32 34 35 35 38 39 39 40
49 49 49 49 50 51 53 54 54 54 52 47 49 48 48 48 47 47 47 46 45 45 47 43 46 41 42 41 40 39 35 33 37 36 30 35 33 34 37 39 39 40 41 42
49 50 50 50 50 51 52 50 53 51 52 51 48 47 47 48 48 47 47 46 46 45 46 46 41 39 43 40 39 35 35 36 36 35 37 38 38 40 42 43 41 40 38 36
49 49 49 48 49 51 46 46 50 48 51 51 47 46 45 46 47 47 49 49 48 48 46 45 44 43 41 39 40 38 38 38 40 42 42 40 41 38 35 33 31 33 33 34
48 48 49 49 49 50 52 51 49 48 45 49 44 43 47 46 47 45 45 46 49 44 43 41 42 41 43 40 38 36 35 36 40 36 39 40 33 30 30 32 34 36 36 36
47 48 49 52 51 52 51 48 47 50 48 45 46 43 41 45 42 43 45 46 41 42 41 42 43 38 38 33 32 34 35 36 36 33 33 32 31 31 33 34 36 36 35 36
47 50 49 47 49 47 47 46 47 48 47 44 38 41 40 42 41 40 42 44 39 40 42 42 41 37 29 30 33 34 35 35 39 37 34 33 32 34 36 36 37 37 37 37
50 48 46 50 46 47 43 41 41 42 41 41 40 41 41 43 41 39 41 38 40 36 39 39 38 34 30 34 34 35 36 36 36 36 36 36 37 36 37 37 38 37 36 36
48 48 47 46 42 42 37 36 39 39 38 39 40 40 42 41 42 41 39 37 37 34 39 37 34 30 31 34 35 36 37 38 37 37 37 37 36 36 37 37 35 34 32 34
47 43 40 41 39 35 36 32 35 35 36 36 36 36 40 41 42 38 40 36 36 38 35 33 32 30 35 34 35 35 35 34 34 33 32 28 27 31 34 33 34 34 32 30
39 37 34 35 34 34 33 35 35 34 34 36 38 36 40 36 37 36 37 33 34 32 31 31 31 34 36 36 36 35 33 34 29 28 30 34 32 33 33 33 33 33 33 32
35 37 31 32 32 34 33 33 34 35 36 37 38 37 38 34 34 33 33 31 31 31 31 33 34 34 36 33 31 30 35 33 31 32 33 34 34 33 33 33 33 33 32 32
35 34 32 33 33 32 33 33 33 36 36 37 37 33 33 31 34 32 32 31 29 31 34 33 34 33 32 29 29 32 33 31 33 31 32 33 32 32 32 31 29 29 29 28
34 32 33 33 33 32 32 33 33 36 34 32 34 33 31 34 32 31 33 32 34 33 34 35 36 36 35 35 34 35 32 31 31 31 31 30 30 29 28 25 21 23 25 26

GFSNW_sfc_dewp_009.txt.gz
Dewpoint
49 50 52 53 52 51 50 49 41 57 58 42 44 40 33 31 31 35 28 29 22 23 24 23 21 20 22 31 30 23 24 27 32 25 27 27 27 24 24 26 21 26 29 17
48 50 52 52 51 51 49 46 46 58 55 42 47 37 30 28 31 31 30 26 25 25 25 24 23 23 38 38 34 27 32 27 28 25 27 26 22 23 23 20 30 22 29 18
45 49 51 52 51 51 51 43 42 50 50 44 39 35 30 30 34 30 30 25 29 31 29 30 30 31 36 38 35 40 37 27 27 26 23 24 26 20 21 22 26 24 22 15
45 49 51 52 51 50 50 44 40 43 45 43 39 35 30 26 29 33 34 33 29 28 29 31 32 35 36 37 40 35 35 30 28 26 25 22 20 19 20 18 19 23 19 7
47 49 50 51 51 50 50 42 39 41 43 42 37 35 28 26 28 32 33 30 28 29 30 32 29 35 36 35 38 37 37 33 33 33 27 25 23 20 16 18 19 15 13 14
48 49 50 51 50 50 48 48 50 43 43 42 36 35 28 27 32 39 33 30 34 32 37 42 41 40 38 36 39 39 37 39 33 25 29 28 32 30 23 19 18 19 21 21
48 48 47 50 50 50 47 50 45 45 42 41 34 30 29 27 31 36 37 36 35 43 42 41 40 37 36 35 37 38 40 37 35 31 31 29 18 22 19 22 19 19 19 20
47 48 48 50 50 50 51 55 48 44 46 37 31 30 27 29 38 40 41 43 43 43 41 40 38 40 41 36 31 31 34 37 34 38 25 20 15 15 19 20 17 21 22 19
48 48 48 50 50 50 55 57 55 45 45 39 31 30 28 39 41 45 45 45 46 44 46 44 33 31 30 33 35 33 31 37 34 30 34 31 27 24 30 28 19 24 24 26
48 49 49 49 49 50 55 55 60 41 36 34 35 32 32 33 39 42 45 45 44 44 47 44 38 34 31 29 31 37 37 38 37 33 36 31 23 26 29 22 28 30 31 28
48 49 49 49 49 50 53 55 58 43 36 42 39 33 36 35 38 46 46 44 45 46 44 46 40 43 38 33 31 33 33 36 38 36 35 31 24 29 29 36 34 31 33 33
48 48 48 48 49 50 52 55 56 55 42 50 50 51 50 43 41 42 47 40 44 45 44 46 49 42 40 39 34 34 33 34 36 31 32 32 30 29 30 34 35 34 34 34
48 48 48 49 50 50 52 56 56 51 53 49 47 47 49 50 52 54 43 47 45 46 50 51 51 42 45 40 39 36 33 33 35 33 25 26 28 29 31 32 34 35 35 37
48 48 48 49 49 50 51 55 57 48 51 50 49 49 49 50 50 51 51 49 50 49 48 52 45 45 41 45 40 39 36 34 31 32 29 27 28 30 33 35 37 38 39 40
48 48 49 49 50 50 53 55 54 56 47 48 50 49 48 48 49 48 48 49 47 46 49 45 48 44 44 45 43 39 34 28 37 35 33 36 33 37 40 40 41 42 41 40
48 48 49 49 49 50 52 54 53 52 57 52 48 49 47 48 47 47 47 47 46 45 47 49 43 42 44 42 38 34 36 38 39 37 39 40 40 40 39 37 36 35 34 33
48 48 48 49 49 53 50 44 52 51 54 53 48 48 48 48 48 49 48 49 48 46 47 50 47 43 42 43 37 38 37 37 40 40 42 41 37 36 35 36 37 38 37 37
48 48 48 48 49 50 51 51 48 50 49 50 46 46 50 48 50 49 48 51 49 46 45 46 47 43 47 41 39 36 36 38 39 36 39 36 35 34 35 37 37 37 37 36
48 49 49 52 53 53 50 47 47 53 51 47 48 43 42 46 44 46 48 49 46 45 43 45 45 41 40 36 35 36 36 37 38 36 35 34 34 34 35 35 36 35 35 34
48 49 48 50 52 47 48 48 50 50 49 46 42 45 44 45 45 42 44 44 43 40 43 42 43 40 34 34 35 36 37 37 38 37 35 35 35 35 35 35 36 35 34 33
52 51 46 51 46 49 46 43 44 43 43 42 41 44 44 45 42 39 43 40 42 38 41 40 39 37 34 35 36 37 37 37 37 37 37 36 36 35 36 35 35 37 35 34
49 51 49 48 44 45 40 39 41 41 39 40 40 41 42 43 45 42 42 38 39 36 40 39 34 33 34 35 37 37 37 36 36 36 35 34 34 35 34 32 31 33 33 33
49 46 42 41 41 37 35 33 36 35 38 37 39 38 43 42 43 41 40 35 38 40 37 34 34 33 35 36 35 35 34 33 33 30 28 28 29 33 35 33 33 34 33 33
42 40 35 37 35 34 34 35 35 34 35 39 41 39 40 40 38 38 36 35 38 34 33 34 34 35 36 37 34 32 32 35 30 29 31 34 34 33 33 33 33 33 32 32
36 38 32 32 33 34 33 33 35 35 37 40 41 41 41 37 36 36 35 32 33 34 33 34 34 35 37 35 34 33 30 34 33 34 33 34 35 34 31 30 30 30 30 30
36 34 33 33 33 32 33 33 33 36 37 40 41 36 35 33 35 34 34 34 32 33 34 35 35 36 38 33 32 35 33 31 34 33 33 33 31 31 30 29 28 31 29 27
35 33 33 33 33 32 32 33 33 36 35 33 35 34 32 35 34 32 35 33 34 33 34 36 37 37 35 32 35 34 34 34 33 32 30 30 30 29 26 22 20 21 23 25

GFSNW_sfc_dewp_012.txt.gz
Dewpoint
47 48 49 51 53 52 51 48 40 54 56 43 37 41 38 35 29 26 28 25 19 19 22 20 19 26 26 28 24 24 23 26 36 24 23 22 24 26 21 35 26 35 36 23
46 48 48 50 52 52 51 44 47 56 54 35 42 40 37 33 30 28 30 25 26 23 24 23 21 20 37 37 28 27 27 27 32 24 26 26 23 19 22 25 37 32 34 26
46 47 48 49 52 52 53 43 44 52 53 40 39 39 35 33 33 27 28 26 26 23 23 24 24 24 36 37 34 41 40 28 26 30 24 25 27 21 17 21 35 33 28 17
44 47 48 49 51 51 51 49 42 46 43 43 41 41 36 31 27 30 29 26 23 28 28 26 26 28 37 37 39 35 34 30 26 22 22 25 24 20 20 17 22 24 25 16
44 47 47 49 51 51 50 47 41 46 44 43 43 41 37 30 26 30 30 30 27 28 30 28 28 29 37 35 38 35 37 36 37 36 28 26 25 24 21 18 17 18 16 17
46 46 46 49 50 51 48 47 50 45 44 42 42 42 36 32 31 32 30 30 30 30 35 38 41 43 41 37 39 39 39 44 39 34 30 31 30 33 26 24 19 19 22 23
46 46 46 48 50 51 47 47 51 48 42 40 40 40 35 30 30 35 34 34 35 42 41 42 40 38 37 38 39 39 43 42 41 38 33 29 22 21 20 21 20 19 17 19
46 46 47 49 50 51 50 52 54 50 45 42 38 40 37 32 32 37 36 43 44 45 43 42 39 44 41 36 31 34 38 42 39 37 31 24 21 17 18 19 20 23 23 23
46 47 47 48 49 51 50 53 58 55 47 44 37 35 35 36 42 44 45 44 48 46 50 48 36 35 32 33 33 30 32 43 43 35 35 31 31 25 28 25 25 25 26 28
46 47 48 48 47 49 51 52 57 56 49 43 38 35 35 36 45 44 44 45 45 46 50 42 44 40 30 34 35 37 39 41 37 36 37 36 25 26 26 28 33 33 33 32
47 47 47 47 46 48 50 51 56 57 48 42 42 38 36 37 44 47 46 44 45 51 46 45 46 44 42 38 31 36 37 39 38 41 35 32 26 26 32 40 41 35 35 36
47 47 47 47 47 49 50 50 55 60 55 50 54 52 50 45 39 47 49 44 45 48 46 47 50 41 39 40 38 32 36 38 41 36 38 38 30 33 34 36 38 36 37 35
47 48 48 48 48 49 50 51 55 57 54 50 46 46 50 51 52 55 46 47 47 48 53 54 53 41 48 39 43 41 34 34 40 39 26 27 30 29 32 31 35 35 36 38
47 48 48 48 49 49 50 51 57 57 52 47 50 50 48 50 50 52 53 52 54 54 53 54 44 44 45 47 44 46 38 34 32 32 32 30 27 35 36 37 39 41 42 41
48 48 48 48 49 49 51 53 56 57 46 48 50 50 48 48 49 49 50 52 52 51 50 44 50 49 48 48 47 45 35 33 42 41 37 39 37 40 41 41 39 37 37 34
48 48 48 48 49 50 53 51 54 56 54 53 48 49 47 47 49 48 48 51 51 49 50 50 47 43 48 43 42 33 38 39 39 38 41 41 41 38 37 37 37 37 36 37
47 48 48 49 49 54 53 48 51 50 57 53 48 47 48 47 48 48 48 49 48 48 50 52 48 45 45 42 42 37 37 38 39 39 41 39 37 36 38 38 37 37 36 36
48 48 49 50 49 50 52 50 49 51 50 51 46 42 48 48 51 49 49 51 50 48 45 48 49 45 51 44 38 37 37 38 38 37 37 36 36 37 37 37 36 35 34 34
48 48 48 52 53 54 52 48 49 57 52 43 48 41 40 47 46 47 50 49 47 46 44 48 46 42 41 39 37 36 37 39 37 35 36 36 36 35 35 35 34 33 33 32
48 50 50 49 51 49 49 49 47 48 49 48 44 46 44 45 43 42 44 45 45 40 43 43 44 41 35 36 37 37 37 39 38 36 35 35 35 34 34 33 34 36 36 34
52 51 48 51 49 48 47 44 45 42 41 43 42 44 44 46 42 39 43 41 42 38 40 41 38 36 35 36 37 37 37 37 37 37 37 36 35 34 35 35 34 33 32 32
51 51 51 51 47 45 39 38 41 42 40 39 40 42 43 44 46 41 41 37 40 36 41 38 34 36 35 36 37 36 36 36 35 35 35 35 35 33 33 32 33 33 32 31
50 46 41 43 41 36 35 33 36 35 36 37 39 37 43 43 43 41 39 35 36 41 35 33 35 35 35 37 37 35 35 35 33 30 30 30 33 34 33 32 32 34 33 32
42 38 34 35 34 33 33 33 33 34 34 37 40 38 39 39 36 37 35 34 38 34 33 33 34 34 36 35 36 34 31 32 31 31 32 33 32 31 32 31 31 30 28 28
36 37 32 32 33 33 33 33 34 35 37 38 41 41 40 36 34 36 35 33 33 32 33 34 35 36 36 35 34 32 32 34 33 33 33 32 31 30 29 29 29 29 28 27
35 33 32 33 33 32 32 33 33 36 37 41 41 37 35 33 35 35 33 34 32 32 33 34 35 35 36 37 35 32 33 35 34 33 32 31 30 30 28 27 28 27 25 23
34 32 32 33 32 32 32 33 33 37 37 33 36 33 31 35 33 32 33 31 33 32 33 35 36 36 35 35 35 35 35 34 33 32 30 29 30 30 28 23 20 23 25 23

GFSNW_sfc_dewp_015.txt.gz
Dewpoint
44 46 47 48 50 52 51 50 42 49 53 44 43 39 40 40 37 38 36 33 27 24 27 24 23 25 34 36 29 30 37 36 32 32 28 25 23 26 28 25 19 29 27 24
44 46 47 47 49 51 49 46 45 52 46 34 38 37 38 41 39 38 33 34 33 34 29 31 24 34 39 39 33 30 34 26 25 24 29 30 24 23 22 32 31 25 22 23
45 47 47 48 48 51 50 47 41 48 49 40 35 34 35 38 41 39 35 32 34 31 28 30 28 38 40 40 38 41 38 31 26 24 26 29 28 25 23 26 26 25 26 24
46 46 46 48 48 50 50 47 39 44 42 43 40 35 35 37 38 38 35 31 31 30 25 30 28 39 39 40 40 37 35 28 29 29 32 28 28 27 26 19 26 24 24 25
45 45 45 47 48 50 48 45 39 47 43 43 42 37 37 36 35 35 32 34 31 29 28 32 29 36 38 36 39 35 36 33 33 32 32 31 28 28 27 27 25 23 21 21
44 45 46 46 48 50 46 45 47 44 43 42 40 35 39 36 37 37 31 35 34 32 37 39 42 42 43 41 39 36 36 34 30 28 29 27 22 26 27 27 27 26 20 21
44 45 46 46 48 49 48 44 48 46 40 41 37 37 40 37 37 38 34 36 36 42 44 43 42 40 44 46 46 42 36 34 31 27 26 14 25 27 22 26 25 24 25 27
45 45 45 47 47 49 46 48 50 48 38 41 37 39 39 41 39 36 42 45 43 45 44 40 35 34 28 36 38 42 43 35 31 24 26 26 23 24 27 24 24 27 27 27
44 44 46 46 47 50 47 46 50 51 46 41 38 38 39 41 37 44 46 48 48 46 45 34 29 29 29 31 31 37 35 36 29 28 24 17 28 29 29 27 25 32 31 31
45 44 46 46 48 49 49 47 50 48 49 46 40 38 40 42 44 44 48 47 43 48 35 35 29 30 34 32 31 29 30 30 26 25 23 28 34 28 30 20 26 34 32 34
46 46 46 48 48 49 49 47 50 50 50 49 48 42 42 42 46 41 46 45 43 40 36 34 32 32 32 32 36 33 30 30 28 32 29 25 31 28 23 36 35 34 33 34
45 46 47 47 47 48 48 46 51 53 49 51 54 51 47 46 47 47 46 43 44 46 41 39 37 33 34 32 28 36 32 36 32 33 32 37 30 30 36 34 32 33 34 38
46 46 46 47 47 47 47 46 51 52 50 50 52 49 51 51 53 53 45 47 47 47 50 43 40 35 34 33 33 34 35 36 34 31 30 31 29 30 34 38 39 42 41 40
46 46 46 46 47 48 48 46 51 52 50 41 47 51 49 50 52 53 52 51 53 52 51 41 39 37 44 34 36 35 37 34 33 32 32 38 41 41 42 40 41 36 35 35
47 47 47 47 47 49 50 50 51 53 50 44 46 49 49 49 50 51 52 52 50 48 40 36 37 39 40 36 37 33 36 34 32 30 39 40 39 39 38 37 36 36 36 35
47 47 48 48 49 49 50 47 51 52 53 49 40 49 47 47 49 49 50 50 50 50 45 40 43 44 39 34 31 38 39 41 41 40 41 39 38 38 38 37 37 37 37 36
47 47 48 48 49 50 48 48 52 52 51 47 40 39 47 49 50 50 48 48 50 48 46 39 40 41 44 33 32 37 39 39 40 41 39 37 38 37 37 36 36 37 36 36
48 48 48 48 49 51 49 52 50 50 51 48 37 39 42 49 42 41 48 44 45 45 42 41 36 40 35 33 37 37 38 38 37 37 38 38 37 37 36 35 35 34 34 34
48 48 49 50 49 50 50 49 49 54 48 38 37 37 37 47 43 41 43 45 37 42 35 36 37 32 35 38 37 37 39 39 37 37 37 37 36 35 34 34 33 33 34 34
48 49 49 42 48 49 48 49 43 42 44 43 37 43 39 44 37 37 38 37 35 32 34 40 36 30 35 37 38 38 39 37 36 35 35 35 34 34 34 35 35 34 31 30
50 47 43 48 48 48 42 35 36 37 34 38 38 39 39 44 37 36 37 35 35 32 34 33 29 30 35 37 37 38 37 37 37 37 36 35 34 35 34 32 31 30 30 29
49 48 50 48 45 41 35 34 35 36 34 36 37 39 42 38 43 35 37 34 33 30 36 35 32 34 36 37 36 36 36 35 35 35 35 35 34 33 32 31 31 30 30 30
47 41 38 40 36 34 28 30 32 33 34 35 35 35 38 39 41 36 36 35 33 35 33 32 32 35 36 36 35 35 35 35 33 33 33 33 32 32 32 31 32 30 29 28
38 35 31 33 32 30 31 31 32 32 33 34 36 35 35 35 35 34 33 33 34 32 30 29 33 35 36 37 36 34 31 30 30 31 31 31 30 30 30 30 29 26 26 27
33 32 29 29 31 32 32 32 33 33 35 35 36 35 37 33 33 33 33 31 29 30 30 32 34 36 35 34 31 31 31 31 32 32 30 30 30 29 28 28 27 26 24 23
33 32 31 32 32 32 32 32 32 35 34 35 35 34 33 32 33 32 31 30 28 29 31 33 35 35 35 32 32 34 33 32 32 32 31 30 29 26 27 27 24 21 20 17
32 31 32 32 32 31 32 32 33 36 34 32 33 31 29 32 31 29 30 28 30 31 32 34 35 35 35 34 34 33 33 32 31 30 30 30 29 26 25 22 24 23 21 16

GFSNW_sfc_dewp_018.txt.gz
Dewpoint
45 45 45 46 47 48 48 46 40 50 51 41 40 39 38 38 38 40 41 38 35 25 26 26 26 25 27 35 36 31 36 34 30 30 32 26 30 25 24 24 18 27 26 23
44 45 45 46 46 48 46 42 43 51 47 36 35 38 38 37 36 38 39 35 34 32 29 26 29 31 37 38 34 32 35 30 25 26 27 30 25 23 27 30 28 24 22 23
45 44 44 45 46 48 47 43 38 45 46 39 33 35 37 36 37 38 40 39 38 32 30 33 32 36 39 41 37 43 37 29 24 23 24 29 27 27 25 28 26 24 25 23
44 44 44 45 45 48 47 44 38 40 37 39 35 35 36 35 33 39 39 36 37 34 27 32 31 37 38 40 39 37 34 27 28 27 31 30 28 27 27 23 24 23 23 24
43 44 44 44 45 48 45 40 42 43 41 38 38 35 33 32 31 34 34 36 36 33 26 29 32 37 36 34 38 32 35 28 32 29 31 30 27 27 27 27 26 25 23 22
43 44 45 44 46 48 43 44 46 44 39 39 38 37 33 31 32 36 34 37 36 32 31 36 37 39 40 39 36 35 34 32 29 26 28 26 25 25 25 26 26 27 23 24
42 42 43 45 47 48 47 46 46 44 38 40 38 38 35 32 34 32 37 36 36 39 42 40 38 40 42 44 44 40 34 32 29 26 24 18 28 28 27 26 25 27 26 26
42 42 44 45 45 46 47 48 46 45 34 41 40 39 37 35 36 38 35 41 39 44 41 37 32 32 31 37 39 41 42 33 30 23 24 25 25 23 21 23 26 29 27 28
44 44 44 45 45 46 47 47 49 46 42 40 41 39 36 36 37 38 43 47 47 47 40 32 28 25 28 30 31 35 37 36 31 28 22 17 26 29 29 27 25 31 32 32
43 44 44 45 45 45 47 45 49 45 45 46 41 38 36 36 42 39 45 45 43 44 34 30 27 29 32 29 28 27 29 29 24 22 20 24 29 30 27 16 21 33 34 34
43 44 44 45 45 45 47 46 49 47 45 47 49 41 38 40 43 40 44 44 43 38 35 33 31 28 32 32 34 31 28 28 25 30 24 20 34 27 23 28 35 34 33 34
44 44 44 45 45 46 47 46 49 50 46 47 50 52 51 42 46 47 45 43 44 45 39 36 35 31 31 30 29 37 27 31 29 30 29 34 31 32 37 35 33 34 39 40
44 44 45 46 46 47 47 47 50 48 45 46 49 48 49 51 49 48 44 45 47 49 45 40 39 30 32 28 29 32 34 38 34 32 32 35 33 39 39 41 41 39 40 40
45 45 46 46 47 48 47 47 49 49 47 40 45 52 49 51 51 52 50 47 51 50 45 39 34 33 38 30 33 33 35 34 33 31 38 40 41 41 39 36 36 36 35 33
45 46 46 46 47 48 48 49 49 50 47 41 42 48 50 52 53 53 53 51 48 44 38 34 34 35 38 31 34 31 35 33 31 30 35 37 38 38 38 36 36 36 35 35
46 47 47 47 47 48 47 42 47 49 50 44 38 50 49 50 52 52 52 52 50 48 41 35 40 43 36 29 29 36 39 40 38 40 40 38 38 38 37 36 36 36 35 35
46 47 47 47 47 48 45 43 50 49 51 44 39 40 48 51 50 49 49 50 49 47 44 38 38 40 39 29 30 38 39 40 38 38 38 37 38 36 36 36 36 36 35 35
47 47 47 48 48 49 46 51 50 52 48 48 38 38 42 49 41 42 47 43 43 44 42 40 36 40 32 31 37 38 37 38 38 38 38 38 36 35 35 35 34 33 33 34
47 48 48 48 48 46 47 49 49 51 49 40 37 37 37 45 41 40 41 41 37 42 35 36 36 34 32 37 37 37 36 37 37 37 36 35 34 34 34 33 33 33 32 29
47 47 46 40 47 50 50 49 45 43 43 40 36 41 38 43 36 37 35 37 34 31 34 39 34 28 36 37 38 39 38 37 37 35 34 34 33 33 34 33 32 30 29 29
47 45 41 48 49 48 43 36 35 37 34 38 39 36 38 44 36 35 36 34 33 27 31 31 33 30 34 37 37 37 37 37 37 36 35 34 35 34 32 30 30 29 29 30
49 48 49 47 44 37 34 32 34 34 33 35 36 38 40 40 44 37 36 34 32 32 35 29 26 33 36 36 36 36 36 35 35 35 35 35 33 31 30 29 29 29 30 29
47 42 36 38 34 31 27 29 31 32 33 35 35 35 36 38 40 35 34 33 32 31 31 30 30 36 36 36 35 35 35 34 34 33 32 32 32 31 31 30 30 29 28 27
36 33 30 32 30 30 30 31 32 32 32 33 34 34 35 34 34 33 34 33 34 30 28 28 33 36 36 35 34 33 32 32 31 30 30 30 30 30 30 29 27 26 25 22
32 32 28 29 31 32 32 32 33 33 34 34 35 35 36 33 33 33 32 31 29 30 29 31 34 36 34 33 31 31 31 30 30 30 29 29 29 28 27 26 26 25 22 20
30 31 31 32 32 31 32 32 32 35 33 34 35 33 32 31 32 31 29 29 27 29 30 32 34 32 32 32 31 31 31 31 30 30 29 28 27 26 25 24 23 22 20 17
30 30 32 32 32 31 32 32 33 36 34 32 30 29 29 32 29 27 29 26 29 31 32 33 34 33 33 34 34 32 32 31 31 30 29 27 26 25 23 20 20 21 20 17

GFSNW_sfc_dewp_024.txt.gz
Dewpoint
46 46 45 46 48 47 46 43 33 49 51 42 40 34 36 37 36 38 39 40 39 36 28 26 24 23 24 27 30 25 31 27 23 24 29 30 26 25 25 24 20 25 24 21
46 46 45 45 47 46 42 39 39 49 46 34 36 35 35 37 34 34 37 38 39 36 30 24 26 26 29 33 28 29 32 25 22 20 23 29 26 27 27 28 26 24 21 22
47 46 45 45 47 46 43 40 33 42 44 35 33 33 33 34 39 35 37 38 40 37 33 31 26 27 36 37 31 40 33 28 21 17 18 26 26 26 28 27 24 24 24 22
47 46 45 46 47 46 43 40 33 37 33 35 34 33 33 33 33 36 37 35 38 36 33 29 31 35 37 36 41 35 30 24 25 23 25 28 26 25 27 25 25 23 24 23
47 46 46 47 46 45 41 37 36 40 36 34 34 36 33 33 34 37 35 34 35 37 36 32 29 35 34 32 35 33 33 26 26 28 29 28 26 26 26 26 25 24 24 23
46 46 47 46 45 44 40 41 41 41 34 34 33 32 33 33 35 36 36 35 33 35 34 34 34 34 37 36 34 33 30 29 26 23 27 26 24 26 26 27 27 26 24 25
47 46 47 46 45 43 40 40 42 39 31 35 32 31 34 34 35 35 35 37 35 35 42 39 38 37 40 41 40 35 29 28 26 23 24 17 25 29 27 26 25 26 26 26
46 46 45 45 44 43 40 42 41 41 33 34 35 33 33 34 35 35 36 36 35 40 40 37 34 32 31 33 37 37 34 30 27 24 24 23 25 26 26 25 23 27 26 32
46 45 45 44 45 44 40 41 43 43 39 34 35 35 33 32 32 34 36 37 39 42 39 33 31 30 31 30 32 35 33 32 29 24 21 19 26 28 27 26 22 29 33 34
45 45 44 44 44 44 41 39 43 42 38 42 38 36 34 35 34 33 35 36 41 41 31 30 28 29 33 30 30 30 29 28 26 22 21 27 29 28 26 21 24 31 34 35
44 44 44 44 43 43 41 38 44 44 40 40 44 44 38 37 36 33 38 39 40 35 33 33 31 28 31 29 31 32 32 30 25 24 21 25 29 28 24 29 32 33 34 34
44 44 44 43 43 44 42 38 42 44 43 43 45 44 42 42 40 37 39 37 42 41 38 34 32 31 27 29 27 33 29 32 30 30 30 33 32 29 29 33 34 34 34 36
43 43 43 44 44 44 42 39 42 42 41 40 41 40 44 43 44 46 39 43 45 43 44 38 36 31 32 31 30 31 32 33 30 30 32 32 33 36 35 34 34 36 37 37
42 42 43 43 43 44 42 40 45 45 43 36 39 49 48 52 49 49 48 45 48 46 46 36 34 32 36 32 33 32 33 35 33 31 36 38 38 39 36 36 36 34 33 31
42 43 43 43 44 44 44 44 46 46 43 37 38 42 47 51 51 50 49 45 46 43 40 33 34 35 36 33 34 29 36 34 33 31 35 33 32 37 37 35 34 34 32 32
43 43 44 44 44 45 43 38 44 48 47 40 34 44 44 50 50 50 47 47 45 43 39 37 40 43 39 34 32 34 36 37 36 33 38 37 37 36 36 35 34 34 33 32
43 44 44 44 45 43 40 38 42 47 47 40 35 36 42 49 50 47 46 46 45 44 41 35 37 40 38 34 33 33 38 38 38 37 37 35 36 35 35 35 35 35 34 34
44 44 44 45 45 45 41 46 48 47 43 41 35 36 39 48 42 42 45 41 41 42 42 38 36 37 32 30 34 38 38 37 37 37 37 37 35 35 34 34 33 33 32 32
44 45 45 44 43 39 42 48 46 50 43 35 35 35 32 45 42 41 39 39 35 42 36 36 37 34 33 33 37 37 38 37 35 35 35 35 33 33 33 32 32 31 30 31
45 44 41 34 40 47 47 45 42 43 45 42 35 40 36 43 37 37 35 34 35 35 35 39 34 33 36 37 38 38 37 36 35 34 32 33 32 32 32 31 30 30 30 31
43 41 38 45 47 44 40 34 34 36 34 37 37 36 37 42 36 35 35 33 32 32 34 36 33 33 34 37 39 38 38 37 38 37 35 35 33 32 31 30 29 29 30 29
43 44 45 45 42 37 33 32 33 34 33 35 36 37 40 37 42 37 35 33 32 31 35 34 31 32 34 35 35 36 36 35 35 35 34 33 32 31 30 29 29 29 28 26
47 41 35 37 32 30 28 30 31 32 32 34 34 35 35 37 37 34 34 32 31 34 32 30 30 35 35 35 35 35 35 35 33 32 31 30 30 30 30 29 29 27 26 26
36 33 28 30 28 29 29 30 32 32 32 33 33 33 34 33 34 33 33 32 33 29 26 26 32 34 35 35 35 34 33 32 32 31 30 29 29 28 28 28 27 26 24 23
32 32 27 28 31 32 32 32 33 33 34 33 34 34 35 33 32 32 33 32 28 28 26 30 33 34 34 32 32 31 31 30 30 30 28 28 28 26 25 24 24 24 22 20
32 31 29 31 30 30 31 31 32 35 33 34 34 33 32 30 31 28 25 27 23 26 29 32 33 32 32 32 31 31 31 30 30 29 28 28 27 25 23 22 21 21 20 19
31 29 30 30 30 28 30 30 30 34 33 31 31 26 24 30 24 23 25 23 26 29 31 32 32 31 31 31 30 30 30 29 29 28 27 26 25 22 20 18 18 18 19 19

GFSNW_sfc_dewp_027.txt.gz
Dewpoint
48 48 48 46 46 47 47 41 33 44 46 37 38 33 34 37 34 39 37 39 39 38 31 28 27 27 28 28 29 27 32 31 27 26 28 29 28 28 28 30 23 26 26 22
48 48 48 46 46 47 44 37 37 45 43 31 33 35 33 34 35 34 36 37 39 39 34 27 29 28 31 33 30 31 33 28 25 22 23 29 28 27 28 28 29 26 30 24
49 49 48 46 46 47 44 39 32 40 41 35 32 32 33 33 36 34 36 37 39 37 35 34 29 29 34 35 32 40 35 29 27 21 23 26 28 28 28 29 28 28 27 25
48 49 48 46 46 46 44 40 35 37 32 33 34 32 31 31 32 36 36 35 34 37 33 32 31 35 38 37 41 35 35 28 27 24 22 26 26 26 27 25 28 28 27 25
46 49 48 46 46 46 41 36 36 38 34 33 32 33 31 31 32 32 35 33 34 34 36 35 31 35 36 35 37 35 34 30 28 26 28 27 28 27 27 27 26 26 25 25
46 48 47 46 46 45 40 41 40 39 33 33 31 29 31 32 34 35 34 34 34 36 35 39 38 37 37 38 36 35 34 33 30 25 28 28 28 30 28 28 28 29 27 30
46 46 47 46 46 44 43 41 40 37 32 33 30 30 32 31 33 33 34 37 36 37 41 41 40 39 40 40 39 37 33 33 31 29 28 26 28 29 28 29 28 28 27 28
45 46 47 46 45 45 41 42 41 39 34 33 33 31 31 34 35 35 35 37 39 41 39 38 33 35 35 36 36 37 35 33 29 30 27 26 24 28 28 28 24 28 27 28
45 46 46 46 45 45 40 41 44 42 35 34 32 33 32 32 34 36 36 41 42 41 39 35 33 31 33 33 33 35 33 34 35 27 27 25 31 28 30 27 25 29 30 33
44 46 46 45 45 45 40 40 44 42 37 39 39 34 33 34 35 35 38 38 39 41 35 34 31 33 35 32 33 33 33 32 31 27 32 30 31 28 29 27 28 33 33 35
46 46 46 45 45 45 40 39 43 42 39 39 40 42 38 36 35 33 37 37 38 38 33 35 34 33 34 33 34 34 34 33 33 30 32 29 32 27 29 35 33 35 37 38
46 46 46 45 45 44 42 39 44 44 38 40 46 44 44 42 37 36 37 36 37 38 37 36 35 35 35 33 31 33 34 35 35 34 35 38 33 36 34 34 35 36 38 37
45 45 44 45 45 44 42 40 42 42 37 38 41 40 44 44 43 43 39 42 44 43 45 41 39 35 36 34 33 34 34 34 35 35 35 34 35 35 36 35 36 35 37 37
45 45 45 44 44 45 41 40 42 41 40 35 37 47 44 49 44 45 46 45 47 47 46 40 38 37 38 36 37 37 35 34 34 33 33 39 38 38 37 37 39 37 36 36
45 45 45 45 45 44 42 43 43 42 40 36 38 41 43 46 49 46 48 46 47 45 42 37 38 38 38 36 37 35 36 35 35 34 34 37 36 39 38 37 36 35 34 33
44 44 44 44 45 43 42 35 42 45 44 38 33 43 44 49 52 50 48 48 46 46 42 39 40 43 40 37 35 35 37 40 39 35 38 37 37 37 36 35 35 34 34 33
43 42 42 42 42 42 38 36 41 43 44 40 34 36 44 48 50 49 48 49 46 46 44 40 41 42 40 36 34 35 37 39 38 38 38 36 36 36 35 35 34 34 33 33
43 43 43 43 43 43 41 46 44 42 42 41 33 34 38 47 41 42 46 44 44 44 42 40 40 39 36 35 35 38 38 38 38 37 37 37 36 35 34 34 34 33 33 33
43 44 43 43 42 39 41 47 46 48 42 34 33 34 34 45 42 41 41 41 38 42 38 39 40 37 35 36 35 38 37 39 36 35 35 35 35 34 33 33 33 32 32 32
44 42 39 35 40 46 46 45 41 41 41 41 35 40 37 41 37 37 38 37 37 36 38 39 37 38 37 38 38 38 37 36 35 34 33 33 33 33 33 32 33 32 32 31
41 39 36 41 46 43 39 34 34 35 33 37 38 37 38 43 37 36 37 33 34 35 37 37 36 35 35 37 38 38 37 37 37 37 35 35 34 33 32 31 32 32 31 30
42 42 44 43 40 35 33 31 32 31 33 35 36 38 41 38 43 36 35 33 33 33 36 35 33 34 35 37 37 37 37 37 36 36 35 34 33 31 31 31 31 30 29 29
45 38 35 36 33 30 28 27 31 31 33 34 34 34 36 37 38 34 33 32 32 34 33 31 31 34 35 36 35 35 35 34 33 31 31 31 30 31 30 28 28 28 28 28
35 32 28 30 28 28 28 30 31 32 32 33 34 34 35 33 34 33 33 32 33 30 27 27 31 33 34 34 34 33 32 31 31 30 30 29 28 28 29 29 29 28 26 26
32 32 27 28 31 32 32 32 32 33 34 33 35 35 35 33 33 32 33 31 27 26 25 29 31 33 33 32 31 31 30 29 29 29 28 28 27 27 26 27 27 26 25 23
31 28 25 29 28 26 28 28 29 33 33 34 35 33 31 29 28 26 23 24 20 24 28 30 32 31 31 30 30 30 30 30 29 29 28 28 26 25 24 24 24 23 22 21
30 26 26 25 26 24 26 27 28 32 33 31 29 20 21 26 21 18 20 19 22 23 28 31 31 30 30 30 30 30 30 29 28 27 26 24 24 24 23 20 19 19 20 21

GFSNW_sfc_dewp_030.txt.gz
Dewpoint
49 48 48 48 48 47 47 42 34 45 47 36 37 34 32 29 25 34 35 36 32 32 27 26 23 22 23 27 25 26 26 26 23 20 27 29 25 24 27 26 23 28 29 19
49 49 48 48 48 48 45 37 39 46 43 30 32 31 31 30 28 29 36 34 36 38 34 28 27 25 31 32 28 26 29 26 24 19 25 28 26 27 26 28 30 23 30 20
48 49 48 48 48 48 45 38 32 39 41 32 30 26 26 28 31 29 33 34 37 37 36 34 30 28 32 35 28 40 34 24 22 21 18 20 25 24 26 26 27 24 24 19
47 47 48 49 48 48 44 39 35 36 32 33 29 30 28 28 26 30 32 33 33 35 34 32 31 30 36 33 37 31 32 24 24 19 18 17 18 17 21 22 23 22 21 20
46 47 49 49 48 47 42 35 36 39 34 32 27 30 26 27 25 24 29 32 34 34 33 30 34 34 32 33 35 32 34 26 28 25 21 21 20 19 18 20 19 18 23 23
46 46 47 49 48 46 40 42 37 37 31 32 28 30 27 26 29 28 26 26 29 31 33 35 39 39 37 36 36 35 34 31 29 23 28 26 28 27 22 22 22 24 24 27
46 46 46 48 48 45 42 39 38 38 30 31 28 27 28 27 28 28 28 31 34 36 37 39 38 36 40 40 38 38 36 34 33 29 33 31 23 28 25 24 23 26 27 26
45 46 45 47 47 46 40 41 40 37 36 31 28 28 27 28 30 29 29 36 35 40 38 33 28 32 37 37 39 38 38 35 33 36 28 25 24 27 28 29 26 27 28 26
45 45 44 47 46 46 41 41 43 41 34 31 31 30 31 30 31 33 32 37 42 42 40 37 30 26 23 30 35 36 35 37 38 32 28 31 27 26 29 29 25 26 27 28
45 44 45 47 46 45 41 43 46 41 35 36 35 34 35 31 30 32 35 39 39 41 39 39 34 30 25 23 34 36 35 35 36 33 34 29 29 28 29 27 29 31 30 31
44 44 45 46 46 45 41 41 47 41 37 39 40 39 36 32 32 34 35 37 39 39 36 36 35 37 36 30 29 35 34 35 37 35 36 33 32 29 30 34 37 35 36 35
44 45 46 46 46 46 42 40 45 46 40 41 41 41 42 42 34 34 41 33 34 36 35 38 38 40 39 33 34 36 34 36 35 34 33 37 34 34 35 37 34 36 37 36
45 46 45 46 46 45 43 43 43 41 38 36 39 38 42 43 44 43 35 37 37 38 39 43 44 42 42 39 35 33 36 36 37 35 32 35 36 34 35 34 35 34 35 37
45 46 45 45 45 43 43 41 41 38 37 34 33 45 44 43 45 44 43 39 41 44 43 43 43 42 39 41 38 37 35 36 35 36 35 35 37 36 35 35 36 35 36 38
46 46 46 47 44 43 44 42 42 39 36 35 34 37 40 44 44 45 44 44 44 46 44 43 40 43 41 42 40 39 35 35 37 37 35 36 33 36 38 37 37 36 37 37
46 46 46 45 44 43 43 37 41 42 43 39 33 41 42 45 46 45 44 43 43 45 42 45 41 42 42 41 37 31 36 36 37 35 36 38 38 38 39 37 37 37 37 37
45 45 45 44 43 42 38 35 39 43 42 38 35 36 41 46 47 48 46 46 44 43 43 44 43 44 41 43 38 31 35 37 39 39 39 37 37 36 38 37 37 38 36 36
44 45 44 43 42 41 39 46 44 43 40 39 35 35 39 46 44 42 47 46 46 45 43 45 43 43 43 40 37 36 37 38 39 39 38 38 38 37 36 36 35 35 34 34
43 43 43 43 40 37 39 45 43 45 41 37 35 35 35 46 43 43 43 44 39 44 43 43 44 43 39 39 37 37 39 39 38 37 37 37 36 35 35 35 35 34 34 34
43 41 38 37 40 45 44 41 38 38 40 41 37 41 39 44 41 39 38 38 37 36 43 44 42 40 39 38 39 40 39 38 38 37 36 36 35 35 35 35 35 34 34 35
39 38 38 43 46 44 40 35 35 36 34 38 37 40 39 45 40 40 40 36 36 39 41 41 39 39 37 37 39 38 38 38 38 38 37 37 37 35 35 35 35 35 34 34
42 43 44 44 40 36 33 32 32 33 32 38 38 39 40 39 44 40 39 37 37 34 38 38 36 34 36 37 37 39 39 38 37 37 36 36 35 35 35 35 33 33 32 31
45 40 38 37 35 31 30 29 32 33 35 35 37 37 43 41 39 37 38 35 35 36 34 30 30 34 35 35 35 35 35 35 34 34 34 33 32 32 31 30 30 29 29 29
37 36 30 32 30 31 32 32 34 34 33 34 36 36 35 34 34 33 33 33 35 33 29 27 30 32 33 33 34 32 31 31 31 31 30 29 29 29 30 30 30 30 30 30
33 32 26 29 32 30 32 32 33 33 34 34 35 35 36 33 33 32 33 32 27 26 24 28 30 33 32 31 31 30 29 29 29 29 28 28 29 28 28 30 29 28 27 26
30 25 23 26 27 25 26 27 28 33 32 35 35 33 32 30 30 27 24 23 19 23 25 28 32 31 31 30 30 30 30 29 28 28 28 27 27 26 25 26 26 26 25 24
28 25 26 24 24 23 25 26 27 31 34 31 29 24 23 26 22 19 21 20 22 25 25 28 30 29 29 29 29 29 29 28 27 27 26 26 27 26 24 22 22 22 21 22

GFSNW_sfc_dewp_033.txt.gz
Dewpoint
49 49 49 49 49 49 47 42 34 42 47 38 37 32 32 27 24 20 23 27 28 22 24 27 21 21 22 23 22 22 25 24 25 23 23 21 22 24 25 28 25 28 30 23
48 48 49 49 49 49 45 38 38 47 45 32 33 32 27 24 19 25 22 24 32 32 26 25 28 24 24 28 26 25 27 25 26 22 20 24 23 27 27 27 28 29 34 22
48 48 49 49 49 49 46 39 33 40 42 38 31 29 27 24 23 19 23 22 28 28 32 31 28 28 29 29 27 37 34 25 23 24 20 20 23 21 22 25 31 28 27 22
46 46 47 48 49 49 45 38 35 38 33 35 33 29 25 22 19 17 23 23 29 29 24 26 28 31 30 33 35 32 31 28 26 22 18 17 16 18 20 21 24 26 25 21
45 46 46 47 49 49 43 34 35 38 34 36 32 30 25 21 19 19 23 25 28 35 34 30 34 33 34 29 31 32 33 28 26 22 19 16 16 15 16 18 20 21 21 21
46 46 46 47 49 49 40 41 36 34 32 34 31 30 27 22 23 23 23 23 26 27 28 36 42 41 40 39 36 34 31 33 30 27 21 20 25 21 19 18 16 19 21 21
46 46 46 46 47 48 43 44 35 38 31 35 29 28 26 24 21 21 20 23 26 30 36 37 36 37 34 40 36 36 34 33 34 31 35 28 25 24 22 22 20 19 18 18
45 46 46 46 46 49 43 41 38 38 36 32 30 27 26 25 24 25 25 23 25 31 35 33 29 34 34 34 32 33 38 38 35 34 29 24 20 23 25 23 22 22 22 22
45 45 45 46 45 47 44 45 42 40 36 33 29 27 27 26 25 30 29 31 39 40 37 33 24 20 20 27 33 34 34 41 39 34 28 27 27 24 25 25 26 24 24 25
45 45 46 45 45 47 45 46 45 41 35 36 34 31 30 27 28 30 35 39 40 40 40 38 29 26 18 23 34 36 37 38 38 36 32 29 25 24 26 28 28 26 26 27
45 46 45 44 45 46 45 44 48 42 38 38 40 38 32 29 32 33 33 35 38 40 36 32 28 34 29 25 24 35 35 35 37 36 34 32 28 29 28 31 33 33 33 30
45 45 45 44 46 46 46 41 44 43 44 42 42 43 42 37 31 33 37 36 37 34 32 35 32 41 42 30 29 31 31 37 35 33 33 37 35 33 33 31 34 36 34 31
45 45 44 45 45 46 45 42 42 43 41 41 38 36 40 42 43 44 37 39 35 36 36 33 40 38 41 36 34 31 36 34 36 36 35 33 34 34 32 34 36 34 34 33
45 45 45 45 45 46 44 41 42 40 38 37 37 42 40 41 42 44 44 42 39 38 37 40 42 40 30 38 35 36 33 36 35 33 32 34 35 36 36 34 36 34 34 34
45 45 46 45 45 45 45 45 45 43 35 34 33 37 37 39 41 43 43 43 42 37 41 43 40 35 36 40 41 36 32 33 37 37 34 39 36 35 36 36 36 36 34 36
45 46 46 45 45 44 43 38 41 41 44 38 34 40 37 37 38 39 43 42 43 37 38 43 39 33 34 41 35 25 27 36 36 36 38 39 39 39 37 36 36 37 36 36
45 44 44 44 43 41 39 36 37 41 38 34 31 35 40 40 41 42 43 42 39 43 42 42 40 38 40 42 38 34 32 28 33 37 39 38 37 35 38 39 37 38 36 37
44 43 43 44 42 42 42 43 42 40 35 37 30 33 36 44 41 41 45 43 43 41 40 40 40 40 43 38 33 33 31 33 38 39 40 39 39 37 38 37 37 37 36 36
44 43 43 43 42 40 41 44 43 44 37 32 36 33 33 43 42 43 44 45 39 40 42 41 40 42 39 38 37 37 40 40 40 39 38 37 38 36 36 36 36 36 36 37
43 42 35 35 40 45 42 41 38 35 37 40 36 39 34 43 39 38 39 41 39 37 42 40 40 38 38 38 39 40 40 40 39 39 39 38 38 37 36 36 36 36 36 37
38 38 38 42 43 41 39 35 33 34 33 36 37 38 36 44 38 37 38 35 38 36 39 39 36 35 33 36 37 39 40 40 39 39 39 39 39 38 37 36 37 37 37 36
42 42 43 41 36 35 34 33 35 34 30 38 38 38 40 40 44 41 41 35 36 35 39 39 32 30 32 33 35 36 36 38 39 38 38 38 37 37 37 37 35 33 32 31
45 41 38 37 36 32 32 28 30 32 37 38 40 38 42 42 41 39 39 37 34 36 32 28 29 29 32 33 33 32 32 33 33 32 32 32 31 32 31 30 31 30 29 29
38 36 31 33 32 30 29 30 32 34 34 37 38 39 38 36 34 33 34 33 35 32 29 26 28 29 31 32 31 29 29 29 29 29 30 29 29 29 31 31 31 30 29 30
30 29 25 26 30 31 31 32 34 34 34 34 35 36 35 33 33 33 34 32 27 25 24 27 30 31 31 31 31 30 29 29 28 29 28 27 28 27 27 29 29 28 26 25
27 24 24 25 27 28 27 28 31 31 31 34 35 33 33 31 31 27 26 24 20 23 26 28 30 30 29 29 29 29 30 29 29 28 27 27 26 25 25 25 25 26 26 25
27 24 25 24 23 23 27 29 30 32 32 31 33 26 26 28 24 20 22 20 23 26 27 27 27 27 28 28 28 29 29 28 28 27 27 26 27 26 24 22 23 23 23 23

GFSNW_sfc_dewp_036.txt.gz
Dewpoint
48 49 49 49 50 50 48 43 35 42 46 37 37 33 28 30 24 23 21 19 18 16 18 23 28 24 24 24 24 22 24 27 25 22 21 22 22 24 24 27 26 30 36 26
48 48 48 49 49 50 47 39 39 45 43 30 32 32 33 26 25 24 22 21 21 20 27 34 35 33 30 28 27 24 26 24 25 24 23 24 22 21 25 29 31 30 34 27
48 48 49 49 48 50 47 39 33 40 41 35 31 31 31 27 26 24 21 18 20 21 27 33 36 37 31 35 27 39 38 27 24 25 23 26 24 21 21 28 31 31 31 28
46 47 47 49 49 50 47 39 34 38 33 34 32 31 26 26 24 24 24 21 22 21 23 30 34 37 38 36 37 30 36 28 26 24 21 22 21 20 19 20 31 30 31 30
46 46 47 48 49 50 45 32 37 38 31 35 32 31 29 24 24 23 21 23 19 21 22 30 33 39 39 36 36 31 36 29 29 28 25 20 21 20 19 19 19 19 22 22
46 46 46 47 48 49 44 39 42 36 33 34 32 31 30 28 27 26 22 22 22 24 22 31 39 44 43 41 39 37 33 33 30 28 27 24 23 23 19 19 19 21 22 25
45 45 46 46 47 47 43 40 42 38 31 33 31 30 30 28 27 27 24 24 23 25 42 43 43 42 42 42 37 39 36 33 32 31 34 24 24 22 19 20 19 21 20 19
46 45 45 45 45 46 45 42 41 38 35 32 30 29 29 29 30 30 26 25 23 29 43 39 37 37 36 36 38 35 35 36 35 31 29 25 20 23 24 25 23 23 23 22
46 46 45 45 46 46 45 42 45 43 35 32 29 29 30 30 29 30 31 30 30 33 29 37 32 26 25 29 29 33 34 39 38 36 29 26 32 28 26 25 25 26 24 26
46 46 46 46 46 46 46 42 44 44 39 36 33 31 30 30 31 31 31 31 34 33 35 33 32 26 20 22 28 32 31 37 36 35 33 31 30 27 26 26 30 33 32 30
46 46 46 46 46 46 45 42 46 44 40 40 40 39 36 33 31 31 31 34 37 39 33 34 31 33 27 21 21 35 33 36 37 37 32 30 35 28 28 34 40 38 36 38
45 45 45 45 46 45 44 42 47 48 44 42 42 43 41 41 35 32 35 34 38 40 36 36 35 40 40 32 30 32 32 36 38 37 37 40 37 34 37 40 40 39 40 37
45 45 45 46 46 45 45 44 45 46 42 42 41 38 41 42 43 41 38 37 39 39 43 38 40 37 41 37 33 32 35 34 35 34 37 39 41 39 36 35 38 35 35 37
45 46 45 45 45 45 46 45 47 45 40 37 39 43 41 40 42 46 45 45 44 42 43 40 42 40 36 38 33 35 31 39 34 34 34 35 33 35 39 39 39 39 37 38
46 45 45 45 45 46 47 47 48 44 37 34 37 37 36 37 39 39 42 46 45 45 41 43 39 38 40 42 37 36 29 29 33 34 36 41 39 37 42 41 39 38 39 37
44 45 45 45 45 46 45 39 46 46 46 39 34 37 35 35 37 37 39 44 45 46 43 41 37 36 36 41 34 31 28 30 32 35 40 42 43 40 41 40 40 40 41 38
44 45 46 46 45 44 40 39 41 44 47 37 32 33 39 37 36 37 39 41 45 45 43 41 39 39 36 40 35 33 33 34 35 39 38 39 41 40 40 40 39 40 38 39
45 45 45 44 45 44 40 41 43 44 38 34 31 32 35 41 38 38 41 41 43 41 41 41 41 40 42 38 36 37 37 37 35 39 41 41 41 40 38 38 39 39 39 38
45 44 44 45 44 41 39 42 42 49 40 32 33 31 30 39 40 42 42 44 39 39 41 40 40 40 37 36 37 39 40 40 39 40 40 39 38 38 38 37 37 38 39 39
43 41 38 37 41 43 41 37 35 35 36 38 34 37 33 37 37 40 41 42 38 34 39 38 39 36 32 32 34 37 37 39 40 39 39 39 40 40 39 37 38 38 39 40
42 39 37 42 43 41 39 32 30 30 31 35 34 35 33 37 34 36 40 35 38 35 37 37 36 31 29 30 32 35 34 37 37 38 39 38 39 40 39 38 37 35 34 32
42 40 40 41 38 35 33 31 34 32 30 37 37 37 37 34 43 37 37 35 35 33 41 36 26 29 30 29 30 30 32 33 33 33 33 33 34 34 33 32 31 31 30 28
44 40 36 35 35 31 30 26 29 33 33 36 37 34 38 39 41 36 37 32 32 35 32 26 26 28 29 29 28 28 29 30 30 29 30 30 29 30 29 28 28 28 27 26
37 35 30 31 28 27 27 28 30 33 33 32 34 37 35 35 33 33 32 32 33 30 26 22 26 28 30 30 30 28 28 28 27 27 27 27 26 26 26 27 27 26 25 26
29 28 23 24 29 30 30 32 33 32 33 33 35 35 35 33 32 33 33 31 21 22 21 24 27 29 28 28 28 28 27 27 26 26 25 25 25 25 25 26 26 25 24 24
24 22 24 24 26 25 27 28 30 32 30 33 35 33 32 29 29 24 24 19 18 21 24 26 28 27 27 28 28 27 28 27 27 26 26 25 24 23 23 24 24 24 23 22
26 24 26 26 24 25 28 30 29 33 32 31 30 25 26 27 21 18 21 19 22 24 25 25 26 26 26 26 26 26 27 26 26 26 26 26 26 25 23 22 23 23 23 23

GFSNW_sfc_dewp_042.txt.gz
Dewpoint
46 46 47 47 48 49 48 44 35 44 45 35 34 29 29 33 29 30 28 29 27 22 23 22 21 26 27 40 38 35 34 26 22 21 22 25 23 22 26 25 26 29 27 24
46 46 47 47 47 48 46 40 38 45 40 29 30 29 29 30 30 28 28 27 28 27 24 23 25 29 42 42 40 39 39 34 23 22 23 25 23 23 23 30 32 28 26 26
46 46 47 47 47 48 46 39 32 39 40 34 29 27 26 27 30 30 30 30 30 26 26 25 25 30 38 42 42 44 43 38 32 24 22 24 25 22 23 25 27 25 27 26
46 46 46 46 47 48 46 38 32 36 32 33 32 29 27 26 26 30 31 30 28 27 25 23 23 27 38 40 43 42 42 37 36 35 32 24 22 24 25 24 26 25 26 29
45 46 46 46 47 47 44 33 34 37 33 34 33 31 28 26 27 27 27 29 27 26 25 24 24 26 27 35 40 38 40 36 35 32 32 27 22 21 25 24 26 26 25 26
46 47 47 47 47 47 42 42 40 37 34 35 33 30 28 28 28 29 28 28 28 25 25 27 33 35 38 38 37 36 37 35 33 28 31 28 24 23 22 28 27 27 27 30
47 46 46 46 47 48 45 43 42 36 32 34 32 30 30 28 29 28 29 30 29 29 29 42 40 40 41 42 40 39 36 34 34 29 30 26 27 26 23 26 26 26 24 24
46 45 45 45 46 47 45 44 41 38 32 34 31 31 30 30 30 30 29 29 30 32 30 33 31 29 31 36 40 40 39 35 31 28 29 30 28 28 28 26 24 27 26 24
45 45 45 45 45 46 45 44 43 40 35 34 33 31 31 30 29 29 30 33 33 32 30 31 24 22 27 28 34 40 37 37 32 31 25 26 30 30 31 30 24 26 26 27
46 46 46 45 45 46 45 44 43 39 33 37 36 31 31 31 30 29 30 31 33 34 29 27 25 23 29 26 28 31 31 31 30 29 27 32 37 35 33 27 27 33 31 30
46 46 46 46 46 46 45 42 44 40 35 37 40 38 33 32 31 28 30 31 34 34 29 28 26 25 29 27 30 31 29 29 29 31 29 27 39 37 33 38 42 43 42 33
46 46 46 46 46 46 45 41 44 44 39 39 43 42 41 37 32 31 33 31 32 35 33 31 29 25 24 27 24 34 29 32 31 32 30 39 41 41 40 43 44 44 42 42
45 46 45 46 46 46 46 42 43 42 38 35 36 39 41 44 44 35 34 36 37 40 41 36 33 26 29 23 25 24 30 36 35 36 34 36 38 39 43 41 43 44 43 43
46 46 46 46 46 46 46 42 43 40 38 33 33 40 41 44 44 44 41 39 44 41 39 36 34 28 32 26 27 29 34 37 35 35 34 36 36 38 41 38 44 44 42 44
45 45 45 46 47 47 45 44 43 42 36 30 35 40 42 43 43 43 45 43 40 40 38 33 31 35 33 34 35 29 37 36 35 32 33 31 32 36 39 38 42 44 43 44
45 45 45 45 45 46 43 38 43 42 45 39 32 40 41 43 42 42 42 43 42 41 40 34 37 37 32 29 30 38 38 38 40 38 40 39 39 36 41 40 40 45 44 42
45 46 46 46 45 44 39 36 41 45 46 40 34 35 40 41 42 42 43 44 44 40 40 39 36 36 36 28 29 35 36 36 40 38 40 40 39 38 39 39 38 40 40 40
45 45 45 45 45 45 42 44 44 44 42 38 30 31 35 39 33 35 42 38 39 41 39 39 37 38 38 30 32 32 34 35 37 36 38 39 40 38 38 39 40 37 35 35
45 44 45 44 43 40 41 45 45 46 40 29 27 25 29 37 35 35 36 38 31 39 35 35 38 31 24 28 29 30 31 33 35 36 36 36 35 34 33 33 32 30 28 28
45 43 39 35 41 45 44 41 36 35 37 35 28 30 29 36 33 32 31 31 31 30 33 39 31 26 29 29 30 30 31 34 35 35 33 34 34 32 30 29 28 27 26 25
40 37 36 40 43 40 36 31 29 31 28 31 31 29 32 36 29 33 29 28 29 26 29 30 26 21 25 27 26 27 29 31 32 34 33 33 31 30 28 27 26 25 24 23
40 38 40 38 36 31 27 26 27 27 29 32 28 30 34 35 37 34 34 28 31 26 31 25 18 22 26 25 25 25 26 26 26 26 26 27 26 27 25 24 24 24 23 23
42 36 33 31 26 17 18 21 27 28 30 31 33 33 33 35 35 33 32 29 29 33 23 16 19 23 23 24 24 23 24 24 24 24 24 23 22 23 23 22 23 22 22 22
29 24 15 17 15 20 21 23 25 30 30 29 30 32 32 32 31 32 29 28 27 20 14 13 20 22 24 24 24 21 22 22 22 22 22 22 22 22 22 22 22 21 20 21
22 21 14 16 23 23 24 26 28 30 32 30 31 32 33 30 27 26 26 19 14 15 12 17 21 24 24 23 23 23 22 22 21 22 21 21 21 21 21 22 22 21 21 20
20 19 14 17 14 17 19 23 26 30 30 31 32 30 27 22 22 17 17 13 11 14 18 21 22 21 21 22 23 23 23 23 22 22 22 21 20 20 20 20 20 20 19 18
16 15 13 13 13 18 23 26 25 29 30 27 26 18 19 24 19 13 15 12 15 17 18 20 21 20 20 21 20 20 20 19 19 20 21 21 21 19 18 17 18 19 18 18

GFSNW_sfc_dewp_045.txt.gz
Dewpoint
44 45 46 46 46 47 47 42 34 45 45 35 35 28 26 30 28 30 28 29 29 26 24 21 21 21 23 40 38 36 38 29 24 22 24 24 25 24 25 23 22 28 25 21
44 45 46 46 46 47 45 37 37 46 42 30 30 29 27 29 30 29 29 28 30 26 23 20 24 25 39 41 40 36 36 35 27 23 23 25 22 22 23 29 29 23 24 21
44 45 45 46 46 47 44 37 31 38 40 35 29 29 28 27 30 29 30 30 30 27 26 26 23 27 30 42 41 44 42 37 35 32 33 35 31 28 23 25 25 24 24 24
44 44 45 46 46 47 44 37 32 37 31 33 32 29 27 26 26 29 30 27 28 27 26 24 23 25 32 38 43 41 39 32 36 35 32 31 30 32 30 24 23 23 24 26
44 44 45 46 46 46 41 32 34 38 35 35 34 32 28 26 25 26 27 29 30 28 25 24 23 26 26 30 37 37 40 30 35 31 30 29 28 29 29 28 24 26 25 25
44 45 45 45 46 46 40 40 40 38 36 35 33 30 29 29 29 29 28 29 28 27 28 29 28 29 28 32 35 36 37 35 32 26 31 28 23 30 28 27 24 27 25 27
45 45 45 46 46 46 42 42 41 35 31 33 32 31 30 29 29 27 29 29 28 29 31 35 39 40 40 40 39 38 34 33 32 28 29 19 19 30 25 29 26 25 26 27
45 45 46 46 46 46 44 44 41 37 31 34 33 32 31 31 30 29 28 29 31 33 30 30 28 28 31 36 39 37 36 33 29 24 25 25 21 26 30 32 33 32 26 26
45 45 45 45 45 46 46 44 44 40 34 32 35 34 33 32 29 29 30 33 33 33 31 32 27 21 24 29 35 39 37 35 27 30 22 17 13 29 33 38 32 35 39 32
45 45 45 45 46 46 44 43 45 40 32 37 35 33 33 35 31 29 30 31 32 34 29 30 27 25 27 24 28 31 32 32 30 30 28 27 32 35 39 32 31 40 42 41
44 45 45 45 45 46 44 41 45 40 35 36 39 39 34 33 32 29 31 32 33 33 28 30 28 23 26 26 30 30 29 29 28 30 29 25 35 41 34 39 40 42 43 42
45 45 45 46 46 46 45 41 44 45 39 36 39 40 41 40 33 31 32 30 33 32 31 31 29 24 23 27 24 32 27 28 28 30 29 35 41 41 41 41 42 43 44 42
46 46 46 46 46 46 46 43 43 42 39 37 36 35 39 42 42 37 33 34 35 37 37 33 31 26 28 23 25 27 31 33 32 32 31 32 34 38 40 41 44 42 42 43
46 46 46 46 46 46 46 43 43 40 38 33 31 39 35 40 43 43 42 36 41 40 39 34 32 29 31 26 27 27 28 32 31 30 33 35 35 37 40 41 43 42 43 42
46 46 46 46 46 46 46 45 44 42 35 29 29 39 40 39 42 42 43 42 38 37 35 31 29 32 33 34 31 27 37 35 33 30 39 39 37 37 40 41 39 41 43 41
46 46 46 45 45 46 43 37 44 42 42 33 27 37 39 41 43 42 41 41 42 40 37 33 36 36 36 32 31 36 36 36 37 37 38 39 41 42 40 41 41 42 43 41
46 46 46 46 46 45 38 36 41 43 43 36 32 34 39 42 41 41 41 42 42 40 38 36 37 37 38 31 30 32 33 33 36 37 38 40 40 38 35 35 37 34 32 31
45 45 45 45 44 45 42 44 43 42 39 37 31 32 36 40 37 37 42 40 40 39 36 39 36 38 34 27 28 29 30 33 35 35 36 37 37 34 31 31 31 29 27 27
45 45 44 43 42 40 42 44 44 43 40 32 30 29 30 39 36 37 38 39 32 39 33 36 37 28 22 25 26 26 28 30 32 35 35 35 34 31 29 28 27 26 25 24
44 43 37 32 40 45 44 41 36 34 36 35 31 32 31 35 33 32 33 32 31 30 34 36 27 24 26 26 26 26 28 32 32 32 32 31 32 30 28 26 26 25 23 23
40 37 33 42 45 42 37 32 31 32 28 31 32 30 31 35 30 31 31 28 27 25 32 26 23 19 22 25 24 26 27 28 29 31 29 28 27 26 25 24 24 23 23 22
39 39 39 37 33 28 25 25 25 28 28 31 27 29 33 35 37 34 34 27 30 25 30 21 15 21 23 24 23 24 26 26 25 25 24 25 24 24 23 22 21 21 22 21
38 32 26 25 21 15 15 20 25 26 30 30 32 31 33 34 35 33 32 28 28 28 19 14 18 21 22 22 21 21 22 23 23 23 23 22 22 22 22 21 22 21 21 21
26 23 14 15 12 16 18 21 21 27 27 29 30 31 32 32 31 32 26 26 23 16 8 10 18 21 22 22 22 20 20 21 21 21 21 20 20 19 21 21 21 19 18 19
22 19 11 15 20 23 23 25 26 28 31 30 31 32 30 25 25 23 21 16 9 12 8 14 20 22 22 21 21 21 20 20 20 20 19 19 19 18 18 19 19 19 18 18
21 18 14 15 14 17 20 23 23 28 27 31 30 28 23 19 21 12 12 9 6 9 14 19 19 18 18 18 19 19 21 21 21 21 20 20 19 18 18 19 18 18 17 16
16 15 18 15 13 15 19 23 23 27 27 25 24 17 18 22 14 10 13 9 13 15 16 18 19 18 18 19 19 19 19 18 18 18 18 19 19 17 16 15 17 16 16 15

GFSNW_sfc_dewp_048.txt.gz
Dewpoint
41 41 42 43 44 46 44 41 33 45 46 36 34 29 27 29 26 31 29 29 28 26 25 21 19 20 31 40 39 34 37 28 23 22 24 25 24 24 25 24 21 27 24 21
41 41 42 43 45 45 43 36 37 46 45 30 30 32 29 27 29 29 29 29 30 29 22 18 24 28 36 35 39 37 37 34 28 25 25 33 30 27 30 27 27 23 23 22
40 41 42 43 45 46 43 36 30 38 40 37 31 31 30 26 29 28 29 30 30 27 26 26 24 26 29 38 40 44 40 36 30 29 32 34 32 30 30 32 24 23 23 23
40 41 41 43 45 45 43 36 31 37 31 32 33 31 28 28 25 28 29 28 29 28 25 25 23 26 27 29 40 39 36 29 34 35 35 33 30 27 28 27 30 26 26 24
41 41 42 44 45 45 41 32 33 36 35 34 34 33 30 27 26 26 27 28 30 28 27 25 23 24 25 24 28 36 37 28 34 31 34 32 28 28 27 29 30 29 27 25
40 41 42 44 44 44 40 39 40 38 31 34 32 31 30 30 28 28 26 29 28 27 27 29 30 29 29 28 28 30 34 33 31 25 30 28 24 26 27 27 26 28 27 29
41 42 43 43 44 44 42 40 39 34 29 31 32 32 32 30 30 27 29 28 29 30 32 32 32 32 30 30 30 34 33 31 30 26 27 20 20 29 28 26 29 31 30 30
43 43 43 44 45 45 43 42 39 35 29 31 34 34 34 31 31 30 29 30 30 32 31 32 28 27 32 32 35 34 36 31 25 22 25 25 22 22 23 29 17 30 26 33
42 43 43 45 45 45 44 43 43 39 34 31 31 36 36 33 32 30 30 31 33 32 30 29 25 21 23 28 31 37 35 32 30 28 21 15 19 29 37 36 23 37 39 41
43 44 44 44 45 46 45 43 44 41 32 36 34 33 35 36 33 31 31 32 33 33 31 28 26 24 26 24 25 31 31 32 30 27 27 26 30 32 38 25 22 38 38 39
44 44 45 45 45 45 45 43 45 41 34 37 39 37 36 37 35 31 32 32 34 34 30 28 27 24 27 25 29 30 28 26 27 29 27 21 31 38 30 32 38 38 37 41
44 45 44 44 44 44 44 40 45 45 38 38 40 40 39 37 35 32 32 30 33 32 30 29 28 23 22 26 23 32 27 28 27 28 27 32 38 39 41 40 38 39 40 39
45 45 45 45 45 45 44 41 43 42 37 37 38 36 37 42 43 41 34 34 35 36 36 32 30 24 26 22 24 28 31 32 30 30 29 32 32 34 36 40 41 42 39 39
46 46 45 45 45 45 45 42 44 40 38 32 32 37 36 40 41 41 41 36 41 40 40 34 29 26 30 25 27 27 28 31 30 29 29 35 32 37 41 40 41 41 41 41
46 46 46 46 46 46 46 45 44 40 34 30 29 37 37 36 41 40 41 40 39 39 36 34 29 31 31 31 30 27 34 33 30 28 37 37 38 40 37 39 39 40 42 41
46 46 46 46 46 46 44 35 43 42 41 35 27 34 37 37 36 37 40 41 41 39 38 35 34 36 34 27 25 35 36 35 36 36 36 37 37 39 35 34 34 34 34 30
45 45 46 46 45 45 39 36 41 43 43 36 29 27 36 39 39 39 40 41 40 40 37 36 35 35 37 27 26 32 32 33 34 36 36 37 37 35 32 31 31 31 27 26
46 45 45 45 45 45 42 43 44 43 40 38 26 32 35 39 34 36 40 38 40 40 36 38 36 37 34 30 26 27 27 28 32 33 34 36 34 31 29 29 27 26 24 23
46 45 45 43 42 39 41 44 43 44 39 31 31 29 29 38 37 37 38 38 32 38 34 34 35 27 18 22 24 24 26 26 29 30 33 32 32 28 27 26 25 24 23 23
43 41 38 32 41 44 43 40 36 36 36 36 27 34 31 36 33 32 33 33 32 30 32 33 25 21 25 25 25 26 26 27 28 27 28 27 28 26 24 24 24 23 22 22
40 36 36 42 45 40 36 31 31 32 30 33 33 32 33 36 31 31 30 29 28 28 31 26 21 18 21 24 21 23 24 24 25 27 27 26 25 24 22 22 21 21 20 20
40 39 41 38 33 30 29 28 30 30 28 32 31 33 34 35 38 32 33 28 29 24 28 20 12 19 21 22 21 21 24 24 23 24 23 24 23 23 21 21 20 20 20 19
34 31 26 25 20 12 11 23 24 25 29 29 32 31 32 34 36 33 30 28 25 26 18 13 16 19 19 20 21 21 22 22 21 21 21 21 20 20 20 18 19 19 18 19
25 21 10 9 7 14 19 18 20 26 28 29 30 31 31 32 30 30 23 21 20 10 4 8 16 19 20 21 21 19 19 20 19 19 19 19 18 17 18 19 19 18 16 16
21 17 8 12 19 20 21 23 24 26 28 29 31 29 27 23 22 20 19 11 4 9 6 12 18 20 20 20 20 19 19 19 18 19 18 18 17 16 16 17 17 17 16 16
19 16 13 14 15 15 17 18 19 26 25 30 30 25 17 17 19 10 8 7 2 5 9 16 18 17 18 18 18 18 19 19 19 19 18 18 17 16 15 16 16 15 14 13
15 12 16 12 11 13 17 20 21 26 26 22 22 15 14 17 10 8 12 1 6 13 16 18 18 17 17 18 18 18 18 17 17 17 18 18 18 17 14 13 14 14 14 13

GFSNW_sfc_dewp_051.txt.gz
Dewpoint
41 42 42 41 42 43 42 40 30 45 47 34 35 31 32 29 24 29 27 29 27 26 23 21 20 20 32 32 40 34 37 28 24 21 25 26 24 25 27 26 22 27 27 22
41 41 42 41 42 43 41 36 34 44 44 28 29 35 33 28 27 27 28 29 30 29 24 20 21 25 32 30 38 38 38 32 28 25 26 33 32 33 32 32 28 25 25 21
40 40 41 41 42 42 42 36 30 36 39 36 32 32 30 28 28 27 29 29 30 27 26 27 24 24 27 31 34 43 40 34 30 25 27 33 30 28 28 29 29 27 26 26
39 40 41 41 42 43 41 36 31 34 30 30 33 33 33 27 25 27 28 28 28 28 25 25 24 25 25 26 33 38 36 28 31 28 30 32 30 27 26 26 27 25 24 27
40 40 41 40 41 42 39 32 33 36 32 34 33 33 33 28 27 27 26 26 29 29 26 25 23 25 23 24 27 35 33 29 33 31 33 31 29 28 27 26 26 26 29 28
39 41 41 41 41 43 38 39 39 36 32 30 31 29 30 31 29 29 27 29 29 29 29 31 31 31 30 29 27 27 29 33 30 24 30 27 24 27 26 24 23 25 21 21
39 39 40 41 42 43 39 40 39 33 28 31 28 29 33 31 30 29 29 30 31 30 33 34 33 32 31 31 30 30 30 32 31 28 28 19 19 27 26 26 26 25 26 30
40 41 41 42 42 43 41 40 38 35 28 30 29 29 31 36 33 31 32 32 32 35 34 32 28 28 31 32 33 33 32 33 30 27 25 23 21 21 20 23 18 30 34 36
41 41 41 42 42 43 42 41 42 38 33 29 29 31 32 32 33 34 34 36 38 35 35 32 24 22 24 26 29 37 36 34 33 30 22 19 21 32 36 33 22 34 37 35
42 43 43 42 42 43 42 41 43 39 32 35 32 30 32 37 35 33 33 34 36 36 33 27 25 23 26 22 24 27 30 32 29 30 27 26 28 29 34 24 23 33 37 36
43 44 45 44 43 43 43 41 44 39 34 37 36 34 34 36 36 33 33 34 35 34 30 29 28 27 27 24 29 28 26 27 28 29 28 23 30 37 31 31 38 37 37 38
43 43 45 44 44 44 44 40 44 43 38 38 41 40 40 37 38 35 35 32 34 35 31 31 30 28 29 27 23 32 28 30 29 30 29 32 35 37 40 39 39 40 40 39
43 43 44 44 44 44 45 41 44 41 34 37 39 37 40 42 42 42 35 34 36 36 38 35 33 28 29 27 27 30 31 32 30 30 30 31 32 34 40 38 41 41 41 41
44 44 44 44 44 44 44 41 43 40 37 33 34 40 38 41 41 43 42 39 42 41 41 36 34 30 30 29 29 30 29 32 31 30 31 34 34 39 38 37 37 37 37 40
45 46 44 45 44 44 43 43 43 41 37 31 32 37 37 39 39 39 41 39 39 40 37 35 34 33 34 33 32 29 32 31 32 29 36 36 36 38 37 35 34 34 33 34
45 45 46 46 46 45 43 36 43 41 43 35 30 36 36 37 40 39 38 40 40 39 38 36 36 36 36 31 29 34 35 34 35 34 36 36 38 38 33 32 31 31 29 28
45 45 45 46 45 45 37 36 41 41 43 36 30 28 36 37 37 38 40 40 40 40 38 36 36 37 37 34 30 29 29 29 31 36 35 36 36 34 31 30 28 27 25 25
45 45 45 45 45 44 41 44 44 42 39 38 29 29 35 39 35 34 39 37 38 37 35 37 36 37 36 33 25 24 25 26 30 30 32 34 36 30 27 27 26 25 24 23
45 45 45 45 41 38 41 44 44 44 39 31 30 26 27 39 35 37 38 38 34 39 34 36 35 29 29 23 22 23 23 24 26 27 29 31 30 26 25 25 24 24 23 22
44 41 37 33 41 45 43 40 36 37 37 36 30 32 30 35 35 34 34 35 33 30 33 31 25 21 23 23 22 23 23 24 25 25 26 24 25 24 23 23 23 22 21 21
41 37 36 41 44 40 36 32 30 33 29 31 32 31 32 37 32 32 33 32 32 29 29 27 21 18 21 21 20 22 23 23 25 26 25 25 25 23 22 21 21 20 20 18
40 39 39 36 31 32 30 27 30 30 28 33 31 33 34 34 34 32 32 30 30 25 27 20 14 18 19 19 19 20 22 22 22 23 22 23 22 23 21 20 19 19 18 18
33 29 23 23 20 13 15 20 23 24 27 29 32 32 32 34 36 33 32 27 22 24 16 13 15 17 17 18 18 19 21 21 20 20 20 20 19 20 19 17 18 18 16 17
24 21 12 14 10 15 18 18 20 25 28 27 31 32 29 30 27 27 22 21 19 11 8 9 15 17 18 19 19 18 18 19 19 19 19 18 17 16 18 18 17 16 14 14
19 17 12 14 18 20 21 22 23 25 27 28 31 25 26 23 20 19 18 12 9 10 9 13 17 19 18 19 19 19 18 18 18 18 17 16 16 15 15 16 17 16 16 15
17 15 13 15 15 15 16 18 20 24 24 29 28 21 18 17 18 11 8 9 6 9 13 17 18 17 17 17 18 18 19 19 18 18 18 17 15 15 15 15 15 14 14 12
15 13 16 15 14 14 17 20 20 25 25 22 21 14 15 14 9 7 11 7 10 15 16 18 18 17 16 17 17 17 17 17 17 18 17 16 17 16 13 11 13 13 12 12

GFSNW_sfc_dewp_054.txt.gz
Dewpoint
40 40 42 43 43 42 42 39 31 43 48 36 34 30 26 30 24 26 24 26 26 24 24 22 20 16 25 29 32 30 25 27 24 21 26 26 25 25 25 23 23 25 28 21
41 41 42 42 43 42 42 34 32 43 45 29 29 30 31 29 25 24 24 25 28 26 25 21 20 20 26 27 30 35 35 25 19 19 22 26 26 28 28 29 29 25 28 23
40 41 41 41 41 43 44 37 31 35 39 36 31 27 29 26 29 26 26 25 28 27 26 25 22 21 22 26 27 39 38 30 24 16 19 25 29 28 27 28 28 25 24 23
40 39 40 41 41 43 43 36 32 29 30 30 30 30 31 26 24 27 26 25 25 26 27 25 24 23 23 23 30 34 35 28 26 25 25 24 25 25 25 24 26 25 24 22
41 40 40 41 41 42 41 33 31 34 28 29 29 29 29 26 26 27 25 24 26 27 28 28 23 24 25 24 25 29 32 24 26 22 21 26 25 23 22 22 22 22 23 23
40 40 40 41 41 42 39 39 38 36 27 26 27 26 27 24 29 29 26 27 27 31 29 30 30 30 31 30 28 28 28 32 25 17 26 23 19 23 22 22 21 20 17 18
39 38 40 41 41 42 40 40 38 33 26 28 25 23 23 25 26 29 29 31 30 32 34 33 32 32 31 32 30 30 27 33 32 24 29 17 15 24 23 22 20 18 17 19
39 40 40 40 42 41 44 42 38 35 28 23 22 24 25 25 30 34 36 32 34 37 37 34 28 28 30 30 29 29 30 30 30 26 23 19 19 15 17 19 12 24 25 27
40 40 40 41 41 42 43 44 43 37 30 30 22 25 26 27 27 30 35 39 39 39 36 34 24 21 21 25 27 28 30 31 30 29 20 18 19 27 30 29 19 29 30 31
40 41 41 41 41 41 42 41 43 38 31 32 30 28 27 31 33 33 36 37 37 39 34 30 25 22 25 23 24 29 29 30 28 26 27 23 24 23 29 26 29 33 32 32
41 41 41 42 42 42 42 39 44 39 33 35 35 31 30 31 33 31 35 35 35 35 33 29 26 26 23 22 26 27 26 26 28 26 25 24 27 29 27 38 37 35 35 35
41 42 42 43 43 43 43 40 43 44 36 36 37 36 37 32 32 35 38 34 36 34 31 29 29 29 32 23 21 29 28 26 26 25 25 32 34 36 36 39 39 39 40 40
42 43 43 43 44 44 44 41 43 41 35 36 38 36 37 38 38 40 37 37 37 37 36 36 33 30 29 27 24 24 26 29 30 29 28 28 29 34 39 39 39 38 38 39
43 43 43 44 44 45 45 40 42 40 37 33 36 38 38 39 40 40 41 39 39 39 40 36 35 31 30 28 26 27 25 28 29 27 26 26 29 37 39 37 38 37 36 35
44 44 44 44 44 45 44 43 43 43 37 34 34 39 38 38 40 40 41 41 40 39 38 36 35 33 33 34 33 26 25 26 29 26 34 35 35 36 37 37 36 35 34 33
44 45 44 43 44 45 41 34 43 44 44 37 31 36 36 38 39 38 38 42 41 40 38 37 36 37 36 33 28 27 35 35 35 34 36 37 37 36 34 34 33 32 30 29
44 45 45 44 44 43 38 37 42 44 44 36 31 30 36 36 38 39 40 39 39 39 39 37 37 37 36 36 30 31 29 30 31 33 34 35 36 34 32 30 29 28 27 27
45 45 45 45 44 42 39 45 43 43 40 38 32 31 35 36 34 34 39 37 38 37 37 38 36 36 38 33 27 25 25 26 28 29 29 30 32 31 28 28 27 27 25 25
44 45 46 45 41 38 41 44 43 46 40 34 32 30 28 38 34 34 37 39 33 38 34 36 37 35 33 25 24 24 24 24 25 25 27 30 29 27 26 27 26 25 23 22
45 42 37 34 41 45 44 40 35 36 38 37 33 35 32 37 35 34 34 35 32 31 34 35 34 27 24 22 23 23 23 23 24 25 26 25 25 24 23 23 23 21 21 20
40 36 35 42 43 41 37 33 34 33 31 33 34 34 33 38 34 33 35 32 34 28 31 32 28 25 22 20 20 21 22 23 23 24 25 25 25 24 22 21 21 21 20 19
41 39 38 36 35 35 32 30 31 29 27 33 33 33 35 36 38 36 35 33 33 28 31 30 24 20 19 19 19 20 21 22 22 23 24 24 23 24 22 21 19 19 19 19
34 30 27 26 25 24 26 25 28 29 31 32 33 32 35 35 36 34 35 32 28 28 28 22 19 17 17 18 18 19 21 20 20 21 21 20 20 21 19 18 19 19 17 18
25 25 18 21 19 21 22 23 26 27 29 32 33 34 33 33 31 30 27 26 27 23 20 15 18 18 19 20 21 18 19 20 19 19 19 18 17 18 18 18 18 16 15 16
21 21 17 18 21 23 23 25 27 27 29 31 33 31 33 29 26 25 25 22 18 18 17 17 19 20 20 20 20 19 19 19 19 19 17 17 17 16 16 17 17 16 16 15
19 18 16 21 23 22 23 24 26 28 27 32 32 27 25 21 22 17 15 18 16 15 18 20 20 19 19 19 20 20 20 20 19 19 18 17 16 16 16 16 15 15 15 13
17 18 22 21 21 20 22 24 24 28 29 28 25 20 18 18 16 12 15 15 17 19 20 21 21 20 19 20 19 20 20 19 19 19 18 18 19 18 16 14 14 13 13 12

GFSNW_sfc_dewp_057.txt.gz
Dewpoint
41 43 41 42 42 43 40 36 32 40 44 35 35 30 25 26 20 21 21 23 24 23 22 21 20 19 21 30 32 34 27 27 22 26 22 25 24 25 28 25 26 25 29 23
42 43 42 41 42 43 39 32 31 37 44 31 30 27 24 23 21 21 21 20 22 22 22 21 21 20 24 25 28 32 35 25 22 22 25 25 24 24 25 27 28 29 30 24
41 41 41 41 42 42 41 37 33 30 41 36 30 25 26 24 26 23 21 19 21 24 23 23 22 22 21 25 25 38 37 33 22 18 22 21 25 26 26 26 27 26 27 26
39 40 41 41 41 41 42 36 32 30 30 28 30 29 30 23 24 24 22 21 21 22 21 21 22 25 23 22 29 28 37 32 32 22 25 24 23 25 25 25 26 25 25 25
40 41 41 41 42 42 40 35 31 29 27 29 25 27 28 26 24 24 22 22 21 23 22 22 24 25 27 26 24 26 35 32 30 29 24 23 24 24 23 22 21 21 21 21
40 40 41 41 41 42 39 36 37 36 28 25 27 27 22 21 23 27 28 25 24 25 25 28 31 32 34 31 28 28 28 28 31 27 25 23 22 23 24 24 23 23 23 22
39 40 41 41 41 42 41 39 35 34 28 25 23 21 27 24 23 23 26 28 30 29 34 34 31 30 29 29 29 30 28 28 27 27 27 23 20 20 19 21 20 20 17 16
39 39 41 41 41 41 44 41 39 34 30 21 20 25 26 21 25 28 27 31 36 39 36 31 27 28 29 31 28 28 29 29 28 24 23 20 15 17 17 17 14 16 17 24
40 41 41 41 41 41 44 42 43 38 32 27 23 21 20 24 26 26 31 34 40 40 37 34 25 23 23 23 24 27 27 30 30 27 21 18 18 20 26 22 15 26 28 29
40 40 41 41 41 41 41 42 43 39 32 28 28 30 29 29 28 28 32 35 36 39 35 31 28 25 24 24 26 25 28 28 26 26 23 20 18 23 23 23 27 32 31 31
40 40 41 41 41 41 42 39 41 40 34 30 29 28 28 31 33 33 34 35 36 35 33 29 27 28 25 23 27 26 24 26 27 26 25 21 25 24 25 37 35 35 35 36
41 41 41 41 41 41 42 38 35 43 37 31 35 34 31 34 32 33 37 34 36 34 33 30 32 30 32 25 22 32 26 26 26 24 24 30 29 36 38 37 37 37 37 37
41 41 41 41 42 42 43 37 37 41 36 36 35 32 32 35 36 37 36 36 37 38 37 38 35 30 31 28 24 27 28 34 29 32 27 31 28 35 37 37 37 36 36 36
42 41 42 42 42 43 43 42 41 41 36 30 29 34 34 34 37 37 39 38 39 41 41 39 36 33 30 30 28 27 25 27 25 27 27 27 27 36 38 36 36 36 35 36
42 42 43 43 43 44 43 44 44 43 33 30 30 33 36 36 35 36 40 40 39 39 38 37 36 33 33 32 32 29 25 25 28 28 35 35 33 35 36 35 35 35 34 34
43 43 43 44 44 44 42 35 42 44 42 33 31 36 35 37 37 37 39 40 40 40 38 37 35 36 36 34 29 27 33 34 34 34 36 37 36 36 35 35 33 32 31 30
44 44 44 44 44 44 38 37 40 44 44 36 33 34 35 36 37 39 39 40 41 38 37 36 38 37 36 34 30 34 31 31 32 33 33 34 35 34 33 32 31 31 29 28
44 44 44 44 44 42 40 45 43 43 39 39 35 33 34 36 35 36 40 39 40 39 38 37 34 34 36 34 31 28 27 27 30 29 29 30 33 32 29 29 28 29 26 25
45 45 45 42 40 37 41 44 44 45 40 35 33 31 31 36 34 34 37 38 35 38 35 34 36 35 32 28 27 26 25 25 25 26 27 28 29 27 26 26 25 25 23 22
45 40 37 34 40 44 44 39 35 35 39 38 33 33 34 35 35 34 34 36 32 31 34 37 35 26 26 23 24 24 24 24 25 26 27 25 26 25 23 23 22 22 21 20
41 35 36 42 43 41 37 34 35 35 33 33 34 34 34 39 35 32 35 32 32 25 31 33 33 25 23 21 21 22 23 23 24 25 25 25 26 26 23 22 22 21 20 20
41 39 40 40 38 36 34 32 32 29 27 32 33 34 36 36 40 37 34 31 33 26 34 32 28 22 20 21 20 21 22 23 23 24 23 23 24 24 22 21 21 20 20 20
39 34 31 32 30 30 30 25 28 30 34 34 35 34 36 37 37 36 35 31 30 32 31 27 22 19 18 19 20 21 22 22 21 21 21 21 20 21 20 19 20 20 19 20
28 29 23 28 25 25 26 28 30 30 32 34 35 34 34 34 33 34 30 30 31 26 25 21 21 20 21 22 21 19 19 20 19 19 19 19 18 19 19 19 19 17 16 17
24 25 21 21 24 25 26 29 29 29 31 34 34 35 35 32 29 30 29 26 24 23 21 21 21 22 21 21 21 20 19 19 19 19 18 18 18 17 17 18 18 17 17 17
23 23 23 27 27 26 28 29 29 31 32 35 35 31 28 25 27 23 22 24 21 20 22 22 21 21 21 21 21 21 21 20 19 19 19 19 17 17 17 17 17 16 16 13
22 21 25 25 24 24 26 27 27 31 32 30 31 25 22 24 22 17 18 19 20 23 24 24 23 21 21 21 21 22 22 21 21 21 21 20 21 21 17 15 15 14 13 12

GFSNW_sfc_dewp_060.txt.gz
Dewpoint
40 41 41 42 41 41 39 38 31 37 42 35 33 30 28 27 20 18 16 21 20 20 20 19 19 19 21 27 30 32 35 26 23 25 26 23 23 24 25 28 28 27 30 26
40 40 41 43 43 41 40 35 28 35 44 31 29 26 24 23 21 19 18 19 19 19 18 17 19 20 24 25 25 30 31 27 24 22 26 28 24 25 25 28 34 35 32 30
40 41 41 41 42 41 43 36 31 28 39 32 29 27 24 23 21 19 20 18 19 17 18 20 20 20 22 24 23 38 32 34 29 23 28 34 31 26 30 30 34 35 35 33
40 41 41 41 42 43 42 36 31 29 30 28 28 27 31 24 20 23 20 20 18 17 19 17 18 19 19 22 32 30 35 35 32 30 30 28 28 29 27 28 34 33 30 29
41 40 40 41 42 42 39 32 30 25 23 29 30 27 26 23 26 23 22 19 17 19 17 19 18 22 29 24 28 26 36 32 33 31 30 25 23 28 35 34 24 25 30 33
39 39 40 41 41 42 38 39 34 35 29 28 24 28 24 19 21 25 30 26 25 20 25 32 32 31 35 34 32 29 30 31 33 28 28 26 24 23 28 30 22 22 22 23
39 39 40 42 41 41 39 40 37 32 26 22 22 21 26 28 21 20 19 30 30 34 37 34 31 28 28 28 28 28 27 26 31 29 32 23 22 20 21 23 23 23 23 24
39 39 40 41 41 41 42 41 39 34 28 22 21 21 24 24 28 27 25 27 36 39 38 31 23 25 26 26 26 26 28 27 29 30 27 29 26 20 17 18 20 20 17 19
41 41 40 41 41 41 42 43 43 35 32 26 21 23 25 27 27 27 26 32 39 37 35 30 22 19 19 19 22 26 27 31 29 28 24 23 22 23 23 20 19 24 28 29
41 41 41 41 41 41 42 41 42 38 32 28 26 30 32 33 32 29 28 35 35 37 33 29 25 22 22 23 24 25 27 29 27 27 25 23 18 20 23 21 30 34 33 34
43 42 41 41 41 41 42 39 43 40 35 30 28 26 27 28 33 34 34 35 34 35 30 28 25 27 27 26 28 28 25 27 27 26 23 21 20 23 22 38 39 37 37 37
43 43 41 41 41 41 41 38 41 43 38 29 33 32 30 28 31 36 38 32 35 35 32 30 31 32 34 27 24 35 31 26 26 24 23 32 31 37 38 38 38 37 36 35
44 44 42 41 41 42 41 34 38 41 37 34 32 29 31 31 33 37 35 34 35 36 38 38 37 32 32 27 24 30 36 35 27 30 28 24 37 38 36 36 36 35 34 35
44 43 42 41 41 41 40 39 38 41 36 29 28 29 31 32 32 33 36 35 36 40 39 37 37 33 35 34 30 32 35 37 31 31 34 38 40 40 35 34 34 34 34 34
43 43 42 41 41 41 42 44 41 43 32 29 31 34 33 28 35 32 34 38 37 38 37 36 34 35 35 35 32 28 30 35 34 34 37 39 38 35 34 34 33 32 32 31
43 42 42 42 42 42 42 35 42 43 42 35 28 35 37 36 36 36 34 36 40 39 37 36 35 34 35 32 31 37 37 32 34 34 33 35 35 34 34 33 32 31 30 28
43 42 42 42 42 43 37 36 41 42 44 35 29 25 32 36 37 38 39 40 40 38 37 37 35 36 36 36 29 36 32 29 32 30 31 34 33 32 31 31 31 31 27 26
43 43 43 43 43 42 39 43 43 42 39 37 30 31 35 37 36 37 40 38 39 38 37 37 37 35 36 32 32 28 26 28 28 28 29 31 31 29 27 27 28 26 24 23
43 44 44 43 40 38 40 44 43 44 38 32 34 31 30 36 35 37 39 39 34 39 37 35 34 37 31 27 26 25 25 25 25 26 29 27 28 26 25 24 24 24 22 21
44 40 36 33 39 44 42 40 35 37 37 37 33 34 33 34 37 35 34 36 32 29 32 37 34 27 26 25 24 25 24 24 25 25 25 25 26 25 23 22 22 21 20 20
40 37 36 42 44 40 37 33 33 34 33 33 33 35 34 38 35 32 37 33 34 26 32 32 31 24 24 22 21 22 23 23 25 25 25 25 25 25 22 21 20 20 19 19
41 40 41 41 37 35 32 32 33 31 27 33 34 35 36 37 39 35 35 30 32 24 34 31 24 23 22 21 21 22 22 23 23 23 22 23 23 22 20 19 19 19 19 19
39 37 35 35 34 30 29 25 27 30 34 34 37 34 37 36 37 35 34 30 28 33 30 24 22 21 22 23 20 21 21 21 20 19 19 19 19 19 18 18 19 19 18 19
30 30 24 29 25 25 26 28 29 32 34 35 37 34 34 34 33 34 30 31 32 27 25 21 22 22 22 23 21 19 20 20 19 19 19 18 18 17 18 18 18 17 15 16
25 26 22 22 26 27 28 31 31 31 34 35 34 34 35 33 30 30 29 26 26 21 19 21 22 22 21 21 21 20 20 20 19 19 18 18 17 17 17 18 18 17 16 16
23 25 24 28 27 27 29 31 29 32 33 34 35 32 29 27 28 26 23 25 20 20 22 22 21 21 21 21 21 21 21 20 20 20 19 18 17 17 17 17 17 16 16 15
22 23 28 28 26 26 28 29 29 33 33 31 32 26 23 28 24 18 20 20 21 23 23 23 22 21 21 22 22 22 22 22 21 21 21 20 20 20 17 15 14 13 13 13

GFSNW_sfc_dewp_063.txt.gz
Dewpoint
41 40 41 41 42 42 39 37 26 37 41 32 33 27 25 28 23 26 24 23 23 21 21 22 21 21 29 29 30 31 33 34 24 19 21 24 28 28 35 34 31 32 29 32
42 40 41 41 42 42 37 34 29 34 41 29 26 28 25 25 24 25 24 21 21 22 20 20 21 22 31 28 28 30 28 31 27 25 25 28 28 25 31 32 33 34 32 30
40 40 40 41 43 42 41 34 27 30 34 32 32 29 27 24 25 23 23 20 21 22 21 21 21 23 27 32 31 37 32 32 32 28 30 36 34 32 26 29 32 32 35 36
40 40 40 41 41 42 40 34 28 29 28 26 28 28 27 25 30 25 23 19 19 21 20 21 23 24 23 26 35 34 36 31 33 33 31 33 34 33 30 30 31 35 35 37
39 40 41 42 40 42 38 30 28 29 27 27 30 32 27 24 23 30 27 27 22 20 20 23 24 31 30 32 32 33 35 30 33 30 31 30 30 31 30 35 35 34 37 38
39 39 40 41 41 41 35 37 34 33 28 27 25 25 27 28 28 25 31 31 32 29 32 34 33 33 34 34 32 32 34 33 31 28 29 32 27 28 34 36 37 35 36 35
39 39 39 41 41 41 36 36 35 30 23 23 22 21 21 25 31 30 29 29 31 35 39 36 34 33 31 35 34 33 30 29 31 28 27 25 29 32 32 32 35 34 26 31
39 40 40 41 40 41 40 39 36 33 22 24 22 22 21 25 32 33 32 32 38 41 38 30 26 25 26 27 27 28 30 29 26 26 27 28 27 29 23 26 26 27 25 26
41 41 40 40 40 40 40 40 41 36 29 22 26 25 23 29 29 32 34 39 39 36 33 28 23 20 22 21 24 26 28 30 27 27 24 23 29 29 27 26 29 35 34 34
41 41 41 41 40 40 40 38 40 37 29 29 26 28 30 34 32 32 33 34 34 35 30 23 24 22 23 21 23 25 25 26 25 25 24 29 30 28 27 24 33 37 37 37
42 42 42 42 42 41 40 37 41 37 33 31 31 31 30 30 32 31 34 32 34 32 25 24 23 23 26 25 27 31 28 25 26 25 23 21 28 32 30 38 39 37 36 37
43 43 43 43 42 42 41 36 40 40 35 32 35 34 34 33 29 33 35 33 34 34 31 28 29 25 29 29 26 36 30 32 28 26 25 35 39 39 41 40 37 37 36 36
44 44 44 43 42 42 40 36 37 37 34 33 31 30 30 31 32 34 33 35 37 38 38 34 34 30 33 27 27 32 35 37 34 32 36 37 41 40 37 35 35 35 35 35
45 45 44 44 42 41 40 36 37 37 36 23 26 31 31 33 32 34 35 35 37 38 38 34 33 32 36 31 33 31 36 36 35 34 38 39 39 39 37 34 34 33 33 32
45 44 43 44 42 40 39 39 37 39 34 28 31 34 33 35 34 32 33 34 35 36 35 34 33 36 36 35 33 34 37 33 34 34 38 38 38 38 37 34 32 31 30 28
44 43 44 42 41 41 37 33 38 40 39 31 23 33 34 36 34 35 34 34 35 37 35 35 37 38 34 28 29 36 33 33 32 32 39 36 34 33 32 31 28 27 26 26
44 44 42 42 41 39 33 31 38 40 41 34 29 29 36 33 35 38 36 37 38 38 37 34 35 34 38 29 27 27 28 30 27 30 34 31 30 28 29 29 27 26 23 23
43 42 42 41 41 39 35 38 44 41 36 37 29 28 32 39 37 36 40 37 37 37 36 36 35 36 35 30 27 25 25 26 26 28 30 29 27 25 25 26 25 23 22 21
42 42 41 40 38 36 35 43 43 43 36 29 30 25 28 37 36 37 37 39 31 38 33 34 33 28 25 27 25 24 25 24 24 26 26 27 25 23 22 22 23 22 21 20
42 40 35 31 36 43 42 39 35 35 36 35 29 32 28 36 34 33 33 34 32 28 30 35 32 25 26 25 25 24 24 25 25 24 23 24 23 21 21 22 21 21 20 18
39 34 33 41 42 39 36 31 30 30 28 32 32 31 30 37 31 31 32 29 29 25 29 28 28 23 25 22 22 23 24 25 26 26 25 24 23 21 20 19 18 18 17 16
40 40 41 40 36 33 31 28 30 28 26 30 29 31 35 36 38 33 34 30 30 26 32 29 18 22 23 22 22 23 23 23 22 22 21 21 21 20 19 18 17 18 17 17
40 37 35 34 32 28 27 21 23 24 31 33 34 33 34 34 35 31 32 28 26 32 28 20 20 23 23 21 21 21 22 21 19 19 19 18 18 18 17 15 14 14 13 11
33 29 21 27 25 25 25 26 28 31 33 33 33 32 32 32 30 30 26 28 26 25 20 13 19 20 20 20 20 18 18 18 16 16 16 15 14 14 13 12 9 10 11 11
26 25 21 21 25 25 28 30 30 31 33 33 30 28 28 26 26 28 26 21 21 18 11 16 19 19 18 17 17 17 17 16 15 15 14 12 10 12 13 11 10 11 11 11
24 25 24 27 23 25 27 29 28 31 32 33 32 27 26 25 27 22 18 19 12 13 14 19 19 18 18 18 18 18 18 17 17 16 15 13 11 11 12 11 12 10 10 8
20 19 23 23 19 19 26 28 29 33 30 29 28 20 21 25 19 16 18 11 15 18 19 20 19 18 18 18 19 19 20 20 19 18 17 17 16 16 15 13 13 12 12 9

GFSNW_sfc_dewp_066.txt.gz
Dewpoint
41 41 41 40 41 42 39 33 24 34 42 30 32 26 25 27 22 23 23 26 25 23 21 21 20 22 29 28 30 31 32 33 30 26 24 26 33 35 35 33 30 32 32 33
40 40 41 40 41 41 35 34 29 33 38 26 24 27 26 26 24 23 21 24 24 24 22 18 23 25 33 30 30 29 27 29 27 24 25 25 28 30 35 36 36 34 31 33
40 40 41 40 40 42 39 35 24 26 32 31 29 29 28 25 27 26 25 25 26 22 22 24 21 21 31 33 31 37 32 30 30 28 32 34 34 33 33 36 34 32 32 34
39 39 40 40 41 41 40 33 25 27 25 29 30 29 28 25 25 29 29 25 24 21 20 22 22 27 29 31 37 35 32 26 33 33 32 30 30 35 35 33 34 32 33 34
40 40 40 40 40 40 38 30 23 29 28 29 25 27 26 26 29 25 25 28 31 31 26 23 24 30 29 33 33 33 36 28 32 30 29 26 28 35 35 37 38 32 33 35
40 39 39 39 41 40 37 37 33 30 24 24 22 24 24 25 23 31 29 31 31 30 31 35 35 34 34 32 31 31 32 31 28 25 29 27 28 30 31 33 38 38 37 37
39 39 39 41 40 41 35 33 32 29 21 22 21 20 22 21 22 28 31 34 33 34 38 37 34 34 33 33 33 33 30 28 29 26 27 19 28 27 28 36 37 38 39 41
39 39 40 40 41 41 40 37 34 33 22 27 24 24 23 24 30 28 31 33 35 38 35 29 26 24 25 26 30 32 32 28 25 23 24 24 21 29 30 33 34 37 37 41
40 41 41 41 40 40 38 39 40 36 26 23 22 26 28 26 27 29 33 37 40 38 32 30 22 19 22 21 24 27 30 29 25 25 22 19 28 30 31 31 34 37 36 39
41 41 41 40 40 40 38 36 39 37 30 29 26 23 28 33 30 29 34 33 35 33 25 24 22 22 25 20 23 23 26 26 24 23 22 25 30 31 33 26 34 37 37 38
42 42 42 42 42 40 39 36 39 36 33 31 31 32 30 32 33 28 32 31 33 31 22 23 23 22 24 24 25 25 25 25 24 25 23 19 33 33 29 37 40 38 37 37
43 43 43 43 42 42 41 35 40 40 35 29 35 33 33 31 30 31 34 31 32 35 29 29 29 23 23 26 24 36 30 32 29 26 25 37 36 36 38 39 39 38 38 36
43 44 44 44 43 43 42 35 38 39 34 31 30 28 29 32 32 34 30 35 36 35 37 33 33 28 32 26 28 31 36 37 35 34 36 36 37 36 34 33 33 33 34 34
44 45 45 45 44 44 43 35 37 36 35 25 25 31 31 32 31 33 34 32 38 38 37 34 32 29 35 31 34 32 36 35 35 36 37 37 37 37 37 32 32 30 29 30
46 46 45 45 44 43 41 36 36 37 32 28 29 32 31 32 33 32 33 34 34 34 35 32 31 36 35 37 35 33 35 32 31 31 37 35 37 37 36 33 29 28 27 26
45 45 44 44 44 42 37 30 35 39 37 32 22 30 31 33 35 33 32 32 33 34 35 34 37 39 36 31 31 34 36 35 36 33 35 33 35 33 32 28 26 24 24 24
44 44 44 44 43 37 29 27 32 39 39 34 27 25 33 34 34 34 34 35 37 36 33 34 33 33 35 32 28 31 32 32 33 37 37 30 29 29 27 24 23 23 21 21
44 44 43 42 40 36 34 40 43 38 34 33 26 26 30 36 31 32 35 35 37 36 35 35 34 35 35 25 28 28 31 31 28 28 27 25 24 25 25 23 22 21 19 19
43 42 41 38 34 30 31 41 41 40 32 28 29 25 22 33 35 35 37 38 30 37 33 32 34 26 21 26 24 24 25 25 26 28 25 24 22 22 23 22 22 20 19 19
41 37 35 31 34 40 40 36 35 35 35 35 31 31 27 33 34 33 33 33 32 29 32 34 28 23 26 25 25 25 26 25 24 25 25 23 21 21 21 21 20 19 19 21
35 33 33 37 41 36 34 30 28 30 28 31 31 30 29 37 32 32 31 28 31 26 27 30 25 22 22 23 23 23 24 24 24 24 23 24 21 19 18 18 18 18 17 16
37 38 41 39 36 33 30 27 28 27 24 29 28 29 30 34 39 31 33 28 28 25 33 28 16 19 22 21 21 21 21 20 20 21 21 21 19 18 17 16 16 16 15 14
42 37 34 34 32 26 21 20 24 25 30 33 33 32 34 33 34 30 32 29 24 32 23 15 17 20 20 20 19 19 19 18 17 17 17 17 16 16 15 13 13 13 11 10
33 30 21 24 23 21 22 23 28 31 32 33 31 30 27 31 29 29 23 25 27 24 13 10 15 19 19 19 18 16 14 14 14 13 13 12 12 11 11 9 8 9 7 4
25 24 14 16 19 21 26 29 30 31 33 32 31 29 26 24 25 25 24 20 15 15 7 8 14 15 15 14 14 13 13 12 12 11 11 10 10 11 10 9 8 8 7 8
24 22 20 23 21 21 26 27 28 31 31 33 28 21 24 24 24 21 17 17 7 5 6 14 17 14 12 13 15 16 15 15 14 14 14 13 12 12 11 11 9 7 7 6
20 16 14 16 12 19 24 27 28 32 31 25 24 15 21 24 15 12 14 4 6 13 14 13 9 12 15 15 17 17 17 17 16 17 16 15 15 14 12 10 12 11 10 6

GFSNW_sfc_dewp_069.txt.gz
Dewpoint
40 40 40 41 40 41 38 31 20 31 39 30 28 22 23 25 23 25 24 25 25 24 23 22 19 22 29 30 31 31 31 33 30 29 27 33 34 35 37 32 31 33 34 33
39 39 40 40 40 40 34 30 28 33 34 14 26 26 25 26 24 23 23 23 25 26 23 23 23 23 31 30 30 26 27 28 27 24 26 32 33 37 37 37 37 31 30 31
38 39 40 40 40 40 37 33 21 23 30 30 26 24 26 23 30 29 30 26 25 25 24 24 24 24 28 33 31 37 33 30 28 24 30 34 34 34 36 37 33 32 33 37
39 39 39 39 39 39 38 33 25 26 14 26 26 25 26 27 26 28 28 26 28 30 27 23 24 27 28 33 37 34 29 24 31 31 31 30 31 32 35 36 36 34 31 31
39 39 39 40 40 39 37 29 25 27 27 28 26 26 26 22 24 21 28 26 30 30 30 28 28 28 28 29 34 33 35 27 30 27 31 27 23 26 32 35 36 37 36 33
40 40 39 39 39 40 36 37 35 28 24 23 22 20 20 24 23 24 24 26 31 30 30 33 36 35 34 33 30 31 32 30 28 23 27 26 24 30 28 35 36 35 36 37
39 39 40 40 40 39 37 34 33 28 19 22 22 20 21 22 24 24 26 28 32 34 36 36 36 34 34 33 32 32 30 28 28 24 25 15 21 21 31 31 36 39 39 41
39 39 39 40 40 40 36 37 35 30 21 23 24 26 23 24 26 27 27 31 35 39 37 31 26 25 25 26 31 32 31 28 24 20 21 21 21 30 30 30 31 37 37 39
40 41 40 41 40 40 36 36 40 35 25 22 23 22 24 26 26 27 30 35 36 39 32 28 21 19 20 21 23 30 32 29 24 25 20 15 22 30 32 34 30 39 38 41
40 41 40 40 40 40 37 34 37 37 29 29 27 24 23 30 29 26 30 30 34 37 28 25 23 22 24 18 21 23 26 26 25 23 21 23 27 36 35 28 33 38 38 44
40 40 41 41 41 41 39 35 38 34 31 30 31 30 27 30 30 24 28 28 30 30 24 26 25 22 24 23 23 24 24 24 23 25 22 18 34 36 30 37 39 38 36 34
41 41 42 41 42 41 41 35 39 38 33 30 35 33 32 31 30 30 31 31 31 32 31 29 29 24 23 25 21 34 21 31 28 26 25 35 35 34 38 40 40 40 39 37
42 42 42 42 42 42 42 38 39 38 34 31 30 28 30 33 33 33 30 33 34 34 36 33 31 26 32 22 25 30 35 38 33 34 35 35 35 33 33 31 33 34 37 37
42 43 43 44 44 43 42 38 39 36 35 24 24 31 30 33 31 32 32 31 37 36 37 34 31 27 34 30 32 32 36 35 32 35 36 37 37 35 35 34 32 30 29 28
43 44 45 45 45 45 44 39 40 37 30 26 28 31 29 31 32 31 33 33 33 34 33 31 28 32 34 33 35 31 34 31 29 30 36 35 35 36 35 32 30 28 26 25
44 45 46 45 46 44 36 32 37 38 35 29 23 28 30 33 32 32 32 33 32 33 33 33 35 37 35 31 28 32 34 35 36 32 34 34 33 32 27 26 28 28 26 24
45 46 44 44 42 38 31 26 31 39 37 32 27 25 29 33 33 32 32 32 32 32 32 31 33 33 35 31 26 30 33 35 35 35 35 29 29 26 24 22 22 22 20 20
45 45 44 42 39 38 34 40 40 38 33 32 23 23 25 36 30 28 33 31 33 34 33 34 33 34 35 24 27 27 28 31 27 25 26 25 25 24 23 22 21 19 19 18
44 43 41 38 34 30 37 41 40 37 30 24 26 19 14 34 35 33 33 34 29 35 31 32 34 28 21 24 24 24 26 24 26 25 24 23 23 22 22 21 20 19 17 16
41 37 33 27 31 40 41 38 33 32 32 33 29 31 27 32 32 32 33 33 29 28 30 35 26 18 24 24 24 25 25 24 26 26 24 22 21 21 20 19 19 19 18 17
34 31 31 32 40 35 32 27 27 29 28 30 30 30 29 35 30 31 33 29 31 26 27 30 24 19 20 22 21 22 23 22 22 22 22 22 21 19 17 17 17 17 15 14
34 37 37 35 33 31 26 25 28 28 23 28 28 29 30 32 38 32 33 28 28 25 33 26 15 18 21 20 19 20 20 20 20 21 19 19 18 17 16 16 15 14 13 12
39 35 32 30 28 25 23 20 24 25 27 33 33 32 30 33 36 31 30 28 21 33 20 15 16 20 21 19 18 18 18 17 17 16 16 15 14 14 13 12 11 10 8 7
33 27 25 24 19 18 15 15 22 30 32 32 32 30 28 31 29 29 24 24 26 18 9 11 14 19 19 18 18 15 13 14 13 13 13 12 10 9 10 10 9 8 6 6
24 22 12 12 16 20 21 28 30 31 33 32 31 28 25 26 24 22 24 19 10 11 7 6 14 16 14 12 12 10 10 10 10 11 10 10 10 10 10 11 10 10 8 6
24 21 19 22 21 20 25 27 27 31 31 32 29 20 17 21 19 19 10 13 6 2 2 10 14 9 7 9 13 12 12 12 13 13 13 13 12 12 11 12 9 7 7 5
20 17 17 16 16 16 24 26 26 30 31 22 25 12 21 21 11 10 10 1 -0 2 7 12 8 10 10 12 15 15 15 15 15 15 15 15 15 14 11 10 10 11 10 6

GFSNW_sfc_dewp_072.txt.gz
Dewpoint
38 39 39 40 40 41 37 29 18 29 38 24 25 18 24 23 23 23 22 25 24 23 23 25 22 24 26 36 35 35 33 34 29 29 29 33 36 36 35 32 31 34 33 33
38 38 39 39 39 40 33 28 27 33 31 9 18 27 27 25 25 24 24 23 23 23 23 23 28 28 31 33 33 32 31 32 27 22 28 33 34 36 36 36 35 33 29 31
37 37 38 39 39 41 35 28 20 22 29 26 21 21 23 24 30 28 29 27 28 26 24 23 27 28 31 34 34 39 32 29 24 19 24 32 30 30 32 35 32 32 32 35
38 38 38 38 38 40 35 31 24 25 14 23 26 25 24 23 25 31 28 28 29 29 26 24 25 26 32 33 35 33 28 24 30 29 29 30 30 29 29 31 34 33 34 35
38 38 38 39 39 40 34 30 26 28 27 26 24 23 23 23 24 22 20 27 28 26 27 26 29 30 30 32 32 34 35 29 29 25 29 25 23 19 23 27 34 34 35 34
39 39 39 39 40 38 34 37 36 29 24 23 20 20 20 21 23 25 25 25 25 26 28 32 31 34 36 35 32 31 30 29 26 21 25 24 16 25 21 27 36 36 32 35
39 39 39 41 40 38 34 35 36 26 19 22 20 21 21 23 24 23 23 25 29 32 35 36 34 34 36 35 34 33 30 27 27 24 23 13 15 20 28 34 34 37 37 40
39 39 39 39 39 40 34 36 36 27 17 23 21 23 25 23 24 26 26 29 33 34 35 32 27 26 27 26 30 30 31 28 24 19 20 19 20 29 31 31 28 35 38 39
40 39 39 39 40 39 36 34 39 35 24 20 23 22 22 23 23 25 27 32 34 38 33 30 22 19 19 20 23 32 30 28 24 25 19 13 19 30 34 34 27 38 37 38
39 39 40 41 41 40 36 34 36 34 27 28 27 24 23 27 26 23 27 29 32 33 30 27 23 21 24 17 19 25 27 27 25 23 20 22 26 34 36 25 27 36 36 40
38 39 39 39 40 40 39 36 36 32 29 26 30 30 27 28 27 18 23 25 28 27 26 26 25 22 24 23 23 24 23 23 23 25 23 18 34 34 28 35 37 35 34 35
39 39 40 40 41 41 41 36 39 36 33 27 34 34 32 30 29 27 28 26 30 31 28 28 29 26 25 26 21 32 21 27 26 26 25 34 34 33 33 39 39 36 35 35
39 39 41 41 42 41 41 39 38 38 33 30 29 27 30 34 33 31 27 30 34 33 36 32 31 26 31 25 24 30 32 36 32 33 34 33 33 33 32 31 31 35 35 35
40 40 41 41 41 42 42 39 39 37 33 23 24 30 30 32 32 33 32 31 35 35 36 33 31 26 34 27 31 30 34 35 31 34 36 36 36 36 35 32 31 31 30 30
40 41 41 42 42 43 43 42 39 38 32 25 27 30 29 31 31 31 32 32 32 32 30 30 29 32 32 33 33 30 33 31 28 29 34 34 32 33 33 30 29 28 25 24
41 42 43 44 45 45 35 31 36 40 38 30 23 28 29 31 31 31 31 32 33 32 34 31 33 36 35 30 25 31 33 35 36 32 34 31 30 29 29 27 27 27 27 26
42 43 44 45 45 39 34 30 34 40 39 27 21 25 29 33 32 32 32 33 33 32 29 29 28 31 36 31 26 30 32 31 31 32 35 29 28 25 26 22 21 21 20 20
43 45 43 42 41 40 37 39 40 38 32 31 23 23 25 34 28 28 32 30 34 33 29 31 32 33 35 25 26 27 28 31 27 25 26 25 24 23 21 21 20 18 17 16
45 43 41 38 34 33 38 40 39 35 29 24 24 20 15 33 33 33 34 34 28 30 30 29 31 28 23 23 23 24 25 24 26 25 24 23 22 22 21 20 18 16 16 15
41 37 32 27 35 40 39 35 29 27 28 31 27 25 21 31 31 30 29 27 22 25 28 33 27 15 23 23 24 23 22 22 24 26 23 23 21 20 19 18 19 17 16 16
35 31 29 32 41 33 29 27 23 20 25 27 28 27 28 33 28 30 32 29 28 23 28 29 21 17 20 22 21 21 21 21 21 21 21 21 20 19 17 17 17 16 14 13
34 34 37 38 32 24 23 24 26 27 22 25 28 30 31 31 36 31 31 29 29 25 32 26 13 14 20 20 19 19 19 19 19 19 19 18 17 17 16 15 13 12 11 10
37 31 28 27 28 22 19 14 21 24 25 29 33 31 31 32 35 31 30 26 23 32 22 14 13 19 19 18 17 17 17 16 15 15 15 13 13 13 12 10 9 9 6 5
30 28 24 25 22 21 20 15 17 28 32 32 32 30 30 29 28 28 22 26 27 17 12 11 15 18 19 18 17 13 12 12 12 11 11 9 9 7 7 4 2 5 5 5
24 21 15 19 18 16 16 25 30 31 33 32 30 26 26 27 24 23 24 19 11 13 8 5 14 16 14 12 12 10 7 5 7 7 10 10 10 9 9 10 9 8 5 2
21 17 16 19 18 16 20 25 27 31 31 32 25 19 16 19 17 15 7 11 7 3 0 7 12 6 4 6 10 8 9 9 9 10 11 11 10 9 9 9 8 7 6 3
16 12 14 13 11 14 23 25 25 29 30 18 18 11 12 20 10 9 8 1 -1 -2 6 9 5 7 7 11 12 13 14 13 13 14 14 14 14 13 11 10 11 11 9 6

GFSNW_sfc_dewp_075.txt.gz
Dewpoint
39 39 39 40 40 40 36 31 21 30 36 26 26 22 23 23 22 20 19 23 21 20 20 24 22 22 26 32 34 32 36 34 25 24 29 33 33 32 36 31 29 33 32 30
38 38 39 40 40 38 34 28 27 33 33 18 22 24 26 26 24 23 23 23 23 24 20 19 22 28 31 34 33 35 34 34 28 27 31 33 32 34 38 37 35 31 30 31
38 38 37 39 40 40 35 28 19 23 31 24 23 22 21 20 29 29 32 27 26 26 23 24 20 27 31 34 35 38 35 29 30 21 21 28 28 27 29 35 29 30 33 34
37 37 38 38 39 40 35 29 23 25 21 26 25 25 23 22 24 28 27 30 28 26 25 23 22 23 26 32 34 37 35 26 30 27 28 29 25 24 22 22 30 30 28 30
38 38 38 38 39 40 34 29 26 28 27 25 23 22 17 19 21 19 19 25 23 22 26 25 26 28 27 30 34 35 38 28 30 23 29 23 20 18 21 25 24 28 32 33
39 38 38 39 40 37 34 36 34 30 24 23 20 19 18 19 22 23 23 24 22 21 29 32 34 33 34 34 34 33 32 31 26 18 24 21 13 19 18 24 29 32 31 33
39 39 39 39 40 37 34 34 34 29 21 22 19 20 20 21 22 23 22 26 26 28 33 32 33 34 33 34 34 35 33 27 27 22 22 9 12 20 24 31 33 32 32 38
39 39 39 39 41 40 36 35 34 27 20 21 20 20 21 23 23 24 25 28 29 34 33 29 26 27 29 30 31 31 34 29 25 20 18 17 16 28 28 31 28 37 36 39
39 40 39 39 40 40 37 36 39 34 25 21 23 21 21 21 23 24 26 29 34 34 32 30 22 18 16 20 26 32 30 29 26 25 18 12 16 30 31 34 20 36 36 37
39 40 40 40 40 40 37 36 37 35 28 28 27 25 23 26 27 25 24 27 29 32 27 26 25 20 24 17 19 27 28 28 25 24 21 21 29 33 35 15 23 35 35 38
39 38 38 39 40 40 38 36 37 33 29 26 30 30 27 29 27 23 25 25 27 28 24 26 27 25 25 24 23 26 23 24 25 23 21 17 33 34 27 34 36 34 33 33
39 39 39 40 40 40 39 35 38 37 33 27 33 33 32 30 29 28 29 27 27 30 28 26 27 27 28 26 20 31 25 28 27 25 24 34 33 33 33 38 37 35 34 33
39 39 39 40 40 41 41 39 38 37 34 31 30 27 30 34 34 33 28 29 32 34 36 32 32 27 30 25 26 29 30 36 33 32 34 34 34 32 32 33 34 34 33 31
38 38 39 40 41 41 41 39 39 37 34 25 24 30 29 32 33 33 32 29 35 34 35 30 31 27 32 27 30 29 33 35 30 33 34 34 33 34 33 31 31 30 31 30
37 39 40 40 41 41 42 42 40 38 32 26 26 30 30 32 33 32 33 33 32 32 29 29 28 31 33 32 33 28 32 30 29 28 32 30 29 30 31 29 29 29 26 25
39 39 40 41 41 42 41 31 37 40 39 32 25 31 29 31 32 31 32 32 32 33 31 32 33 34 34 29 27 30 31 31 33 31 31 29 29 29 29 26 26 26 25 25
39 40 41 42 43 43 33 32 35 41 38 31 25 25 29 33 32 33 32 34 34 33 32 30 30 29 32 33 27 27 30 30 30 32 32 27 28 24 25 22 20 21 20 19
40 41 42 43 42 40 37 39 41 39 34 32 23 23 25 34 31 31 33 32 33 33 31 32 32 32 34 27 26 27 28 30 28 28 28 26 24 22 20 20 18 17 16 16
41 42 40 39 36 36 37 41 40 38 31 25 23 20 19 34 32 33 34 34 29 32 30 30 31 28 26 23 25 24 24 24 26 25 24 23 22 21 19 17 16 16 15 14
42 38 32 30 37 41 41 36 30 28 29 31 25 26 24 31 30 30 30 30 26 23 28 33 31 21 23 23 23 22 21 21 23 25 23 22 20 19 18 17 16 16 15 15
37 32 30 38 40 33 30 26 21 22 23 26 26 27 27 33 28 29 31 27 27 21 27 27 23 20 20 21 20 20 21 20 21 20 21 22 20 19 17 16 16 15 14 13
34 36 38 38 32 25 22 24 26 24 22 27 27 29 32 32 35 31 31 28 29 25 31 27 20 18 20 19 18 18 18 18 18 18 18 18 17 17 16 15 14 13 12 11
37 32 30 26 24 15 18 15 20 23 26 27 31 31 33 34 34 32 32 27 26 32 25 20 16 19 19 18 17 16 16 16 15 15 14 13 13 13 13 11 11 11 10 9
29 25 21 21 16 21 18 20 20 26 32 32 32 32 32 32 30 29 25 27 29 21 18 15 16 18 18 17 15 13 13 13 13 12 12 11 11 10 10 10 10 9 7 6
24 23 17 20 20 22 19 22 30 31 33 33 31 29 29 28 25 25 25 22 19 18 17 14 17 18 15 13 12 11 10 9 10 12 11 11 11 11 10 11 11 9 7 5
21 18 19 22 23 23 25 27 29 30 31 32 29 24 21 22 21 19 16 17 16 14 12 12 15 11 10 10 10 9 9 10 11 12 12 12 11 11 11 10 8 7 6 5
17 12 17 17 13 17 22 23 23 27 30 25 21 17 18 21 16 15 13 14 13 10 11 13 12 11 10 9 11 12 12 12 13 14 14 14 13 13 11 11 11 11 10 9

GFSNW_sfc_dewp_078.txt.gz
Dewpoint
40 40 40 40 40 40 34 34 30 34 38 27 28 19 18 22 18 20 18 17 16 12 11 7 9 9 17 33 33 33 28 29 23 21 24 28 27 28 31 29 27 34 34 31
39 40 40 40 40 38 35 29 24 34 36 27 22 21 20 23 21 22 20 19 19 19 16 14 12 12 14 32 36 36 37 31 24 22 29 30 28 30 37 34 36 30 30 33
39 39 39 39 39 39 37 32 29 27 29 25 25 23 16 18 26 28 25 25 27 24 21 22 16 16 21 30 28 36 37 31 27 17 28 28 29 28 29 30 30 27 25 29
38 38 38 39 39 39 36 34 28 27 26 24 21 23 20 18 16 24 22 30 23 26 21 21 20 18 16 20 31 35 35 32 28 28 29 29 21 20 20 24 25 25 18 19
37 38 39 39 39 38 34 33 29 26 23 23 21 20 15 14 18 18 16 24 20 18 20 24 27 27 25 24 31 32 35 32 28 26 27 25 21 19 15 18 23 22 23 25
39 39 39 39 40 37 33 36 34 30 24 20 19 17 15 17 18 19 21 20 21 21 24 30 28 29 28 30 29 33 33 32 27 21 24 19 16 16 17 19 21 28 28 30
39 39 39 40 40 37 34 36 34 31 21 16 16 16 16 17 19 21 21 21 26 25 25 29 30 29 28 28 29 33 33 31 27 20 18 9 19 19 22 24 25 31 30 37
40 40 40 40 41 39 36 36 34 31 26 17 15 17 18 19 22 21 21 21 25 28 31 28 20 21 25 25 27 29 35 35 27 19 16 12 10 26 25 26 25 34 34 36
41 40 40 40 41 40 37 36 37 34 29 21 18 19 18 19 19 21 22 25 29 33 31 28 21 19 14 12 19 28 30 31 31 23 14 7 25 28 29 28 21 34 35 37
41 40 40 40 40 41 39 37 37 34 32 25 26 23 22 23 25 23 24 27 26 31 28 25 25 23 18 11 14 24 26 27 25 21 18 17 28 30 32 18 28 36 35 35
41 40 41 40 41 41 39 36 39 32 30 25 27 27 25 26 27 25 26 26 28 27 25 24 25 27 25 22 20 21 21 22 24 22 20 16 33 32 28 35 37 35 33 32
41 39 39 39 40 41 40 35 38 37 33 27 33 31 30 28 27 28 27 28 30 30 28 26 27 28 28 25 20 27 27 30 28 26 28 34 34 34 34 36 36 36 33 31
40 39 39 40 40 41 40 37 37 38 35 30 28 28 30 32 32 31 28 28 28 34 37 32 31 28 30 26 26 27 30 33 32 34 32 33 34 32 32 33 32 31 31 29
40 39 39 39 40 40 41 39 38 36 35 29 25 29 29 30 32 32 32 29 29 32 32 30 30 28 30 28 30 30 31 32 30 32 32 32 32 32 31 31 31 30 32 31
39 38 38 38 39 40 43 42 40 36 29 28 28 30 30 31 32 32 33 32 31 30 28 30 28 29 31 35 32 28 31 30 29 29 32 30 29 31 31 30 30 32 29 28
38 37 38 39 41 41 41 33 41 40 39 34 27 30 28 30 33 32 32 33 32 31 30 30 32 30 32 28 30 30 31 31 33 30 32 31 30 30 29 28 27 28 27 25
37 38 39 39 40 42 35 36 38 41 39 33 28 26 28 32 32 34 34 34 33 32 31 30 28 27 30 32 30 30 30 31 32 34 33 29 29 26 26 23 22 22 20 20
38 39 39 41 41 41 37 39 40 40 34 35 28 25 28 34 31 31 35 32 33 34 32 33 29 29 32 29 28 29 30 31 29 30 31 28 26 23 21 20 19 19 18 18
39 40 41 39 38 36 38 41 40 40 35 29 26 25 26 35 32 34 34 33 29 32 30 29 29 28 28 26 26 26 26 26 28 28 25 23 22 20 19 18 18 17 17 16
40 39 36 33 37 41 40 37 35 34 32 32 27 27 28 32 32 30 31 34 29 25 27 32 30 28 25 23 23 24 23 25 28 25 23 22 21 20 19 18 18 17 17 16
37 35 34 39 41 37 32 29 27 28 25 26 27 28 28 34 31 30 32 28 29 21 27 27 27 25 22 21 20 21 21 21 22 23 23 23 22 20 18 18 17 17 16 16
37 38 39 39 33 30 25 23 24 23 18 28 28 28 30 33 35 33 31 27 28 23 32 28 25 21 21 20 19 19 19 20 20 20 20 20 19 19 18 17 17 16 16 15
38 34 33 29 28 23 21 18 21 23 27 32 32 30 33 34 35 33 32 28 29 34 30 27 22 20 19 18 17 17 17 18 18 18 18 18 18 18 17 16 16 15 14 13
30 27 23 25 23 25 26 27 30 33 34 34 34 34 34 34 32 33 29 31 32 28 24 21 21 20 19 19 17 16 17 17 17 17 16 15 14 14 14 14 14 13 12 10
27 26 22 24 30 30 31 32 32 32 34 34 34 34 35 32 30 31 29 27 25 25 25 24 22 21 19 17 17 16 15 15 16 16 15 15 14 14 14 15 15 13 11 9
26 25 25 26 26 27 30 31 30 32 33 36 35 31 30 27 27 25 21 22 21 24 23 22 20 18 17 16 16 15 16 17 16 16 16 16 15 15 14 13 12 11 10 9
22 25 27 28 29 29 28 30 30 32 33 32 30 26 22 26 23 21 23 26 24 22 21 21 21 18 16 15 15 15 16 17 17 17 17 16 16 15 13 12 13 11 12 11

GFSNW_sfc_dewp_081.txt.gz
Dewpoint
39 40 39 40 40 40 38 32 32 34 37 28 24 19 14 20 14 18 15 15 13 11 11 11 11 8 5 16 28 30 34 35 20 14 18 21 21 26 28 29 23 28 29 31
40 40 39 39 39 39 31 25 24 32 37 32 22 18 16 18 17 18 17 16 17 18 17 14 12 11 13 13 16 33 34 30 23 19 20 21 21 22 26 32 34 28 28 32
39 39 39 39 39 39 36 30 33 26 26 23 25 22 17 17 23 22 21 21 23 22 19 18 17 17 15 18 22 34 33 27 27 20 23 31 31 22 28 31 30 27 27 23
40 39 38 39 39 38 36 33 31 27 29 24 22 23 18 16 18 22 19 26 24 14 18 17 17 20 23 23 20 22 32 26 24 25 21 25 29 33 26 28 27 24 20 16
39 38 38 38 38 39 33 34 28 24 23 23 21 19 16 11 15 15 16 19 18 17 18 17 21 24 24 22 23 29 34 26 26 26 29 26 25 29 20 17 15 16 18 19
38 39 39 39 38 39 30 34 32 28 23 20 18 18 15 16 16 17 17 17 18 18 20 23 23 24 25 24 25 26 30 30 26 20 28 25 24 23 19 15 17 19 25 31
39 39 39 39 39 37 32 32 30 32 23 15 15 14 14 15 16 18 17 19 21 20 24 25 25 25 24 26 25 25 32 29 29 25 26 19 19 17 16 16 19 27 28 35
40 40 40 40 40 39 34 32 29 29 27 16 14 16 16 16 18 21 19 19 22 26 26 26 20 19 19 22 23 22 25 31 26 27 19 17 13 22 22 23 32 32 31 31
42 41 41 40 41 40 37 32 33 31 31 20 14 16 16 17 17 18 19 22 28 29 31 27 21 16 17 15 13 18 25 32 29 27 18 14 27 25 27 25 25 33 33 34
41 41 41 40 41 41 37 34 38 30 35 24 23 22 23 22 23 21 21 25 25 28 29 26 25 23 22 16 14 22 26 27 26 27 19 21 29 27 27 19 31 35 34 33
41 41 41 41 40 41 38 36 36 32 31 26 25 24 23 24 24 23 27 26 29 28 26 25 26 24 25 22 17 21 21 20 22 23 20 15 33 30 30 35 36 35 33 30
41 41 40 40 40 41 41 36 35 35 33 29 32 31 31 28 25 25 25 26 27 30 28 26 28 28 29 26 22 26 27 32 32 31 32 34 33 32 34 35 35 34 32 30
42 41 39 39 39 41 40 37 36 37 36 31 28 26 30 31 32 31 26 25 26 33 36 34 29 29 30 26 29 30 30 30 32 33 31 31 32 32 32 32 31 30 29 30
41 40 39 39 40 41 41 37 39 34 33 29 27 28 28 29 31 31 31 31 31 30 28 30 30 28 30 29 29 30 30 30 29 31 31 31 30 34 34 32 31 31 32 31
39 39 39 39 39 40 42 43 40 35 31 31 30 30 27 28 31 30 31 31 30 28 29 29 29 28 34 32 30 29 29 29 29 29 31 31 30 33 34 32 31 33 29 28
40 40 38 38 39 40 41 33 42 42 41 35 27 31 29 29 30 30 29 31 30 30 30 30 30 32 30 28 30 30 30 30 33 31 34 32 32 33 33 30 29 30 29 28
39 38 37 38 39 42 38 37 38 42 41 33 31 24 29 29 30 32 32 32 31 30 30 28 28 27 29 31 29 31 30 32 34 35 35 31 32 29 28 25 24 23 22 22
38 37 38 39 40 40 39 42 41 41 35 36 30 26 28 31 30 30 32 31 32 32 30 31 28 29 30 29 30 30 32 33 32 32 33 30 29 25 22 22 21 20 20 20
38 38 39 41 39 36 38 40 41 40 37 32 28 26 28 34 32 34 33 32 30 29 30 29 27 30 27 28 28 27 28 28 30 31 27 24 23 21 21 20 20 19 19 19
38 40 35 33 37 41 40 38 35 35 36 33 28 26 29 31 32 31 31 33 28 27 29 31 29 29 26 25 25 25 25 29 31 27 23 23 22 21 21 20 19 19 19 18
38 35 35 39 40 38 37 31 30 29 27 27 27 28 28 32 31 30 30 29 30 21 26 27 28 27 24 22 22 22 23 23 24 25 25 24 23 21 20 19 19 19 19 19
38 39 40 39 37 31 27 25 24 23 18 26 28 28 28 32 32 32 31 25 27 22 32 28 26 23 23 21 20 20 21 21 21 21 21 21 21 20 20 19 18 18 17 17
39 36 32 30 29 25 23 19 22 25 28 32 34 31 32 32 32 34 32 29 27 34 31 28 25 22 20 20 20 19 19 19 19 19 20 19 19 20 19 17 18 17 16 16
34 30 26 27 25 26 27 28 32 35 36 34 35 33 33 36 32 33 30 34 34 28 26 26 24 21 21 21 19 18 19 19 19 19 18 17 17 17 17 17 16 16 14 13
32 26 25 28 33 33 33 34 34 34 36 35 35 35 35 33 32 32 31 29 27 27 26 25 24 23 21 20 20 19 18 18 18 18 17 17 17 17 17 17 17 14 12 10
29 27 28 29 29 28 31 34 33 35 36 36 36 33 31 30 30 27 26 24 24 26 25 24 23 21 20 20 19 19 20 19 19 19 18 18 17 17 16 15 14 13 12 11
26 28 30 31 32 32 32 33 32 34 34 33 35 30 29 29 25 22 27 27 26 25 24 25 23 21 19 19 18 19 19 19 19 19 19 18 17 16 14 13 13 12 13 12

GFSNW_sfc_dewp_084.txt.gz
Dewpoint
39 39 39 39 40 40 38 35 34 35 39 32 26 20 14 17 12 15 13 14 11 9 10 11 10 8 9 10 11 8 24 34 28 23 21 23 22 21 26 28 23 27 28 28
40 40 39 39 40 39 36 28 26 30 38 34 23 17 13 15 14 15 15 14 15 17 15 12 11 12 15 15 13 18 24 26 21 18 18 18 22 23 30 33 33 28 27 28
40 39 39 39 39 40 36 31 33 26 28 23 26 20 16 16 19 19 19 17 19 18 16 16 13 13 16 21 23 31 30 22 22 22 23 27 29 32 30 27 31 27 27 28
39 38 38 39 39 40 37 34 33 29 30 23 22 22 16 15 16 20 19 23 22 22 16 14 13 15 17 18 24 22 24 20 20 23 21 20 26 32 29 28 33 27 24 20
39 38 38 38 39 39 36 35 30 26 24 23 21 19 15 11 14 12 18 20 17 15 15 14 18 17 18 19 20 22 31 23 20 18 19 19 24 24 29 31 35 33 31 23
39 38 38 38 39 38 32 31 32 31 24 21 19 20 15 14 15 15 15 15 16 16 16 18 21 21 22 21 21 24 25 28 24 18 17 20 25 22 21 24 29 24 25 35
37 38 39 38 39 39 36 31 28 30 24 17 15 15 14 13 14 16 16 17 19 18 22 23 22 21 20 21 21 23 26 25 25 23 22 16 20 19 19 20 31 35 30 35
39 39 39 39 40 39 36 30 31 28 29 15 14 14 15 15 15 17 17 17 19 24 24 23 19 19 18 18 21 22 24 25 25 23 21 25 19 19 20 21 34 32 31 32
41 40 40 40 40 40 37 34 35 31 34 19 14 14 14 16 18 20 20 19 25 26 29 26 19 15 17 18 26 20 19 25 27 22 20 22 33 30 25 23 32 33 32 32
42 41 41 40 40 40 38 35 39 32 36 23 20 25 27 21 23 20 23 24 23 28 28 24 24 20 20 19 19 16 21 25 23 24 24 30 31 31 27 19 30 33 32 30
42 41 41 40 40 40 38 38 38 34 32 27 24 23 22 24 23 24 26 24 28 26 25 26 23 24 25 28 23 19 20 23 24 25 26 23 31 30 29 34 35 33 30 28
41 42 41 41 40 41 40 38 37 35 30 31 33 31 30 28 27 25 25 25 27 31 28 26 27 24 31 29 24 29 28 30 30 28 28 33 31 32 32 32 32 32 30 29
41 41 40 40 40 41 40 42 37 34 35 32 30 27 31 31 31 31 26 28 31 30 34 33 29 26 30 26 28 30 30 30 32 32 30 29 31 31 31 31 30 30 30 30
41 41 40 39 39 40 40 39 40 34 32 30 29 29 27 28 30 30 31 30 31 30 27 31 28 26 31 29 30 31 29 28 29 30 32 31 28 34 31 32 31 32 32 30
41 40 40 39 40 40 39 38 40 39 33 32 30 32 27 28 30 29 29 29 28 26 28 28 26 25 33 33 32 27 29 28 26 27 31 30 30 33 31 30 33 34 29 28
41 39 39 39 39 39 40 34 39 39 40 34 28 31 29 29 29 29 29 29 30 30 29 29 26 28 33 28 28 32 29 30 31 30 33 32 33 34 33 31 30 31 30 30
40 39 39 38 38 36 37 36 38 43 42 34 29 25 27 27 28 31 32 31 30 28 29 27 27 26 30 31 28 29 28 29 33 35 35 32 32 30 32 29 26 24 22 22
40 39 37 37 39 39 37 41 42 42 36 35 29 26 28 31 28 30 35 31 31 32 29 30 29 28 30 28 28 27 29 32 32 33 34 31 31 26 25 24 22 21 20 20
39 38 37 39 38 36 37 40 42 41 37 32 28 25 26 33 31 32 33 32 29 30 32 29 27 30 27 29 27 26 28 30 31 32 33 28 25 22 21 21 21 20 20 19
38 38 35 33 37 42 40 38 34 34 35 35 30 27 28 30 32 31 30 32 28 26 29 30 30 29 27 26 26 26 26 29 32 33 29 26 23 21 21 20 21 21 20 20
37 35 33 40 42 38 36 32 30 29 29 28 27 28 29 30 30 29 29 28 29 23 28 27 27 26 25 23 23 24 24 23 24 25 25 25 24 23 21 20 20 18 17 17
36 38 39 39 36 34 29 26 26 26 20 26 29 28 28 32 32 32 32 26 27 20 32 27 23 24 23 22 22 22 23 22 22 22 22 22 21 21 20 18 17 17 18 18
40 37 34 34 31 26 22 19 21 24 27 32 34 32 33 32 31 34 30 27 25 34 30 27 25 23 22 21 21 20 20 20 20 21 21 20 20 19 18 17 19 17 16 15
35 31 26 28 24 25 26 28 33 35 36 34 36 33 34 36 34 33 26 33 32 28 24 25 23 23 23 22 21 19 20 21 19 19 18 18 17 17 17 17 18 15 13 12
34 30 25 26 32 33 34 35 35 34 35 36 34 34 33 31 30 32 30 28 25 27 25 25 26 24 22 21 21 20 19 19 19 19 18 18 18 18 17 17 16 14 12 11
31 29 27 31 31 31 31 32 33 35 35 36 35 33 31 30 29 29 25 24 24 25 25 25 23 23 22 21 20 20 21 21 19 19 19 19 19 17 15 15 15 13 13 11
29 28 31 32 33 33 33 34 34 36 34 32 33 31 30 32 27 24 27 27 26 25 25 25 24 21 21 21 20 21 21 21 20 20 20 18 17 17 15 14 14 13 14 13

GFSNW_sfc_dewp_087.txt.gz
Dewpoint
40 40 39 39 39 40 38 36 32 36 38 33 35 26 17 19 12 15 14 16 12 12 15 14 12 10 13 24 21 18 28 29 21 20 22 22 26 28 28 25 24 28 29 31
41 41 40 39 39 39 36 33 29 33 38 29 27 19 15 16 14 17 15 15 20 20 17 15 16 17 20 24 23 27 26 24 21 14 18 27 29 32 33 35 34 30 27 29
40 40 39 38 38 39 37 35 29 26 32 27 28 22 19 17 20 21 19 17 23 21 19 18 18 16 20 25 23 33 29 24 22 18 19 22 28 28 27 32 31 32 31 29
39 38 38 38 39 40 37 36 32 30 27 25 25 23 20 20 20 22 21 25 24 24 21 17 16 20 20 21 26 25 27 21 21 20 18 18 19 26 24 27 31 31 33 32
39 38 38 38 39 40 36 32 32 29 26 24 23 23 19 13 15 14 21 23 21 18 18 18 18 21 21 22 23 25 29 22 25 20 21 21 16 17 20 25 32 33 34 35
39 38 38 39 39 39 35 32 33 32 26 21 22 20 19 17 19 20 16 18 19 19 21 24 23 22 23 23 22 21 22 22 24 16 20 22 20 22 21 27 32 32 31 37
37 38 38 39 40 39 37 35 34 31 24 20 20 18 17 16 17 19 18 19 20 25 25 25 24 23 21 21 20 21 21 23 25 20 21 15 18 25 28 34 35 36 37 35
38 39 39 40 40 40 37 37 34 31 26 23 17 18 17 17 19 19 18 21 26 26 24 24 23 20 21 22 22 24 23 25 23 20 19 22 23 34 33 31 33 32 31 31
41 40 39 40 40 40 38 37 39 34 29 24 17 18 17 17 21 23 26 28 26 26 27 23 20 17 18 21 24 27 28 28 23 24 19 16 30 34 33 34 30 31 30 29
42 41 40 39 40 40 38 37 37 35 29 27 27 25 26 25 25 21 26 26 27 29 21 14 21 21 22 20 25 21 23 25 22 23 20 26 32 31 31 25 28 30 28 27
42 42 41 40 40 41 39 38 37 35 30 30 30 28 23 25 26 22 25 24 26 25 20 25 18 16 24 25 31 27 23 24 24 25 22 21 30 30 26 34 32 29 28 26
42 43 42 41 40 41 40 36 36 35 31 30 32 32 32 30 29 27 27 24 27 28 22 23 25 24 28 28 24 32 28 31 27 27 26 33 31 31 33 32 32 30 28 27
42 42 41 40 39 40 41 39 38 34 30 31 31 30 32 32 30 30 26 31 32 30 32 25 26 23 28 25 28 29 29 29 30 30 29 29 32 33 33 34 31 29 29 28
42 42 42 41 39 40 39 37 40 37 32 24 30 31 29 32 32 32 31 30 32 31 29 26 24 23 30 29 31 28 28 28 28 30 31 29 30 33 34 33 31 30 30 28
41 41 40 39 39 40 38 39 39 39 34 28 28 31 31 29 30 30 31 30 28 27 26 24 24 26 31 31 32 26 29 27 24 24 30 29 30 33 32 30 32 30 27 27
41 40 40 40 40 39 37 29 38 40 38 28 22 31 30 30 30 30 31 30 29 28 26 25 28 28 32 23 23 29 28 31 31 28 32 30 32 33 32 29 30 29 28 27
41 41 40 39 40 38 35 34 38 42 40 31 25 26 28 30 30 30 32 32 31 28 27 26 27 26 34 26 24 28 28 30 32 34 33 29 31 29 29 26 24 24 23 24
41 41 39 39 39 37 35 39 41 41 35 34 26 24 27 31 27 27 35 31 29 29 28 29 28 30 29 25 28 29 29 31 31 33 32 31 30 28 27 26 22 21 21 22
40 39 39 37 35 32 36 42 41 40 34 28 25 20 16 35 30 30 31 32 22 30 25 28 29 23 23 28 27 26 27 29 30 32 29 26 23 21 21 22 21 20 20 21
40 36 32 29 34 41 39 37 33 32 34 34 27 28 23 32 26 24 26 26 24 23 27 30 22 24 28 27 27 27 29 32 29 31 27 27 22 21 22 21 21 21 21 17
34 30 30 38 41 37 35 30 28 25 28 28 28 28 25 32 22 25 30 27 27 24 28 25 21 23 25 25 25 25 24 25 27 26 25 24 23 21 19 19 18 17 16 16
34 37 39 38 35 32 29 26 25 27 22 26 25 26 29 30 33 28 30 26 26 22 30 24 17 24 25 23 23 22 23 23 23 23 22 23 21 20 18 17 17 16 15 12
38 36 32 32 29 25 17 14 19 17 25 26 26 23 28 29 32 29 30 26 22 32 27 22 22 23 23 22 21 21 21 22 21 20 19 18 18 17 17 16 12 13 10 5
32 30 21 24 18 18 19 22 23 26 27 27 26 25 24 26 25 25 25 23 30 26 20 21 23 24 23 22 21 20 18 17 17 16 15 13 11 10 10 10 6 6 2 -1
31 31 20 18 27 30 31 32 32 33 33 27 26 26 27 29 26 28 25 22 20 24 21 22 22 21 19 17 17 14 13 12 13 11 12 12 12 13 10 4 3 2 -1 -1
31 28 26 27 28 28 28 29 30 34 32 33 32 30 27 24 25 25 24 25 22 22 23 23 22 19 18 16 15 15 17 15 13 12 13 12 11 8 6 4 3 1 1 -1
28 26 26 30 31 30 31 30 31 34 32 28 28 26 23 31 24 22 23 23 23 24 24 24 20 19 17 16 18 16 16 16 16 16 15 11 10 11 13 12 12 12 12 5

GFSNW_sfc_dewp_090.txt.gz
Dewpoint
42 41 40 40 39 38 37 35 30 36 38 34 35 24 19 21 14 18 16 18 18 18 18 15 14 14 20 25 25 22 28 26 22 16 19 20 21 29 34 29 26 27 25 24
41 40 39 40 39 39 36 33 29 32 39 26 24 21 18 20 17 19 18 18 21 21 18 15 18 17 23 24 22 24 22 21 17 7 14 26 25 24 26 31 33 27 26 26
41 40 39 38 38 39 36 34 25 26 31 30 26 23 20 18 23 21 21 24 25 22 19 19 18 19 23 26 25 33 28 22 18 14 16 21 19 17 19 27 27 28 27 32
40 39 38 38 38 39 37 33 29 30 25 26 24 24 23 21 21 23 23 23 24 22 20 18 17 21 22 23 26 26 25 20 22 22 22 21 21 20 18 18 22 27 30 32
39 38 38 38 39 40 36 31 30 31 24 25 23 24 19 18 16 21 21 21 22 18 18 19 19 22 22 22 24 24 26 20 20 13 17 18 18 22 20 19 18 23 26 33
38 38 39 39 40 39 34 33 33 31 25 21 22 19 19 19 20 21 19 20 18 18 23 22 22 23 23 22 21 21 21 19 20 12 19 20 17 23 20 18 26 32 30 36
38 39 39 40 40 39 36 35 33 30 21 20 20 19 20 20 19 18 19 19 19 25 25 24 24 23 22 22 22 22 21 21 22 19 20 13 22 33 30 33 34 36 35 36
38 39 39 40 40 41 36 37 33 29 24 23 18 20 19 17 20 18 18 25 25 25 25 24 23 21 20 21 24 23 22 23 22 18 19 19 20 33 31 28 30 33 33 33
40 40 40 40 41 41 37 36 37 34 26 23 24 19 19 19 19 23 27 29 29 27 25 22 20 16 18 19 22 29 27 25 23 23 18 13 26 29 33 35 26 33 30 28
41 41 40 41 41 40 37 36 37 34 25 29 26 25 23 24 23 21 25 25 25 27 18 14 18 19 24 22 21 24 24 26 22 21 20 24 29 32 34 25 25 28 26 25
42 41 40 41 40 41 39 36 36 33 28 30 31 31 26 25 25 21 23 22 24 24 20 21 15 14 22 25 28 28 25 25 24 25 22 19 29 28 25 31 32 27 26 25
43 42 41 40 41 40 41 34 37 35 29 29 31 31 31 29 28 26 25 23 27 26 20 21 21 21 24 25 24 32 24 27 25 25 23 32 32 31 34 33 31 29 28 28
43 43 41 40 40 41 40 36 37 34 28 28 30 28 31 31 29 30 25 30 31 28 28 22 23 19 26 23 27 27 26 32 28 27 28 28 32 33 32 32 28 27 26 25
42 42 41 40 40 40 40 36 37 35 30 23 30 32 30 33 30 30 30 29 31 30 29 23 20 21 28 26 31 25 26 27 27 26 28 29 29 31 32 29 29 28 28 27
41 41 41 40 40 40 38 37 37 38 30 24 25 30 30 30 32 31 30 29 28 27 24 21 21 26 27 30 28 25 28 26 24 20 27 27 28 30 31 30 28 26 24 24
42 41 40 40 40 39 32 26 36 39 36 25 20 30 28 30 30 30 29 29 28 27 25 23 27 28 27 24 20 28 30 30 31 24 30 30 31 30 30 28 27 26 25 24
41 41 40 40 40 36 31 29 38 41 35 23 19 24 29 30 30 30 32 33 30 27 26 25 25 25 31 25 23 28 28 31 32 34 31 28 30 28 29 26 24 26 25 23
41 41 40 40 41 38 34 39 41 39 32 31 18 22 26 30 26 27 32 29 29 29 26 27 27 28 30 24 28 28 29 30 31 31 32 29 29 30 25 22 22 21 21 22
41 40 39 35 32 29 35 41 40 38 30 27 24 18 14 31 28 28 30 30 20 27 23 26 29 24 23 25 28 27 28 30 29 33 30 25 23 23 24 21 20 20 20 20
40 34 28 27 30 41 37 34 30 32 32 31 25 27 21 28 21 21 24 24 23 20 25 28 22 23 28 28 28 29 31 30 32 30 27 24 23 21 21 21 21 19 18 18
31 29 28 38 40 35 33 27 25 25 25 27 27 26 23 30 20 21 28 28 29 25 25 26 23 22 25 26 24 25 28 28 28 27 26 27 22 20 18 18 17 17 16 16
31 35 39 38 34 30 25 23 24 24 22 25 24 25 27 27 32 24 29 26 27 23 30 24 16 21 25 24 23 23 23 22 21 21 21 21 19 18 17 16 15 14 12 8
37 36 30 29 28 23 17 11 18 15 22 23 23 27 27 28 28 23 29 27 23 30 21 19 18 23 23 21 21 21 21 20 18 18 18 17 17 16 14 12 8 9 7 1
28 27 23 22 14 14 16 18 17 22 22 24 22 21 22 23 22 21 24 22 30 20 17 17 18 22 22 21 21 19 16 15 15 13 12 10 10 7 6 5 1 2 -1 -6
29 30 18 16 22 28 29 31 30 29 33 24 22 23 25 22 22 27 25 24 21 23 20 17 19 20 18 16 14 12 9 8 8 5 7 8 8 6 0 -3 -4 -2 -5 -5
30 29 27 28 27 27 28 29 29 33 32 30 29 27 25 25 24 25 23 24 21 14 16 21 21 17 11 11 11 9 9 10 11 10 9 8 5 5 3 -1 -1 -3 -3 -4
29 25 26 28 28 28 27 30 31 33 31 26 27 25 20 29 21 21 24 21 12 19 21 21 18 15 11 10 14 15 14 12 11 10 12 9 7 9 11 10 10 9 10 1

GFSNW_sfc_dewp_093.txt.gz
Dewpoint
44 41 41 40 39 39 37 35 29 36 39 34 34 29 22 25 18 21 18 22 20 18 18 15 16 16 20 24 24 20 25 23 21 14 18 20 20 30 30 26 24 25 27 24
41 41 40 40 39 38 36 32 28 34 38 28 26 21 21 23 20 21 20 19 22 22 19 16 18 19 25 24 24 21 20 19 13 3 14 21 21 20 21 24 28 24 23 24
41 40 40 39 39 39 35 33 23 26 33 32 27 23 21 20 24 22 24 24 24 21 20 19 17 20 24 26 28 32 26 21 16 11 12 20 20 20 21 22 19 22 23 24
41 40 39 39 38 38 37 33 27 28 25 25 25 24 24 21 21 23 24 24 24 23 20 18 19 21 22 23 25 27 24 19 21 21 21 18 16 17 17 19 19 19 18 23
39 39 38 38 38 40 36 31 28 29 25 25 22 23 22 21 19 23 21 22 21 19 19 18 18 21 20 19 22 22 25 19 19 16 13 12 15 18 19 19 19 19 17 18
38 38 38 39 40 40 33 33 32 29 25 22 20 20 21 20 21 22 20 20 18 19 22 23 22 22 22 20 22 21 21 19 18 11 17 19 15 21 28 20 19 23 20 28
39 39 38 40 41 38 35 34 33 28 22 20 21 21 20 19 19 18 18 19 20 24 24 25 24 23 22 23 21 22 21 19 18 16 17 11 19 31 32 30 32 34 35 34
39 39 39 40 42 41 36 36 32 29 24 21 19 20 20 19 20 17 25 25 25 25 26 23 21 20 20 22 24 23 21 21 16 13 16 17 20 30 29 28 29 33 33 32
40 40 40 41 41 41 36 35 37 32 26 23 26 21 19 19 19 24 25 28 28 27 24 21 19 15 17 19 24 28 24 23 21 23 11 10 22 28 30 34 24 30 30 29
40 40 40 40 42 41 36 34 36 30 26 29 27 23 23 25 23 23 24 25 25 26 17 12 12 18 23 21 18 25 24 24 19 20 18 21 27 30 33 23 23 28 26 26
41 40 40 40 41 42 35 34 36 31 28 29 30 30 25 25 25 20 22 21 22 22 19 18 13 11 22 21 22 26 25 22 22 23 21 18 29 28 23 29 30 28 26 26
42 41 40 40 41 43 38 34 38 35 30 29 31 30 30 27 26 25 26 22 26 24 19 19 20 19 21 20 19 30 23 26 23 23 22 31 31 29 31 32 30 28 27 26
42 41 40 40 41 42 39 35 36 32 29 29 29 27 30 30 28 28 27 29 31 28 26 21 21 20 24 17 21 23 26 30 27 26 27 27 30 30 31 29 27 27 27 25
43 41 40 41 41 41 39 36 36 34 29 24 28 31 29 32 30 29 30 31 30 30 28 21 19 21 26 23 28 22 25 26 26 25 28 28 29 30 29 28 28 28 27 26
42 41 40 41 41 40 37 37 37 37 28 24 25 28 30 31 30 30 29 28 27 26 23 20 20 25 25 30 24 22 28 26 24 20 27 27 27 29 31 27 26 27 24 22
42 40 40 40 40 35 32 27 35 39 34 24 20 28 28 29 31 30 29 29 27 26 24 22 25 27 25 21 17 26 30 31 31 26 30 30 29 30 29 27 26 25 24 22
42 41 40 40 40 37 31 28 36 39 32 20 18 24 28 30 31 32 32 33 29 28 26 25 24 25 29 22 19 27 29 31 31 33 29 27 29 27 30 27 25 24 22 22
41 40 41 41 38 36 34 40 40 34 30 26 18 21 25 29 26 29 31 30 29 28 25 26 26 27 29 22 25 28 28 30 30 32 32 28 28 24 23 23 22 22 20 20
40 39 36 33 31 28 34 38 37 35 29 21 21 18 14 28 27 28 28 28 21 28 22 25 26 22 25 25 26 28 29 28 25 31 29 26 28 25 21 21 20 19 19 19
37 32 26 18 29 38 35 31 27 28 31 31 22 25 20 26 19 20 22 23 23 19 23 26 20 22 28 28 29 29 30 30 32 25 24 24 22 21 21 20 20 19 19 18
30 23 29 34 40 35 30 25 23 25 24 25 26 25 22 29 19 20 25 25 26 22 22 23 23 21 25 26 27 27 27 27 26 26 27 26 23 20 19 18 17 17 17 15
29 35 37 37 32 29 23 22 24 23 21 24 23 25 26 26 30 22 25 28 28 23 31 26 17 18 24 24 23 23 23 23 23 25 23 22 20 19 17 16 15 13 11 7
38 33 30 28 29 20 16 14 19 15 22 22 23 20 23 26 27 21 24 26 23 28 24 16 15 21 23 22 21 21 20 20 19 19 18 18 16 15 14 11 7 8 5 -2
27 25 21 20 18 17 15 16 16 22 21 23 21 21 21 22 21 23 21 17 26 19 15 15 16 21 21 21 21 19 16 14 14 12 11 9 8 3 1 0 -3 1 -2 -8
27 28 15 20 23 25 29 30 30 29 30 22 21 23 23 19 16 25 24 23 20 23 20 14 20 21 19 16 13 12 9 6 5 2 5 4 3 3 -2 -6 -6 -3 -8 -8
28 28 24 27 26 26 28 28 29 33 31 29 25 22 17 19 24 24 21 23 18 19 14 11 17 15 11 10 10 7 6 6 5 6 5 3 2 3 0 -4 -4 -6 -6 -6
26 25 26 27 27 27 26 29 30 33 31 26 26 23 18 25 23 20 24 20 11 21 15 14 14 13 9 7 8 9 12 10 10 8 10 6 6 7 10 8 8 7 8 -2

GFSNW_sfc_dewp_096.txt.gz
Dewpoint
44 42 41 40 40 41 38 34 28 38 39 32 32 28 27 27 23 24 24 26 24 21 19 17 18 19 21 25 23 20 24 24 16 13 19 23 21 30 28 23 22 24 25 22
44 42 41 40 40 40 35 30 32 35 37 27 29 27 23 25 23 24 24 23 24 24 20 16 19 21 25 28 24 20 19 19 8 4 13 16 20 20 23 24 24 19 18 20
42 41 41 40 40 40 35 30 22 28 34 33 28 22 23 22 26 24 25 24 24 22 20 21 19 21 23 26 29 31 25 20 11 2 8 21 19 20 21 21 10 14 14 15
41 40 40 39 39 40 36 33 23 26 23 27 25 24 25 21 20 24 24 24 25 23 18 19 19 21 20 22 26 26 23 17 21 19 21 18 18 13 11 15 16 15 8 13
41 40 39 39 39 40 35 29 29 28 25 26 24 24 22 21 20 23 21 22 21 19 18 18 18 19 19 18 22 21 24 20 18 16 17 14 12 14 16 18 18 18 18 17
39 39 39 39 40 41 34 33 32 29 24 21 20 20 22 20 21 21 21 21 20 20 21 22 20 21 21 18 20 20 20 18 16 10 17 14 6 15 26 27 28 28 19 20
39 39 39 39 41 41 34 34 32 28 22 20 21 22 20 20 20 17 20 21 21 23 24 24 24 22 22 22 21 21 21 18 17 14 15 1 19 30 30 28 30 29 31 33
39 39 39 39 41 40 35 36 31 28 23 21 20 21 20 20 24 24 25 26 26 25 26 22 19 19 20 22 23 22 22 21 15 9 14 14 20 27 26 26 25 30 30 31
40 40 39 40 42 40 35 35 36 30 26 23 26 20 20 19 22 24 25 28 28 26 24 21 17 15 19 18 23 25 23 23 21 20 10 7 20 26 29 32 22 28 28 29
40 40 40 41 42 39 34 34 35 30 26 28 26 21 23 24 24 23 24 25 25 25 17 13 11 17 22 19 18 23 22 23 18 18 15 18 25 28 30 22 20 27 27 27
40 40 39 41 43 40 34 34 36 31 28 28 30 28 25 25 24 21 22 20 21 21 18 17 12 10 19 19 15 25 23 21 21 21 18 13 27 25 21 26 29 28 27 26
41 40 40 42 42 41 36 33 37 35 30 28 31 30 30 26 25 25 26 21 25 23 19 19 20 19 16 17 17 26 18 21 21 23 20 29 29 28 30 30 28 27 26 25
41 40 40 42 42 41 38 35 35 32 30 30 30 28 30 29 28 30 27 28 29 26 25 20 20 18 23 15 20 23 26 30 25 25 27 27 29 29 29 28 26 26 25 23
41 40 41 41 41 41 39 36 36 32 30 25 28 30 29 31 29 30 30 30 29 29 26 21 18 21 25 21 26 22 24 26 25 25 27 27 28 29 29 28 27 24 24 23
41 41 41 41 41 40 38 37 38 36 28 26 27 28 30 30 30 29 29 28 26 25 23 20 20 25 24 30 24 23 27 24 22 18 27 26 26 30 30 27 25 25 22 21
42 41 41 40 38 34 32 28 34 37 32 26 21 27 28 30 31 30 28 28 27 26 23 21 24 26 24 19 19 26 29 30 30 22 29 27 29 28 27 25 24 24 22 21
41 41 41 41 40 37 30 28 36 38 31 23 20 24 27 29 31 33 31 31 28 26 25 24 23 24 28 22 20 26 30 30 31 29 28 26 28 26 26 24 22 23 22 21
41 41 39 39 39 37 35 38 38 33 28 25 19 21 26 30 26 30 30 30 29 27 24 26 26 26 27 24 26 28 29 30 30 31 30 28 27 24 24 23 22 19 19 18
40 37 35 33 32 30 36 38 36 33 28 21 21 19 15 28 27 31 28 28 23 28 21 24 24 18 22 23 26 27 27 25 29 30 29 28 25 23 22 21 20 19 18 18
35 32 27 23 33 38 34 30 24 25 27 27 20 24 20 25 19 19 21 23 22 18 22 25 24 18 27 28 28 29 30 30 28 25 24 25 24 22 22 20 20 19 18 17
28 27 29 35 38 32 29 21 19 23 21 24 24 24 23 28 19 19 24 22 23 20 20 21 21 19 24 28 28 27 26 26 28 26 25 24 23 22 19 18 18 18 17 15
28 33 37 36 31 26 22 21 23 22 20 24 23 24 25 26 28 21 24 26 28 21 26 24 19 17 24 24 24 23 24 25 24 25 24 22 20 20 18 16 14 12 10 6
37 30 29 28 27 18 16 14 20 14 22 22 22 19 22 26 26 20 23 21 24 28 25 19 16 21 23 22 21 21 21 21 20 19 19 17 15 14 14 11 6 7 3 -4
25 24 19 17 17 17 14 15 14 24 23 22 20 21 20 25 20 21 19 15 25 19 18 13 13 21 21 21 21 19 16 16 15 12 11 9 7 2 2 0 -5 -0 -2 -11
27 27 13 20 22 23 27 29 28 30 29 21 23 22 21 18 14 23 21 19 16 19 12 12 12 19 19 17 14 12 9 6 5 2 4 2 2 3 -3 -9 -8 -2 -6 -8
25 25 23 25 26 25 27 28 28 32 31 25 24 21 13 15 21 22 19 19 13 16 14 10 22 16 11 10 10 8 7 6 4 4 3 2 1 3 -0 -4 -5 -8 -7 -8
24 23 21 24 23 24 26 28 29 32 30 23 26 20 15 24 22 22 24 20 17 12 18 9 10 13 8 8 7 8 9 8 7 7 8 6 6 6 8 6 8 6 6 -3

GFSNW_sfc_dewp_099.txt.gz
Dewpoint
45 44 43 42 42 41 37 35 29 39 42 32 33 27 23 27 22 25 26 31 26 20 19 17 21 19 21 27 24 19 23 20 9 13 20 21 24 27 26 19 20 24 24 23
45 43 41 41 42 41 35 33 35 38 38 26 26 27 21 24 23 25 30 27 26 22 19 16 19 19 24 27 23 20 20 15 3 8 17 18 18 19 20 19 22 17 19 19
44 43 41 41 41 41 36 28 27 32 34 33 30 25 23 22 24 26 27 28 27 22 18 21 20 18 21 27 30 31 25 18 6 0 12 18 15 18 18 19 21 16 15 11
44 42 42 41 41 41 36 33 26 28 25 27 28 25 24 21 20 24 24 24 23 22 16 17 18 18 19 22 26 25 24 16 18 16 19 19 18 15 14 11 11 12 -1 7
41 41 41 40 40 41 35 30 30 29 26 27 27 26 24 19 20 21 21 22 19 19 17 18 17 18 17 16 21 21 24 21 18 15 17 17 14 13 11 11 13 15 18 21
41 40 40 40 40 41 35 33 33 29 24 24 23 22 23 21 21 20 22 22 20 19 20 21 22 22 23 21 19 20 19 20 14 5 14 11 6 12 12 21 25 25 23 25
40 40 39 40 41 41 38 34 33 29 23 21 20 21 21 20 19 19 20 21 22 22 24 26 25 24 22 21 21 21 21 18 17 10 13 -2 23 27 28 25 27 28 28 31
40 39 40 40 42 43 36 37 33 29 26 22 21 23 24 25 26 25 26 26 27 27 26 21 17 19 20 22 24 22 21 20 17 14 13 12 23 26 26 25 24 27 26 30
40 40 40 41 42 42 36 36 37 31 29 23 24 21 23 21 23 24 24 28 29 28 26 23 16 14 18 18 23 23 21 22 19 19 13 10 21 24 26 30 21 26 26 26
40 40 40 42 41 42 35 35 37 32 30 29 26 21 23 26 25 23 24 25 24 27 23 20 18 18 21 18 19 22 21 21 18 18 17 19 25 26 28 20 20 26 26 26
40 41 40 42 42 40 35 36 37 32 30 29 30 27 26 26 25 23 24 23 24 24 20 19 19 20 23 22 20 24 22 20 19 19 18 15 26 23 20 26 29 27 26 26
41 40 41 42 41 39 36 34 37 35 31 29 32 32 30 28 26 26 26 22 26 26 22 22 23 23 24 21 20 27 22 24 23 23 22 29 28 27 29 29 26 26 25 25
40 41 42 42 41 40 38 37 36 34 33 30 30 30 33 32 30 33 28 30 29 28 26 26 26 22 24 22 22 23 26 29 25 25 26 27 28 29 28 28 25 25 25 23
40 42 42 42 42 41 39 37 37 33 31 28 29 32 31 32 32 32 32 31 31 30 27 27 26 23 26 26 26 24 23 25 25 24 27 28 28 28 28 27 26 24 25 24
40 42 42 42 41 40 39 38 38 35 29 28 28 29 31 32 32 31 31 30 28 25 25 26 24 25 28 29 26 24 24 24 24 22 27 26 27 29 29 26 25 25 22 20
42 41 40 39 37 33 34 31 35 37 33 30 26 28 29 32 32 31 31 29 28 26 25 25 25 27 28 25 23 26 25 29 28 26 29 28 28 28 26 24 23 22 21 20
41 41 40 40 39 37 33 31 35 37 33 29 25 26 28 30 32 33 33 32 29 27 27 25 23 24 29 26 23 26 30 29 29 28 27 26 27 24 24 22 21 22 20 19
42 41 41 40 39 38 35 38 37 34 30 29 24 24 28 30 27 30 32 30 29 29 26 28 26 28 30 23 26 29 30 31 30 29 29 28 26 24 23 22 20 18 17 17
37 36 35 34 33 33 35 38 34 35 31 25 24 23 22 30 29 32 30 30 26 28 27 26 26 25 24 26 27 28 28 28 30 29 27 25 23 22 22 21 19 18 17 17
34 32 29 26 34 39 34 31 26 27 29 28 24 25 27 28 25 26 28 27 26 23 24 28 26 25 27 29 28 28 28 30 29 26 25 25 23 22 21 20 19 18 17 16
31 30 30 35 37 33 29 23 23 24 23 24 25 26 27 30 26 26 26 26 26 21 23 23 22 22 25 29 29 30 31 30 28 27 26 27 24 23 20 19 19 18 17 16
31 33 36 34 30 26 21 20 23 21 20 25 25 25 27 29 30 27 27 26 27 21 27 24 22 21 26 25 25 25 26 27 28 26 24 24 23 21 19 18 16 15 13 11
33 30 28 25 24 15 12 14 20 20 25 25 27 26 27 29 28 26 26 21 25 29 26 22 21 23 24 23 23 22 23 23 22 22 21 19 18 17 16 13 11 11 7 5
26 23 19 15 17 16 17 19 20 25 27 25 25 26 26 27 25 24 19 21 24 20 19 20 20 22 22 22 21 20 20 19 18 17 15 13 10 7 6 6 6 6 6 1
26 24 17 19 23 24 27 28 29 31 28 26 26 25 25 24 21 24 22 20 18 21 20 22 20 22 21 20 19 17 14 13 12 11 9 7 7 6 3 2 5 5 2 2
26 25 22 24 24 26 28 29 29 33 31 27 26 23 19 20 22 21 20 21 18 22 23 19 20 20 19 17 16 14 12 11 9 9 9 8 7 9 7 5 5 4 5 5
25 22 22 23 21 24 27 30 31 33 31 27 25 17 18 24 21 20 24 22 24 20 21 19 19 19 15 13 13 12 11 10 10 10 10 9 8 7 6 5 6 6 8 7

GFSNW_sfc_dewp_102.txt.gz
Dewpoint
46 46 46 45 45 42 38 36 32 41 44 34 35 28 24 29 22 24 25 29 27 26 23 27 25 21 22 28 26 22 21 16 10 12 20 17 13 19 19 19 15 21 24 19
46 45 45 45 44 42 35 34 34 41 41 31 28 26 23 24 23 23 27 26 29 23 24 18 28 28 30 29 26 21 18 14 13 11 17 18 16 20 19 20 19 17 16 15
46 45 44 43 44 42 38 32 31 36 38 36 30 26 24 23 24 24 26 27 29 25 21 20 21 21 23 28 27 29 21 12 7 3 12 17 17 17 15 18 22 14 12 7
46 44 42 42 44 42 37 32 31 27 30 30 29 27 23 23 21 26 24 26 29 32 20 18 19 19 22 23 25 24 21 10 11 13 14 13 13 12 11 10 8 11 1 1
45 44 43 41 43 41 36 36 27 27 23 27 28 28 22 21 22 23 21 25 22 24 25 20 17 18 18 17 20 20 21 18 15 9 11 12 10 8 8 9 8 6 6 11
44 43 42 42 42 40 35 36 35 28 26 24 26 24 22 21 22 23 26 23 20 19 20 21 21 21 21 21 18 18 15 21 13 -1 9 8 4 9 8 7 10 19 20 25
42 41 41 42 41 40 39 35 34 32 26 19 24 21 22 21 21 22 21 21 20 23 25 24 22 20 19 17 19 16 16 15 14 9 10 7 22 26 27 25 26 28 27 26
42 41 40 40 40 41 41 38 34 31 28 19 22 22 21 22 23 23 23 25 27 27 23 19 17 20 21 23 23 17 17 19 20 19 15 13 23 26 27 27 23 29 27 26
42 41 39 41 42 43 44 39 39 33 31 23 22 23 23 21 21 24 26 28 30 28 27 23 14 12 13 19 23 25 21 21 23 19 14 12 27 25 25 29 22 25 26 26
42 41 41 42 43 44 41 36 41 33 36 28 25 22 23 25 23 21 25 25 25 29 28 26 23 18 19 18 21 22 22 22 19 19 19 24 25 26 27 22 23 26 26 26
41 41 41 43 44 43 38 37 39 34 32 30 30 28 26 27 23 22 27 25 25 26 22 22 23 25 23 23 27 25 23 21 20 19 20 17 26 25 26 27 29 28 28 27
42 41 42 43 43 42 38 35 37 37 32 30 33 32 31 29 27 25 27 25 25 29 23 22 24 26 28 25 22 28 25 28 27 25 25 28 27 27 28 30 29 28 27 26
42 43 43 42 42 40 38 39 36 34 35 29 27 28 32 33 33 35 24 29 28 29 30 32 29 24 27 25 26 25 26 29 27 28 27 27 28 27 28 29 27 28 27 26
43 43 42 42 42 41 39 36 40 34 29 29 28 31 31 33 34 34 34 33 33 31 28 30 30 27 28 27 29 26 25 27 25 27 28 27 28 29 28 28 27 26 26 25
43 42 42 41 41 40 39 38 37 35 29 29 26 30 32 32 32 31 32 31 28 24 23 28 25 25 30 31 29 26 26 29 26 26 27 29 28 29 29 27 26 25 22 21
43 42 39 38 37 34 37 37 37 37 37 32 26 30 30 32 32 31 32 31 30 27 26 25 22 28 31 29 27 26 26 27 28 29 31 30 30 29 27 25 25 24 22 21
42 40 40 39 39 37 38 35 37 37 36 38 28 24 30 32 31 32 32 33 30 28 27 24 21 23 30 31 27 26 28 29 29 30 28 27 27 25 25 22 21 21 19 19
42 41 40 39 39 38 35 37 36 36 37 35 28 27 28 32 28 30 35 30 30 30 28 28 25 27 30 27 30 28 28 29 29 29 29 27 25 23 21 20 19 19 18 18
40 38 36 37 36 35 35 38 35 39 34 29 28 25 26 33 32 34 33 33 31 30 30 27 26 28 26 26 28 28 28 29 29 29 27 24 23 22 21 20 19 18 17 17
34 32 29 33 35 38 35 33 34 32 31 30 28 29 28 30 33 32 31 32 28 25 26 29 29 27 28 28 28 29 29 29 29 27 25 24 23 22 21 20 19 18 17 17
32 32 32 36 38 34 30 29 27 27 23 26 28 29 28 32 31 30 30 28 29 22 26 25 24 23 25 29 28 28 29 30 29 29 28 26 25 23 21 20 19 18 18 18
33 35 37 37 31 27 24 23 24 23 19 27 29 28 30 32 33 30 30 25 28 19 29 25 21 26 28 30 30 30 30 29 29 28 28 27 25 23 22 21 20 20 18 15
35 30 26 25 25 21 15 18 22 25 29 30 32 31 34 33 34 32 28 25 27 30 27 24 26 25 26 26 27 27 27 28 28 26 26 24 23 21 21 19 18 17 15 14
26 23 20 23 21 23 25 26 28 30 31 31 33 31 34 33 32 31 22 28 27 23 21 22 26 25 25 26 25 24 25 25 25 24 23 20 17 16 16 16 15 13 12 12
27 25 21 23 28 30 31 32 33 30 32 34 33 32 32 31 28 26 23 22 21 24 26 30 28 26 26 25 25 24 22 21 20 20 17 14 14 14 13 14 15 13 10 10
29 28 27 30 30 30 32 33 32 35 35 34 33 30 28 26 26 23 22 21 21 29 32 29 26 25 25 25 23 22 21 20 18 17 16 15 13 13 13 12 12 10 11 11
26 28 31 31 32 30 32 34 33 36 34 31 27 21 19 27 22 19 25 29 31 30 28 27 28 26 25 22 20 18 18 18 17 17 17 16 16 13 10 9 10 11 13 14

GFSNW_sfc_dewp_108.txt.gz
Dewpoint
46 45 47 50 48 47 43 42 34 43 46 33 34 32 33 36 32 25 22 24 25 25 26 25 23 29 30 31 34 32 30 26 23 22 20 19 21 22 32 31 28 31 28 27
46 44 42 49 48 46 40 38 36 43 42 30 31 32 30 32 25 25 23 23 25 27 27 25 28 29 32 29 25 24 28 26 20 23 23 19 18 21 20 23 23 18 18 19
45 45 44 47 48 45 43 38 32 34 36 36 34 30 30 30 25 24 25 25 29 26 26 25 28 31 30 28 27 30 28 23 21 21 23 20 19 15 14 19 23 19 16 20
44 44 46 46 47 45 42 37 35 31 28 30 33 33 27 28 26 24 26 28 28 27 24 23 26 30 29 28 27 26 25 22 20 18 11 10 14 10 10 10 11 17 12 6
44 44 43 45 48 46 40 36 37 34 29 30 32 32 31 25 24 24 22 27 27 27 27 25 24 31 27 25 24 25 27 23 22 18 12 9 7 4 5 8 8 5 2 7
44 44 44 44 47 44 37 38 38 38 32 35 30 30 30 29 27 27 23 26 27 27 29 30 26 27 27 24 25 27 24 25 18 12 12 6 5 9 4 7 5 12 10 24
43 44 43 45 46 43 38 43 43 37 30 28 30 26 26 26 28 32 29 32 30 30 28 24 23 24 23 23 24 22 22 20 17 11 11 1 21 24 22 22 27 27 25 25
43 42 45 47 46 45 44 45 41 38 34 30 26 27 28 28 33 32 26 28 32 27 23 22 19 17 16 16 16 16 16 19 15 14 10 18 19 23 27 25 27 27 25 25
43 44 43 46 45 45 43 43 44 40 34 32 27 28 30 35 33 30 28 28 29 28 29 25 17 15 13 16 17 11 12 17 24 19 15 11 27 23 24 28 23 25 25 25
43 44 46 44 45 44 43 43 44 41 35 34 35 32 33 33 32 26 28 28 27 28 30 27 22 19 13 17 17 16 18 21 19 19 16 25 27 24 26 22 23 26 25 26
45 45 44 44 43 44 43 42 42 42 36 33 36 34 34 32 30 27 29 27 27 26 25 21 23 25 20 24 30 19 19 18 19 19 19 19 26 26 25 28 28 27 25 27
44 43 43 42 42 42 43 39 42 42 39 33 36 34 33 32 31 31 30 26 27 30 23 19 21 25 28 26 22 29 27 30 29 26 26 27 28 28 29 31 28 27 25 26
43 42 42 43 41 41 42 41 41 40 35 32 31 30 31 31 34 36 25 24 28 29 34 37 30 25 25 25 27 26 26 29 28 27 26 25 26 27 27 27 26 26 26 25
41 42 42 43 42 43 43 41 40 40 37 32 28 30 29 30 30 32 35 33 32 32 33 33 33 28 31 30 28 28 25 26 26 27 27 27 25 26 26 26 26 25 25 25
42 42 41 42 43 43 44 43 42 41 38 30 27 30 28 28 29 28 30 32 33 29 27 32 30 28 29 31 30 27 28 32 28 30 28 30 28 27 27 26 25 25 23 23
42 41 41 42 43 43 43 38 39 39 41 32 27 29 28 29 30 29 29 29 30 26 26 25 27 32 30 29 28 27 28 31 31 33 32 31 29 28 26 25 25 24 23 22
42 42 43 43 43 43 37 36 35 37 41 40 28 23 28 29 28 29 29 30 29 28 23 23 23 25 28 31 27 27 28 30 31 30 29 26 26 25 25 24 23 23 21 21
42 42 41 40 40 39 36 35 38 40 41 36 29 27 27 31 27 28 31 27 28 29 27 25 22 24 24 27 32 28 28 29 28 28 28 27 26 24 23 22 21 20 19 19
41 42 42 39 40 31 32 36 37 42 36 30 28 25 26 32 30 31 28 28 32 27 27 23 22 29 25 29 27 28 28 28 29 28 26 24 23 21 21 20 20 19 19 19
37 33 35 37 34 36 37 37 36 35 28 30 29 30 28 29 34 32 29 28 27 24 25 28 27 28 27 28 28 28 28 29 28 27 25 24 22 21 21 20 21 20 20 20
32 34 34 33 35 35 28 32 28 28 24 25 28 28 28 29 32 29 27 26 26 19 27 23 24 22 27 28 28 28 29 30 29 28 28 27 24 24 23 23 23 22 21 20
33 34 34 34 31 29 26 24 23 23 19 27 30 28 29 29 29 29 26 21 25 19 29 24 19 28 29 30 32 32 31 30 29 29 28 28 26 25 24 23 23 23 20 19
35 30 26 26 26 25 23 20 21 26 29 32 34 33 32 29 32 32 27 26 25 29 26 22 27 29 31 33 31 31 31 30 31 29 29 27 26 25 25 23 21 20 19 19
27 25 24 28 25 24 28 31 31 33 35 35 36 34 35 34 32 30 25 29 27 22 21 24 28 29 32 32 31 32 32 33 33 30 27 26 25 23 22 21 21 19 17 16
28 27 23 25 30 32 34 35 34 35 37 36 34 33 31 29 27 28 24 22 19 21 27 29 30 31 32 31 31 31 30 29 29 28 25 23 22 22 21 20 20 18 16 16
29 29 28 32 31 31 32 33 34 36 37 37 33 31 29 26 25 22 20 21 22 28 28 30 30 30 30 30 29 29 29 28 26 24 23 22 21 20 21 20 17 16 16 14
28 30 32 33 33 32 32 36 35 36 36 33 27 24 21 26 21 21 25 27 29 28 29 30 30 29 29 28 28 27 27 25 24 23 22 21 22 19 16 13 14 14 15 16

GFSNW_sfc_dewp_111.txt.gz
Dewpoint
46 47 47 48 48 48 44 41 33 43 46 34 33 32 34 36 33 34 34 32 30 29 28 26 26 31 33 32 33 33 35 31 25 25 29 29 26 27 29 28 27 30 29 29
45 46 46 44 47 48 41 37 35 43 43 29 30 32 31 33 34 36 34 26 27 28 27 27 30 32 36 32 32 37 37 32 25 22 27 29 24 24 31 31 32 25 21 27
43 44 45 45 45 47 44 36 29 34 35 35 33 30 32 34 38 31 32 26 26 29 27 29 28 33 32 33 29 35 33 28 23 20 26 28 22 19 22 26 23 22 19 29
42 42 44 45 45 46 43 37 33 31 27 30 33 33 32 29 32 29 27 28 28 29 26 27 25 30 33 30 30 29 30 24 25 22 25 18 14 14 16 18 19 19 17 26
40 41 44 45 46 47 39 33 34 37 30 29 31 32 36 32 30 31 24 29 30 29 27 27 26 34 34 28 26 29 30 27 25 23 20 13 12 9 8 10 10 12 21 27
41 41 43 44 45 44 35 39 39 37 33 32 30 27 29 31 32 30 27 27 28 29 30 31 29 34 33 29 26 26 25 25 23 21 20 17 10 20 18 22 25 25 23 28
40 42 44 45 45 44 41 40 38 36 30 32 30 29 29 30 30 33 32 32 32 33 30 29 29 32 31 28 29 28 26 23 23 20 13 9 22 25 26 27 27 27 26 27
41 43 44 44 44 45 42 43 40 37 30 31 30 32 29 29 31 35 36 34 35 34 27 24 21 19 20 22 23 24 23 24 19 18 18 21 21 26 25 23 25 27 26 28
42 43 44 44 44 45 43 43 43 38 33 30 34 31 31 33 34 34 35 35 34 28 28 25 23 19 18 17 16 17 17 23 23 21 17 12 23 26 28 30 19 25 25 25
43 43 43 42 45 46 43 41 43 40 33 35 38 35 34 38 35 33 30 28 27 29 26 23 23 23 18 18 19 17 19 22 20 21 19 23 29 26 29 16 17 25 26 26
42 43 44 43 46 46 43 41 43 41 34 35 38 38 37 38 36 31 29 26 26 27 25 26 26 28 27 25 25 20 21 21 21 21 18 17 27 27 23 24 27 26 27 25
43 43 43 44 45 45 42 39 42 45 36 36 39 37 39 38 37 31 30 28 27 30 26 24 25 27 27 27 24 30 20 24 24 25 23 28 27 28 31 30 27 27 27 27
44 44 45 45 44 44 42 41 42 42 38 36 34 32 32 33 33 37 28 30 31 31 35 33 30 24 27 23 23 27 30 32 24 25 25 25 27 28 29 28 27 26 26 25
44 45 44 43 43 42 43 40 42 42 39 32 28 31 31 33 33 35 34 32 32 32 34 31 31 28 33 27 28 26 27 28 26 27 27 26 27 27 27 27 26 26 25 24
43 43 42 42 42 41 43 43 43 44 38 29 28 30 30 31 32 32 33 32 30 31 27 29 28 29 29 31 30 28 31 27 23 25 27 27 27 28 26 26 25 26 25 25
42 43 42 42 42 44 41 33 42 43 41 32 28 30 30 31 32 32 30 31 30 30 28 27 31 32 30 26 25 30 31 32 31 28 30 28 28 28 26 26 26 25 24 23
42 43 42 42 43 42 36 35 37 38 40 33 27 25 30 32 32 31 31 31 30 31 24 24 27 28 30 26 24 29 31 30 29 29 27 27 27 26 26 25 24 24 23 23
42 43 43 43 43 41 36 37 39 39 39 36 27 27 27 32 29 28 31 29 30 29 27 26 26 25 27 25 27 29 30 30 29 29 28 27 26 25 24 23 22 21 21 21
42 42 43 40 39 36 33 36 38 42 37 29 28 25 22 32 30 31 29 30 27 28 27 26 25 25 23 27 27 28 28 29 29 28 26 25 25 23 22 21 21 20 20 21
41 37 36 33 36 36 37 36 33 33 30 31 28 31 26 31 30 29 28 28 27 24 26 29 24 23 29 29 29 29 28 29 29 26 25 24 22 22 21 21 21 21 20 19
35 35 33 34 37 37 33 28 27 29 25 28 30 28 27 31 26 27 29 26 25 21 24 22 22 22 25 28 29 29 30 29 29 28 26 25 23 23 23 23 22 21 20 18
35 35 35 36 34 31 25 25 26 25 22 27 28 28 30 30 32 27 27 23 24 21 27 21 16 27 28 28 29 30 30 30 30 28 27 26 25 25 24 23 21 20 18 16
36 32 29 29 27 18 18 17 22 23 29 30 30 27 29 30 31 25 25 16 17 27 16 18 24 30 32 32 30 29 30 30 29 29 27 25 25 25 23 21 19 18 16 15
28 26 15 21 18 23 27 29 27 29 30 32 31 28 27 27 24 23 15 22 24 13 12 20 26 31 31 32 32 31 32 31 28 27 25 23 21 21 21 20 19 17 14 12
27 27 19 22 28 28 31 29 30 30 32 31 28 27 27 23 16 22 21 15 12 16 22 26 30 31 31 31 31 30 28 26 24 23 22 21 20 19 18 18 16 15 13 12
29 29 25 27 24 27 30 31 31 33 30 30 29 25 20 19 22 20 14 20 18 23 27 29 30 29 29 29 29 29 27 25 23 21 22 20 19 18 18 15 14 13 12 9
28 27 32 32 29 30 30 33 29 34 29 27 25 17 20 24 21 21 23 21 26 27 28 29 29 28 28 27 26 25 24 22 22 21 21 20 20 17 16 14 15 15 13 9

GFSNW_sfc_dewp_114.txt.gz
Dewpoint
45 46 46 47 48 48 46 41 33 43 46 35 33 33 34 34 34 35 33 35 33 31 29 27 27 32 32 33 32 32 37 33 29 25 31 31 30 29 32 25 23 27 25 28
45 46 46 47 47 48 43 37 36 43 43 30 30 34 35 34 35 32 33 32 33 31 28 28 30 31 36 33 34 36 37 34 28 27 28 29 27 27 28 30 32 27 21 25
43 43 45 46 46 47 44 35 29 34 35 35 33 30 33 33 35 36 36 34 33 27 27 29 28 33 34 34 34 39 40 35 31 24 25 27 23 23 29 30 26 23 21 28
42 42 43 44 46 45 42 34 32 31 27 29 32 32 29 28 33 36 36 34 30 28 26 27 28 33 31 30 35 32 33 27 28 26 27 26 23 14 18 25 24 21 21 28
41 40 42 44 45 45 40 32 33 35 30 29 30 33 34 29 29 31 34 34 34 30 27 27 25 32 33 28 25 30 31 27 30 28 26 19 12 11 12 11 19 28 28 29
41 40 42 43 44 44 36 38 40 37 33 29 29 27 28 30 32 33 31 31 30 30 30 32 29 35 35 33 26 27 29 29 28 25 27 25 19 16 22 25 25 26 23 27
39 40 42 43 43 43 39 40 39 35 29 32 29 28 28 28 29 31 32 34 31 32 35 34 32 32 31 28 28 28 26 27 27 23 25 19 23 29 28 26 26 28 28 28
40 41 42 43 44 44 40 41 39 35 27 32 33 34 33 30 30 31 35 36 36 35 32 30 28 27 27 29 28 28 28 29 26 19 18 22 22 26 27 25 23 27 28 27
41 41 42 43 44 44 42 42 43 39 33 29 32 33 34 31 28 33 36 40 41 32 28 27 23 18 20 19 21 26 27 26 24 22 15 14 22 27 28 26 16 25 26 28
41 42 42 43 44 44 43 42 43 39 33 34 35 33 31 36 35 30 34 36 33 31 26 20 22 22 21 18 19 19 19 21 17 21 19 23 28 28 30 14 17 25 25 23
42 42 42 44 43 45 43 41 43 40 35 35 36 37 36 37 34 28 34 32 30 26 23 25 23 23 25 23 23 20 19 19 21 21 18 16 27 27 23 22 26 26 23 22
43 43 44 44 44 43 43 39 43 44 35 36 39 39 40 39 39 32 31 29 28 29 24 25 27 27 30 26 23 30 19 22 22 23 19 27 28 27 28 27 25 26 23 23
43 43 43 44 43 45 42 40 42 41 36 36 37 36 38 40 41 37 29 29 31 31 33 31 30 25 29 25 24 27 30 29 23 23 26 26 28 29 29 28 26 27 26 25
43 43 43 43 45 44 42 41 43 42 38 30 32 37 35 41 39 34 33 31 32 32 33 30 31 29 31 27 28 26 28 28 26 25 27 26 28 28 28 27 27 26 25 23
43 43 43 45 44 43 43 42 43 43 36 28 28 30 32 32 33 32 32 30 29 30 27 28 29 31 31 30 29 27 30 26 22 20 26 25 26 28 27 26 25 24 23 23
44 45 44 44 44 43 40 33 41 44 40 29 26 30 31 32 32 31 30 31 30 29 28 28 31 32 29 26 24 30 31 31 29 26 28 27 28 28 27 26 25 24 25 24
43 43 43 43 43 41 35 34 39 41 40 29 25 25 29 32 32 32 31 30 30 27 25 25 28 28 30 25 23 30 30 29 28 28 27 26 26 26 26 25 25 26 23 23
42 43 43 44 43 41 37 37 39 40 36 33 26 26 26 31 29 27 32 28 30 28 26 27 25 25 28 25 28 29 28 28 27 28 28 26 27 26 25 24 23 23 22 22
42 43 42 41 39 36 35 38 37 38 35 27 27 23 19 31 30 30 28 30 25 29 26 25 26 25 23 27 29 28 28 27 29 27 26 26 25 25 24 23 22 22 22 22
42 40 37 33 36 37 37 34 31 30 29 32 27 28 25 29 27 27 26 27 25 23 25 27 25 23 29 29 29 29 29 29 28 25 25 25 25 23 22 21 21 21 20 18
37 34 30 34 38 36 31 25 24 26 24 29 29 27 27 30 25 25 27 25 25 22 24 23 22 22 25 28 28 28 28 29 28 27 26 25 24 23 22 22 22 21 18 17
35 34 35 35 34 29 23 23 24 24 22 27 27 27 29 30 32 25 27 23 24 22 26 20 15 26 27 27 28 28 29 29 28 26 25 24 24 24 23 23 22 20 18 16
36 33 29 26 24 16 15 14 21 21 27 28 28 27 28 30 29 25 24 15 16 25 11 16 24 30 30 29 29 29 29 29 28 26 25 25 24 25 25 22 20 18 16 14
27 24 15 16 14 23 27 28 24 27 28 29 28 27 27 26 23 21 14 20 21 10 10 17 26 31 31 30 29 29 27 27 27 24 23 24 25 23 22 21 20 17 14 14
27 26 19 20 28 28 30 29 30 30 31 29 28 27 26 22 15 19 19 13 9 13 12 24 29 31 31 30 31 30 25 24 23 22 22 22 21 21 19 20 19 17 14 12
28 28 23 24 25 27 30 31 29 33 29 29 28 24 18 17 19 18 13 17 12 14 25 29 31 30 31 31 30 27 24 23 22 22 22 21 19 19 17 17 17 16 14 12
27 26 32 24 28 29 30 30 28 31 28 21 25 17 18 22 19 20 23 20 24 26 28 29 29 28 27 27 25 24 22 21 21 21 21 20 19 18 16 14 14 14 14 12

GFSNW_sfc_dewp_117.txt.gz
Dewpoint
46 46 47 47 48 48 46 41 34 40 48 36 35 33 33 34 32 31 32 35 32 30 29 28 26 29 31 33 34 31 35 33 29 28 30 32 31 29 31 22 22 27 19 20
45 46 46 46 47 47 44 37 36 42 43 30 30 32 32 33 31 31 33 30 33 34 30 28 29 29 35 33 35 35 36 32 26 28 31 33 33 30 31 31 30 26 21 22
44 45 45 45 46 47 43 35 30 33 37 36 31 31 33 32 36 34 36 34 33 31 29 31 28 31 34 34 35 41 39 34 28 22 25 29 30 30 30 30 27 25 25 28
43 44 44 45 45 46 43 36 31 32 27 30 33 32 31 29 32 34 36 32 34 31 29 28 29 32 31 30 39 37 35 29 31 32 31 32 32 30 30 27 27 25 22 28
43 43 43 45 45 45 41 31 32 35 30 30 32 31 30 29 29 30 35 33 33 35 31 31 25 32 31 28 31 31 32 26 28 27 29 27 27 21 11 23 26 27 27 30
42 42 43 43 44 43 38 36 39 36 31 28 29 28 28 27 30 30 30 32 33 32 34 35 34 32 34 34 28 29 30 29 28 24 30 32 27 23 15 25 26 28 25 28
41 41 42 43 43 42 39 40 35 32 26 30 28 27 28 28 28 30 32 33 31 33 38 39 37 33 30 32 28 31 29 29 29 25 27 20 25 29 29 26 26 29 29 29
40 41 42 42 43 42 38 39 38 35 29 27 31 31 28 29 29 29 30 31 37 38 36 32 30 28 30 30 29 28 30 28 26 20 22 23 24 26 25 25 24 27 28 26
40 41 42 42 43 42 41 38 41 37 32 30 33 33 32 30 31 30 30 38 42 39 32 30 23 21 23 25 26 28 29 29 26 24 18 16 19 27 28 24 15 26 27 25
40 40 41 42 42 42 40 39 41 39 32 33 35 32 31 34 32 31 32 37 36 37 30 24 22 21 22 21 22 26 27 27 23 21 19 20 27 28 28 11 15 25 26 26
38 40 41 42 42 42 41 40 43 38 33 35 36 35 34 34 34 28 32 33 32 31 27 27 25 22 22 21 19 22 21 22 21 20 18 13 27 27 22 22 25 24 21 22
40 40 41 42 42 43 43 39 43 43 36 34 38 37 39 38 38 31 32 30 31 32 29 26 28 27 24 23 20 27 17 21 20 23 20 27 29 27 26 26 25 22 21 24
43 43 42 42 43 42 43 40 42 41 37 35 37 34 38 40 41 38 31 30 32 31 33 31 29 25 26 21 21 27 28 28 23 24 25 27 28 28 27 27 25 23 23 22
43 43 43 43 43 43 44 40 42 41 38 29 33 39 38 41 41 41 35 31 33 34 32 27 26 27 30 27 27 27 28 27 25 25 27 27 28 27 27 27 26 24 24 22
43 43 43 43 42 43 43 42 43 43 36 27 31 37 39 40 39 38 33 32 29 28 26 27 27 30 31 29 29 27 29 27 23 22 26 25 26 27 27 26 26 25 22 21
43 43 43 41 45 43 40 34 41 43 41 29 28 31 33 34 34 32 30 31 30 28 28 29 31 32 31 27 24 30 31 30 28 26 28 27 28 27 27 25 25 23 22 22
43 43 43 44 43 40 36 32 36 41 39 28 24 25 29 32 32 32 31 31 31 26 26 27 29 29 30 27 24 28 29 29 28 28 27 26 26 26 26 24 23 25 24 23
44 45 44 43 42 41 37 36 42 41 35 31 23 24 25 30 28 27 31 28 28 28 25 27 25 25 28 25 29 28 28 28 27 27 27 26 26 25 25 25 25 23 22 22
44 44 43 42 39 36 38 40 40 38 34 26 25 21 18 30 29 29 28 29 24 28 26 25 26 25 22 26 28 27 27 26 27 27 26 26 25 25 25 25 23 22 22 22
42 41 37 33 37 40 38 35 32 31 29 31 26 28 25 29 27 26 25 27 24 22 25 26 25 22 28 30 29 28 28 29 27 25 25 25 25 25 24 23 23 22 22 22
38 32 32 36 38 35 31 27 23 25 24 29 29 27 27 30 24 25 26 25 25 22 24 22 22 21 25 28 29 29 29 28 27 26 26 26 26 25 23 23 23 23 21 18
35 33 36 35 33 28 23 22 24 23 23 26 25 26 28 30 30 26 27 24 24 21 25 21 15 20 26 27 27 27 28 28 28 27 25 25 24 23 23 23 22 21 19 16
35 32 28 27 24 14 13 13 20 20 26 27 27 26 28 27 27 24 24 17 16 24 12 15 20 27 28 28 29 28 27 27 26 25 25 25 24 24 24 22 21 18 16 15
27 24 16 18 15 24 26 26 24 26 26 28 28 25 25 25 23 21 16 20 20 9 9 15 25 28 29 29 29 28 25 24 24 23 23 23 24 25 24 22 19 17 15 14
26 25 18 22 28 29 30 31 30 27 27 28 26 25 25 21 16 19 18 14 8 12 9 22 29 30 29 29 29 21 19 19 20 22 23 23 23 22 20 21 20 18 15 14
28 27 24 25 23 28 31 31 28 32 27 27 27 23 18 18 19 16 12 14 9 12 25 29 31 31 30 31 29 24 18 18 21 22 23 23 22 20 19 19 18 17 16 14
27 26 28 21 24 28 30 31 30 30 28 22 24 16 18 22 18 19 22 17 22 26 28 29 30 30 30 29 26 22 19 21 21 21 22 20 19 19 18 16 17 17 16 13

GFSNW_sfc_dewp_120.txt.gz
Dewpoint
47 47 47 46 47 48 45 40 32 41 48 36 36 32 31 33 29 31 30 33 31 28 29 28 27 28 28 33 33 30 32 30 26 27 31 33 32 30 30 27 22 25 19 20
46 45 46 47 48 47 43 36 36 41 43 30 31 33 32 31 31 30 32 30 33 34 30 27 28 28 33 34 35 33 37 32 27 24 28 32 31 31 30 30 30 26 20 20
45 45 45 46 46 47 43 35 29 34 38 37 30 30 32 32 34 32 34 33 32 30 29 31 29 29 34 34 35 40 38 32 27 21 21 28 30 32 33 32 28 27 24 28
45 46 46 46 46 46 43 37 32 32 28 31 33 32 30 29 29 34 34 35 34 31 29 29 28 30 32 31 35 37 35 28 31 30 31 32 30 30 31 33 32 28 28 26
45 45 45 45 45 46 42 32 32 35 30 30 33 31 30 29 29 30 33 32 32 32 31 28 26 29 31 30 35 34 33 26 30 27 30 31 30 30 30 32 34 33 30 29
43 43 44 45 45 44 37 38 39 31 28 28 30 30 28 26 30 30 30 31 34 34 32 34 34 36 34 34 33 29 31 29 28 24 28 27 26 28 26 23 25 28 28 28
42 42 43 44 44 42 40 39 37 32 26 28 27 27 29 28 28 28 31 30 30 32 38 38 35 35 34 34 32 32 31 29 29 25 27 19 23 27 28 22 27 29 29 30
41 41 43 43 43 43 37 40 37 34 26 28 31 31 28 28 30 30 29 30 35 38 36 33 30 30 29 32 33 33 32 29 26 23 22 23 23 26 24 22 21 28 29 28
40 41 41 42 42 42 38 36 41 37 28 25 29 28 30 28 27 28 30 32 39 37 34 31 24 21 27 26 29 30 30 30 28 23 16 13 18 26 28 25 18 27 28 26
41 41 41 41 42 42 39 39 39 37 32 31 33 32 32 31 29 25 30 34 35 36 30 25 25 23 25 24 24 26 28 27 24 22 20 20 24 27 25 15 18 28 28 27
39 40 41 41 41 42 40 38 40 36 33 34 35 36 34 35 32 27 33 34 33 32 28 27 26 23 23 24 22 26 24 23 22 23 20 13 28 27 20 23 25 26 25 26
39 39 40 41 41 41 41 34 40 40 35 35 39 37 36 38 37 32 34 29 29 30 28 30 30 28 25 21 18 25 22 21 18 21 19 25 28 28 27 26 24 22 23 24
39 39 38 39 40 41 41 35 39 37 35 34 36 35 37 39 39 39 33 33 32 32 33 29 28 28 28 24 21 25 26 26 19 21 23 26 28 27 26 26 24 23 24 25
41 39 40 39 40 41 41 38 40 38 37 30 29 38 37 39 40 41 39 33 35 35 36 32 31 30 31 25 25 23 26 26 25 23 26 28 28 27 26 24 24 23 23 22
42 42 42 41 41 42 41 42 42 43 37 29 30 35 38 40 41 40 40 38 35 35 31 30 27 30 27 26 26 24 28 26 24 22 26 25 26 27 26 24 23 22 21 21
42 42 43 43 43 43 40 32 40 41 42 32 28 36 36 38 39 40 38 35 31 32 30 28 29 32 28 23 25 29 31 29 27 26 28 28 28 27 26 24 23 22 21 21
42 42 43 43 43 42 36 33 37 42 41 32 29 30 35 37 37 36 33 32 31 26 26 26 28 28 32 29 26 29 28 28 28 28 27 26 26 26 26 24 23 24 22 21
43 43 42 42 42 42 38 37 42 43 37 32 26 27 28 32 30 30 31 28 27 27 25 26 25 26 29 27 29 27 27 27 27 27 27 26 26 25 24 24 23 22 21 21
43 42 43 41 39 36 38 42 42 40 37 27 24 21 19 29 28 28 27 27 24 27 25 24 25 24 21 26 28 27 27 26 26 26 26 25 24 23 24 23 22 21 21 21
43 41 37 32 38 42 41 38 34 34 32 30 23 25 22 27 24 26 25 26 24 23 25 26 24 22 28 29 29 28 28 27 26 25 25 25 24 24 24 23 22 22 22 21
36 31 32 38 42 36 32 25 25 25 24 27 27 27 26 30 24 25 26 24 24 20 23 21 21 22 26 28 28 28 29 27 27 26 26 26 25 25 24 23 23 23 22 21
33 37 38 35 33 28 23 21 24 23 23 26 26 26 28 29 28 26 26 23 23 21 24 20 15 20 26 28 28 28 27 27 26 26 26 26 26 25 24 23 23 23 21 17
35 32 26 26 23 15 14 13 19 20 26 26 27 25 27 26 27 24 24 16 16 24 13 16 19 26 27 26 26 26 27 26 26 25 25 25 24 24 24 24 23 20 17 16
28 25 18 19 15 22 23 25 24 28 26 28 27 25 24 24 23 20 16 20 20 11 10 13 18 26 26 27 27 26 24 23 24 22 22 21 23 23 23 22 21 18 16 15
26 25 19 23 27 29 30 31 31 30 26 26 25 25 24 20 16 19 19 15 8 11 7 17 28 27 27 29 27 20 17 16 16 17 18 19 23 22 20 21 20 19 16 16
28 27 25 25 25 29 31 30 29 29 26 26 26 22 18 18 19 16 11 12 6 10 23 28 30 29 29 28 25 14 17 18 18 16 19 20 21 21 20 20 19 18 17 15
26 22 26 21 23 27 28 29 27 29 27 21 24 17 20 21 17 18 21 17 20 26 28 30 30 30 30 27 22 19 16 19 20 18 20 19 20 19 19 16 17 18 17 16

GFSNW_sfc_dewp_123.txt.gz
Dewpoint
45 48 48 49 48 48 44 40 32 42 48 34 34 30 29 31 28 28 29 31 32 27 28 27 26 26 27 33 32 31 32 31 27 27 33 32 31 30 30 28 26 28 26 24
43 44 47 48 47 47 43 36 35 42 44 28 29 29 28 29 30 28 30 30 32 34 30 26 29 28 33 34 34 33 36 33 27 28 32 33 32 32 32 33 31 27 25 21
44 45 48 48 47 47 43 36 30 35 38 37 31 27 27 28 31 30 31 32 32 31 30 32 30 30 33 35 34 41 38 34 29 23 26 30 31 32 32 33 29 27 25 24
45 47 48 46 46 46 42 36 33 33 28 32 32 31 30 28 27 32 32 30 33 30 28 28 28 29 30 32 34 39 37 29 30 29 28 29 28 27 29 30 30 27 24 26
44 45 46 46 45 45 40 32 33 35 31 32 31 29 27 25 28 30 34 33 32 33 31 29 26 30 31 29 35 37 35 29 30 27 30 30 29 29 29 29 30 31 31 32
44 43 45 45 44 46 37 36 39 34 31 30 31 30 27 28 29 31 31 33 32 32 33 34 35 35 34 34 33 32 33 31 29 24 27 30 27 28 28 28 29 29 28 30
42 45 44 42 43 44 39 38 36 32 27 30 28 31 30 28 29 28 30 32 31 32 38 37 36 35 35 35 34 35 33 32 31 25 27 21 20 27 28 29 29 29 29 31
43 45 44 44 44 42 40 41 37 34 28 29 29 29 29 30 31 30 30 32 34 38 36 30 28 28 30 31 32 33 33 31 27 25 23 23 22 25 28 28 27 30 29 30
43 43 43 44 44 43 39 41 41 35 30 28 29 30 30 28 28 29 30 33 37 36 32 30 22 19 24 24 28 33 33 32 28 26 21 17 26 26 28 26 23 29 31 29
41 42 42 43 42 43 40 39 40 37 32 32 32 30 30 31 30 28 30 34 35 36 29 26 22 21 24 18 25 26 28 29 26 24 22 23 26 27 24 22 28 30 31 30
40 41 41 42 42 42 40 37 41 37 32 32 36 35 34 34 33 28 31 33 34 33 28 25 25 25 25 26 27 26 25 25 24 25 23 19 28 25 22 31 28 30 30 29
37 39 41 41 41 41 40 35 41 40 35 33 39 38 37 37 36 34 35 31 33 33 29 28 28 27 28 25 23 26 26 30 26 25 26 27 29 29 28 28 28 29 30 28
37 38 40 41 41 41 40 37 39 38 34 33 34 31 35 39 39 40 34 35 33 34 35 33 32 29 29 25 25 25 26 26 26 25 26 26 29 28 27 27 27 27 28 27
40 38 39 40 41 42 41 38 39 36 34 28 29 38 37 39 39 39 38 36 36 36 37 35 33 30 31 28 28 28 25 26 25 25 26 28 28 28 27 26 26 27 27 27
40 41 39 39 39 40 41 39 40 39 33 30 29 35 37 39 39 39 39 38 37 37 34 34 30 34 33 32 30 27 28 28 26 26 27 27 28 29 26 25 25 25 24 23
41 39 38 38 39 40 39 33 39 41 41 33 29 36 36 38 39 39 38 38 37 37 34 33 33 33 30 28 27 28 31 29 28 31 29 29 29 27 25 24 23 23 23 22
41 41 41 40 40 40 34 33 37 41 41 32 29 30 35 36 38 38 37 37 35 35 32 30 31 31 32 30 28 29 29 29 29 29 28 27 27 26 25 23 22 23 21 21
41 42 43 42 42 40 36 39 42 42 36 33 29 29 32 36 33 33 34 33 32 30 27 28 27 29 31 29 29 28 28 28 27 27 27 27 27 25 23 23 22 21 21 20
43 43 42 40 38 34 37 43 43 42 37 31 28 27 26 34 32 32 30 29 28 29 27 26 26 26 25 27 28 28 27 27 27 26 26 26 25 23 23 22 21 21 20 20
42 39 34 32 38 43 43 39 33 34 35 33 26 26 28 30 29 28 28 27 25 25 27 27 28 27 28 29 30 28 28 27 26 25 25 24 24 24 23 22 22 21 21 20
38 34 32 39 42 37 34 30 29 29 26 28 27 27 28 30 28 27 27 26 26 21 25 24 24 24 27 29 28 28 28 27 27 27 27 26 25 24 23 23 22 22 21 21
34 38 39 36 34 30 24 21 25 23 23 28 28 27 29 30 29 29 27 23 25 21 25 23 20 23 28 29 28 29 28 28 27 27 27 26 25 25 24 23 23 23 22 20
36 32 28 29 25 17 16 13 20 22 28 28 29 28 29 27 28 26 25 21 21 25 21 20 22 26 28 28 28 28 28 27 27 27 27 26 26 25 25 25 25 22 21 20
28 26 21 21 18 23 23 26 26 29 28 29 29 27 27 27 25 23 21 23 22 19 17 17 23 27 28 28 28 27 27 26 26 26 25 24 24 24 25 24 23 20 19 17
27 25 21 24 28 30 29 31 32 30 29 28 27 26 26 23 21 22 21 19 16 17 17 23 27 28 28 27 27 24 22 20 21 22 21 21 22 22 22 23 23 21 18 17
29 27 25 26 27 29 31 30 30 30 29 29 28 23 22 21 21 18 15 15 12 17 24 29 30 30 30 27 25 21 20 21 20 21 22 22 20 20 21 21 21 20 19 17
26 25 26 24 26 27 28 29 29 30 29 25 25 20 21 23 20 20 20 20 23 27 29 31 31 31 30 25 21 19 20 21 22 21 22 21 21 21 20 18 19 19 19 19

GFSNW_sfc_dewp_126.txt.gz
Dewpoint
42 43 44 46 47 48 48 41 34 44 47 34 34 31 27 25 22 28 27 30 28 23 26 24 26 22 22 32 32 30 30 28 22 25 25 28 26 25 28 29 28 31 29 25
41 42 43 44 46 48 44 36 38 46 44 30 30 27 26 26 23 25 24 26 28 29 26 23 25 27 33 34 30 32 34 33 26 23 28 31 28 27 27 29 29 28 26 22
41 42 43 43 45 49 44 37 32 36 39 34 27 25 23 24 27 28 30 29 29 27 25 26 23 25 32 35 34 40 37 29 27 20 23 31 34 32 31 31 32 27 24 21
41 42 43 44 46 47 41 36 34 35 30 32 27 27 23 20 23 26 27 29 30 27 25 24 25 26 25 29 33 33 31 25 23 22 23 24 28 27 25 27 29 28 25 22
40 42 43 44 45 44 38 33 34 35 34 30 27 28 27 20 20 24 25 26 24 25 25 23 20 25 27 26 30 32 34 25 23 21 20 20 19 21 21 21 22 24 24 25
40 42 43 43 47 45 35 37 40 36 33 32 31 29 26 24 27 28 26 28 29 29 29 30 30 33 33 32 31 30 32 29 26 21 21 25 25 24 22 22 22 24 23 24
40 41 42 42 47 44 40 40 40 35 29 33 28 25 25 24 24 26 26 29 30 30 34 35 34 33 31 31 31 31 30 30 29 24 25 22 20 22 23 22 24 25 26 25
41 41 43 43 45 44 42 42 39 36 32 28 29 29 26 27 30 30 28 30 32 35 33 28 28 27 29 31 28 27 30 29 27 24 19 17 17 22 31 32 25 26 28 28
42 41 43 42 44 45 42 43 44 39 33 30 28 29 29 30 30 32 32 34 35 34 32 28 22 17 20 17 27 30 28 30 28 23 20 16 27 19 27 29 26 24 28 28
42 42 43 43 43 43 42 41 43 38 36 32 34 32 30 29 29 27 30 32 34 35 31 27 22 19 17 18 21 25 28 29 26 25 23 22 26 26 27 25 26 29 32 35
42 43 42 42 43 42 39 40 41 33 35 34 34 33 32 32 31 28 32 34 34 33 29 25 23 24 20 19 29 19 21 23 26 27 25 22 29 27 23 34 32 33 36 36
41 40 41 42 44 42 40 37 41 40 33 33 35 34 35 36 34 31 33 27 31 32 29 28 26 26 27 23 21 23 26 32 28 27 27 31 29 32 33 31 31 34 35 35
35 39 42 42 43 41 39 39 40 39 34 31 32 30 32 37 38 39 33 32 31 36 39 37 33 28 25 24 25 24 27 29 30 27 29 28 32 31 30 30 31 34 33 32
39 37 40 41 41 41 39 37 39 34 31 28 25 32 30 31 35 37 39 35 39 37 39 36 35 32 31 27 28 28 26 28 27 31 30 29 29 32 32 30 31 32 31 31
39 38 39 41 41 41 42 42 41 36 28 29 28 35 36 37 35 35 37 38 36 38 36 33 30 32 35 34 34 29 30 33 30 28 29 30 32 33 32 30 31 31 30 28
39 40 38 40 41 41 41 34 39 40 38 32 26 36 36 37 37 37 36 37 37 38 36 32 32 36 35 33 31 29 30 30 30 34 32 32 33 32 29 29 29 29 28 28
39 41 40 40 41 41 34 33 37 39 40 35 28 30 36 36 36 37 37 38 37 36 34 35 36 34 35 35 26 31 31 31 31 31 30 29 29 28 27 26 25 27 26 25
39 40 40 39 41 39 35 39 42 43 38 36 28 27 32 36 34 33 37 34 35 35 36 35 34 33 34 28 33 30 30 31 30 29 28 28 28 26 24 24 24 23 23 23
41 40 40 41 38 34 33 41 43 43 37 30 30 28 28 34 35 35 36 36 32 35 33 30 30 31 26 28 30 30 30 30 29 28 27 27 26 24 23 23 23 23 22 22
41 40 35 33 38 41 41 37 34 33 34 34 30 32 31 35 36 34 32 31 30 29 29 29 30 27 30 30 30 30 29 29 28 27 26 26 25 24 23 23 23 23 22 22
39 36 33 39 42 38 35 32 30 31 30 33 30 30 31 33 31 29 28 27 28 20 27 25 25 24 29 30 30 30 29 29 28 28 28 27 26 25 24 23 23 23 23 22
38 38 38 37 36 35 29 27 26 26 24 30 28 29 31 31 32 30 28 24 27 16 30 26 21 28 30 30 29 30 30 29 28 28 28 28 27 26 25 24 24 24 25 26
39 32 30 31 28 25 21 20 23 27 31 32 33 33 32 30 31 31 27 27 26 28 29 21 26 29 30 30 30 29 29 29 28 28 28 27 27 27 28 26 28 27 24 22
29 28 25 26 25 25 27 28 31 31 34 34 34 33 33 32 30 29 26 27 28 25 21 20 28 29 30 30 29 28 29 30 30 30 30 29 28 27 29 27 26 25 22 23
27 26 22 24 28 30 30 34 33 32 34 33 32 30 29 28 28 27 25 24 21 22 24 28 30 32 32 32 33 31 29 28 29 29 28 27 27 27 26 26 26 25 22 21
29 28 29 31 31 31 32 33 32 34 34 33 30 27 26 24 24 20 18 15 15 25 30 32 31 32 33 32 32 31 30 30 29 29 28 27 26 26 27 26 26 23 23 21
26 29 31 31 32 31 32 33 34 34 34 32 26 22 20 26 21 19 23 26 28 31 32 33 34 33 33 31 29 26 27 28 29 28 28 28 28 26 25 24 24 24 23 23